[[{"header":{"parameterUnit":"m.s-1","parameterCategory":1,"la1":30.6,"la2":28.766,"lo1":-90.7593,"lo2":-88.6598,"dy":0.0162,"dx":0.0183,"nx":116,"ny":114,"refTime":"2023-11-03T00:00:00:Z","depth":0,"parameterNumber":2,"parameterNumberName":"U-component_of_WINDS"},"data":[0.0,0.0,0.0,0.0,0.0,0.0,0.0,0.0,0.0,0.0,0.0,0.0,0.0,0.0,0.0,0.0,0.0,0.0,0.0,0.0,0.0,0.0,0.0,0.0,0.0,0.0,0.0,0.0,0.0,0.0,0.0,0.0,0.0,0.0,0.0,0.0,0.0,0.0,0.0,0.0,0.0,0.0,0.0,0.0,0.0,0.0,0.0,0.0,0.0,0.0,0.0,0.0,0.0,0.0,0.0,0.0,0.0,0.0,0.0,0.0,0.0,0.0,0.0,0.0,0.0,0.0,0.0,0.0,0.0,0.0,0.0,0.0,0.0,0.0,0.0,0.0,0.0,0.0,0.0,0.0,0.0,0.0,0.0,0.0,0.0,0.0,0.0,0.0,0.0,0.0,0.0,0.0,0.0,0.0,0.0,0.0,0.0,0.0,0.0,0.0,0.0,0.0,0.0,0.0,0.0,0.0,0.0,0.0,0.0,0.0,0.0,0.0,0.0,0.0,0.0,0.0,0.0,0.0,0.0,0.0,0.0,0.0,0.0,0.0,0.0,0.0,0.0,0.0,0.0,0.0,0.0,0.0,0.0,0.0,0.0,0.0,0.0,0.0,0.0,0.0,0.0,0.0,0.0,0.0,0.0,0.0,0.0,0.0,0.0,0.0,0.0,0.0,0.0,0.0,0.0,0.0,0.0,0.0,0.0,0.0,0.0,0.0,0.0,0.0,0.0,0.0,0.0,0.0,0.0,0.0,0.0,0.0,0.0,0.0,0.0,0.0,0.0,0.0,0.0,0.0,0.0,0.0,0.0,0.0,0.0,0.0,0.0,0.0,0.0,0.0,0.0,0.0,0.0,0.0,0.0,0.0,0.0,0.0,0.0,0.0,0.0,0.0,0.0,0.0,0.0,0.0,0.0,0.0,0.0,0.0,0.0,0.0,0.0,0.0,0.0,0.0,0.0,0.0,0.0,0.0,0.0,0.0,0.0,0.0,0.0,0.0,0.0,0.0,0.0,0.0,0.0,0.0,0.0,0.0,0.0,0.0,0.0,0.0,0.0,0.0,0.0,0.0,0.0,0.0,0.0,0.0,0.0,0.0,0.0,0.0,0.0,0.0,0.0,0.0,0.0,0.0,0.0,0.0,0.0,0.0,0.0,0.0,0.0,0.0,0.0,0.0,0.0,0.0,0.0,0.0,0.0,0.0,0.0,0.0,0.0,0.0,0.0,0.0,0.0,0.0,0.0,0.0,0.0,0.0,0.0,0.0,0.0,0.0,0.0,0.0,0.0,0.0,0.0,0.0,0.0,0.0,0.0,0.0,0.0,0.0,0.0,0.0,0.0,0.0,0.0,0.0,0.0,0.0,0.0,0.0,0.0,0.0,0.0,0.0,0.0,0.0,0.0,0.0,0.0,0.0,0.0,0.0,0.0,0.0,0.0,0.0,0.0,0.0,0.0,0.0,0.0,0.0,0.0,0.0,0.0,0.0,0.0,0.0,0.0,0.0,0.0,0.0,0.0,0.0,0.0,0.0,0.0,0.0,0.0,0.0,0.0,0.0,0.0,0.0,0.0,0.0,0.0,0.0,0.0,0.0,0.0,0.0,0.0,0.0,0.0,0.0,0.0,0.0,0.0,0.0,0.0,0.0,0.0,0.0,0.0,0.0,0.0,0.0,0.0,0.0,0.0,0.0,0.0,0.0,0.0,0.0,0.0,0.0,0.0,0.0,0.0,0.0,0.0,0.0,0.0,0.0,0.0,0.0,0.0,0.0,0.0,0.0,0.0,0.0,0.0,0.0,0.0,0.0,0.0,0.0,0.0,0.0,0.0,0.0,0.0,0.0,0.0,0.0,0.0,0.0,0.0,0.0,0.0,0.0,0.0,0.0,0.0,0.0,0.0,0.0,0.0,0.0,0.0,0.0,0.0,0.0,0.0,0.0,0.0,0.0,0.0,0.0,0.0,0.0,0.0,0.0,0.0,0.0,0.0,0.0,0.0,0.0,0.0,0.0,0.0,0.0,0.0,0.0,0.0,0.0,0.0,0.0,0.0,0.0,0.0,0.0,0.0,0.0,0.0,0.0,0.0,0.0,0.0,0.0,0.0,0.0,0.0,0.0,0.0,0.0,0.0,0.0,0.0,0.0,0.0,0.0,0.0,0.0,0.0,0.0,0.0,0.0,0.0,0.0,0.0,0.0,0.0,0.0,0.0,0.0,0.0,0.0,0.0,0.0,0.0,0.0,0.0,0.0,0.0,0.0,0.0,0.0,0.0,0.0,0.0,0.0,0.0,0.0,0.0,0.0,0.0,0.0,0.0,0.0,0.0,0.0,0.0,0.0,0.0,0.0,0.0,0.0,0.0,0.0,0.0,0.0,0.0,0.0,0.0,0.0,0.0,0.0,0.0,0.0,0.0,0.0,0.0,0.0,0.0,0.0,0.0,0.0,0.0,0.0,0.0,0.0,0.0,0.0,0.0,0.0,0.0,0.0,0.0,0.0,0.0,0.0,0.0,0.0,0.0,0.0,0.0,0.0,0.0,0.0,0.0,0.0,0.0,0.0,0.0,0.0,0.0,0.0,0.0,0.0,0.0,0.0,0.0,0.0,0.0,0.0,0.0,0.0,0.0,0.0,0.0,0.0,0.0,0.0,0.0,0.0,0.0,0.0,0.0,0.0,0.0,0.0,0.0,0.0,0.0,0.0,0.0,0.0,0.0,0.0,0.0,0.0,0.0,0.0,0.0,0.0,0.0,0.0,0.0,0.0,0.0,0.0,0.0,0.0,0.0,0.0,0.0,0.0,0.0,0.0,0.0,0.0,0.0,0.0,0.0,0.0,0.0,0.0,0.0,0.0,0.0,0.0,0.0,0.0,0.0,0.0,0.0,0.0,0.0,0.0,0.0,0.0,0.0,0.0,0.0,0.0,0.0,0.0,0.0,0.0,0.0,0.0,0.0,0.0,0.0,0.0,0.0,0.0,0.0,0.0,0.0,0.0,0.0,0.0,0.0,0.0,0.0,0.0,0.0,0.0,0.0,0.0,0.0,0.0,0.0,0.0,0.0,0.0,0.0,0.0,0.0,0.0,0.0,0.0,0.0,0.0,0.0,0.0,0.0,0.0,0.0,0.0,0.0,0.0,0.0,0.0,0.0,0.0,0.0,0.0,0.0,0.0,0.0,0.0,0.0,0.0,0.0,0.0,0.0,0.0,0.0,0.0,0.0,0.0,0.0,0.0,0.0,0.0,0.0,0.0,0.0,0.0,0.0,0.0,0.0,0.0,0.0,0.0,0.0,0.0,0.0,0.0,0.0,0.0,0.0,0.0,0.0,0.0,0.0,0.0,0.0,0.0,0.0,0.0,0.0,0.0,0.0,0.0,0.0,0.0,0.0,0.0,0.0,0.0,0.0,0.0,0.0,0.0,0.0,0.0,0.0,0.0,0.0,0.0,0.0,0.0,0.0,0.0,0.0,0.0,0.0,0.0,0.0,0.0,0.0,0.0,0.0,0.0,0.0,0.0,0.0,0.0,0.0,0.0,0.0,0.0,0.0,0.0,0.0,0.0,0.0,0.0,0.0,0.0,0.0,0.0,0.0,0.0,0.0,0.0,0.0,0.0,0.0,0.0,0.0,0.0,0.0,0.0,0.0,0.0,0.0,0.0,0.0,0.0,0.0,0.0,0.0,0.0,0.0,0.0,0.0,0.0,0.0,0.0,0.0,0.0,0.0,0.0,0.0,0.0,0.0,0.0,0.0,0.0,0.0,0.0,0.0,0.0,0.0,0.0,0.0,0.0,0.0,0.0,0.0,0.0,0.0,0.0,0.0,0.0,0.0,0.0,0.0,0.0,0.0,0.0,0.0,0.0,0.0,0.0,0.0,0.0,0.0,0.0,0.0,0.0,0.0,0.0,0.0,0.0,0.0,0.0,0.0,0.0,0.0,0.0,0.0,0.0,0.0,0.0,0.0,0.0,0.0,0.0,0.0,0.0,0.0,0.0,0.0,0.0,0.0,0.0,0.0,0.0,0.0,0.0,0.0,0.0,0.0,0.0,0.0,0.0,0.0,0.0,0.0,0.0,0.0,0.0,0.0,0.0,0.0,0.0,0.0,0.0,0.0,0.0,0.0,0.0,0.0,0.0,0.0,0.0,0.0,0.0,0.0,0.0,0.0,0.0,0.0,0.0,0.0,0.0,0.0,0.0,0.0,0.0,0.0,0.0,0.0,0.0,0.0,0.0,0.0,0.0,0.0,0.0,0.0,0.0,0.0,0.0,0.0,0.0,0.0,0.0,0.0,0.0,0.0,0.0,0.0,0.0,0.0,0.0,0.0,0.0,0.0,0.0,0.0,0.0,0.0,0.0,0.0,0.0,0.0,0.0,0.0,0.0,0.0,0.0,0.0,0.0,0.0,0.0,0.0,0.0,0.0,0.0,0.0,0.0,0.0,0.0,0.0,0.0,0.0,0.0,0.0,0.0,0.0,0.0,0.0,0.0,0.0,0.0,0.0,0.0,0.0,0.0,0.0,0.0,0.0,0.0,0.0,0.0,0.0,0.0,0.0,0.0,0.0,0.0,0.0,0.0,0.0,0.0,0.0,0.0,0.0,0.0,0.0,0.0,0.0,0.0,0.0,0.0,0.0,0.0,0.0,0.0,0.0,0.0,0.0,0.0,0.0,0.0,0.0,0.0,0.0,0.0,0.0,0.0,0.0,0.0,0.0,0.0,0.0,0.0,0.0,0.0,0.0,0.0,0.0,0.0,0.0,0.0,0.0,0.0,0.0,0.0,0.0,0.0,0.0,0.0,0.0,0.0,0.0,0.0,0.0,0.0,0.0,0.0,0.0,0.0,0.0,0.0,0.0,0.0,0.0,0.0,0.0,0.0,0.0,0.0,0.0,0.0,0.0,0.0,0.0,0.0,0.0,0.0,0.0,0.0,0.0,0.0,0.0,0.0,0.0,0.0,0.0,0.0,0.0,0.0,0.0,0.0,0.0,0.0,0.0,0.0,0.0,0.0,0.0,0.0,0.0,0.0,0.0,0.0,0.0,0.0,0.0,0.0,0.0,0.0,0.0,0.0,0.0,0.0,0.0,0.0,0.0,0.0,0.0,0.0,0.0,0.0,0.0,0.0,0.0,0.0,0.0,0.0,0.0,0.0,0.0,0.0,0.0,0.0,0.0,0.0,0.0,0.0,0.0,0.0,0.0,0.0,0.0,0.0,0.0,0.0,0.0,0.0,0.0,0.0,0.0,0.0,0.0,0.0,0.0,0.0,0.0,0.0,0.0,0.0,0.0,0.0,0.0,0.0,0.0,0.0,0.0,0.0,0.0,0.0,0.0,0.0,0.0,0.0,0.0,0.0,0.0,0.0,0.0,0.0,0.0,0.0,0.0,0.0,0.0,0.0,0.0,0.0,0.0,0.0,0.0,0.0,0.0,0.0,0.0,0.0,0.0,0.0,0.0,0.0,0.0,0.0,0.0,0.0,0.0,0.0,0.0,0.0,0.0,0.0,0.0,0.0,0.0,0.0,0.0,0.0,0.0,0.0,0.0,0.0,0.0,0.0,0.0,0.0,0.0,0.0,0.0,0.0,0.0,0.0,0.0,0.0,0.0,0.0,0.0,0.0,0.0,0.0,0.0,0.0,0.0,0.0,0.0,0.0,0.0,0.0,0.0,0.0,0.0,0.0,0.0,0.0,0.0,0.0,0.0,0.0,0.0,0.0,0.0,0.0,0.0,0.0,0.0,0.0,0.0,0.0,0.0,0.0,0.0,0.0,0.0,0.0,0.0,0.0,0.0,0.0,0.0,0.0,0.0,0.0,0.0,0.0,0.0,0.0,0.0,0.0,0.0,0.0,0.0,0.0,0.0,0.0,0.0,0.0,0.0,0.0,0.0,0.0,0.0,0.0,0.0,0.0,0.0,0.0,0.0,0.0,0.0,0.0,0.0,0.0,0.0,0.0,0.0,0.0,0.0,0.0,0.0,0.0,0.0,0.0,0.0,0.0,0.0,0.0,0.0,0.0,0.0,0.0,0.0,0.0,0.0,0.0,0.0,0.0,0.0,0.0,0.0,0.0,0.0,0.0,0.0,0.0,0.0,0.0,0.0,0.0,1.2196,1.1901,0.0,0.0,0.0,0.0,0.0,0.0,0.0,0.0,0.0,0.0,0.0,0.0,0.0,0.0,0.0,0.0,0.0,0.0,0.0,0.0,0.0,0.0,0.0,0.0,0.0,0.0,0.0,0.0,0.0,0.0,0.0,0.0,0.0,0.0,0.0,0.0,0.0,0.0,0.3203,0.3037,0.2048,0.2579,0.3982,0.602,0.0,0.0,0.0,0.0,0.0,0.0,0.0,0.0,0.0,0.0,0.0,0.0,0.0,0.0,0.0,0.0,0.0,0.0,0.0,0.0,0.0,0.0,0.0,0.0,0.0,0.0,0.0,0.0,0.0,0.0,0.0,0.0,0.0,0.0,0.0,0.0,0.0,0.0,0.0,0.0,0.0,0.0,0.0,0.0,0.0,0.0,0.0,0.0,0.0,0.0,0.0,0.0,0.0,0.0,0.0,0.0,0.0,0.0,0.0,0.0,0.0,0.0,0.0,0.0,0.0,0.0,0.0,0.0,0.0,0.0,1.3216,1.2629,0.0,0.0,0.0,0.0,0.0,0.0,0.0,0.0,0.0,0.0,0.0,0.0,0.0,0.0,0.0,0.0,0.0,0.0,0.0,0.0,0.0,0.0,0.0,0.0,0.3809,0.4421,0.4687,0.4699,0.0,0.0,0.0,0.0,0.0,0.0,0.0,0.0,0.0,0.0,0.0946,0.0339,-0.0917,-0.1109,0.0505,0.3563,0.3188,0.0,0.0,0.0,0.0,0.0,0.0,0.0,0.0,0.0,0.0,0.0,0.0,0.0,0.0,0.0,0.0,0.0,0.0,0.0,0.0,0.0,0.0,0.0,0.0,0.0,0.0,0.0,0.0,0.0,0.0,0.0,0.0,0.0,0.0,0.0,0.0,0.0,0.0,0.0,0.0,0.0,0.0,0.0,0.0,0.0,0.0,0.0,0.0,0.0,0.0,0.0,0.0,0.0,0.0,0.0,0.0,0.0,0.0,0.0,0.0,0.0,0.0,0.0,1.6412,1.6457,1.5961,1.6039,1.5859,1.5449,1.5171,1.4316,1.3108,1.3494,0.0,0.0,0.0,0.0,0.0,0.0,0.0,0.0,0.0,0.0,0.0,0.0,0.0,0.0,0.0,0.0,0.0,0.0,0.0,0.0,0.0,0.2218,0.2714,0.3891,0.4074,0.4216,0.0,0.0,0.0,0.0,0.0,0.0,0.0,0.1285,0.0387,-0.0783,-0.1784,-0.2507,-0.2915,-0.3115,-0.2952,-0.2356,0.0015,0.1054,0.1083,0.0,0.0,0.0,0.0,0.0,0.0,0.0,0.0,0.0,0.0,0.0,0.0,0.0,0.0,0.0,0.0,0.0,0.0,0.0,0.0,0.0,0.0,0.0,0.0,0.0,0.0,0.0,0.0,0.0,0.0,0.0,0.0,0.0,0.0,0.0,0.0,0.0,0.0,0.0,0.0,0.0,1.0732,1.0732,0.0,0.0,0.0,0.0,0.0,0.0,0.0,0.0,0.0,0.0,0.0,0.0,0.0,1.594,1.596,1.7158,1.7356,1.6562,1.8129,1.8644,1.8188,1.8594,1.8535,1.8108,1.8051,0.0,1.3419,1.319,0.0,0.0,0.0,0.0,0.0,0.0,0.0,0.0,0.0,0.0,0.0,0.0,0.0,0.0,0.0,0.0,0.0,0.0,0.0,0.0,0.0,0.0109,0.0195,0.1018,0.1498,0.1975,0.2506,0.3043,0.0,0.0,0.0,0.0,0.1309,0.0166,-0.1182,-0.2724,-0.4137,-0.4769,-0.4705,-0.4978,-0.5119,-0.5028,-0.3252,-0.166,-0.0304,0.0111,0.0,0.0,0.0,0.0,0.0,0.0,0.0,0.0,0.0,0.0,0.0,0.0,0.0,0.0,0.0,0.0,0.0,0.0,0.0,0.0,0.0,0.0,0.0,0.0,0.0,0.0,0.0,0.0,0.0,0.0,0.0,0.0,0.0,0.0,0.0,0.0,0.0,0.0,0.0,1.1814,1.2176,1.1677,1.2246,1.225,0.0,0.0,0.0,0.0,0.0,0.0,0.0,0.0,0.0,1.6988,1.7636,1.8075,1.8267,1.9583,1.9771,1.8858,2.06,2.0924,2.0027,2.0754,2.0996,2.0762,2.0039,1.873,1.6985,1.5679,1.5008,1.4827,0.0,0.0,0.0,0.0,1.712,1.754,0.0,0.0,0.0,0.0,0.0,0.0,0.0,0.0,0.0,0.0,0.0,0.0,-0.1734,-0.2145,-0.2301,-0.2021,-0.108,-0.0191,0.059,0.1513,0.0,0.0,0.0,0.1023,0.0355,-0.1375,-0.305,-0.4641,-0.5812,-0.6314,-0.6133,-0.6437,-0.6566,-0.6478,-0.5765,-0.4152,-0.1884,-0.1363,-0.0243,0.1239,0.0,0.0,0.0,0.0,0.0,0.0,0.0,0.0,0.0,0.0,0.0,0.0,0.0,0.0,0.0,0.0,0.0,0.0,0.0,0.0,0.0,0.0,0.0,0.0,0.0,0.0,0.0,0.0,0.0,0.0,0.0,0.0,0.0,0.0,0.0,0.0,0.0,1.2878,1.3259,1.238,1.36,1.3848,0.0,0.0,0.0,0.0,0.0,0.0,1.6447,1.7301,1.784,1.8018,1.8714,1.9269,1.9698,2.0689,2.089,2.0305,2.161,2.1766,2.0937,2.1894,2.2258,2.2086,2.1381,2.0762,2.0077,1.7852,1.6671,1.6256,1.6744,1.71,1.7433,1.8352,1.8933,1.9374,0.0,0.0,0.0,0.0,0.0,0.0,0.0,0.0,0.0,0.0,0.0,-0.341,-0.4475,-0.4291,-0.4173,-0.4408,-0.287,-0.1525,-0.0666,0.0269,0.1121,0.1858,0.0731,-0.0311,-0.1167,-0.364,-0.5389,-0.637,-0.6586,-0.6789,-0.7031,-0.7238,-0.7238,-0.7051,-0.7001,-0.6129,-0.4564,-0.2595,-0.1297,-0.0422,0.0,0.0,0.0,0.0,0.0,0.0,0.0,0.0,0.0,0.0,0.0,0.0,0.0,0.0,0.0,0.0,0.0,0.0,0.0,0.0,0.0,0.0,0.0,0.0,0.0,0.0,0.0,0.0,0.0,0.0,0.0,0.0,0.0,0.0,0.0,0.0,0.0,0.0,0.0,1.259,1.5275,0.0,0.0,0.0,0.0,1.648,1.7375,1.7712,1.7274,1.8016,1.8235,1.7825,1.8212,1.8667,1.9138,1.9209,1.9422,1.9741,1.9828,2.0055,2.048,2.1415,2.1576,2.1225,2.2062,2.1913,2.0937,1.8414,1.7688,1.8086,1.7303,1.7622,1.8443,1.7941,1.869,1.9893,0.0,0.0,0.0,0.0,0.0,0.0,0.0,0.0,-0.2643,-0.3146,-0.4875,-0.6153,-0.6378,-0.7359,-0.7636,-0.6744,-0.5467,-0.3846,-0.1793,-0.062,0.0184,0.0629,-0.0148,-0.1574,-0.3699,-0.5138,-0.62,-0.6884,-0.7054,-0.7206,-0.7285,-0.7244,-0.7244,-0.7285,-0.7161,-0.6871,-0.6345,-0.396,-0.2359,-0.1243,0.0564,0.1733,0.0,0.0,0.0,0.0,0.0,0.0,0.0,0.0,0.0,0.0,0.0,0.0,0.0,0.0,0.0,0.0,0.0,0.0,0.0,0.0,0.0,0.0,0.0,0.0,0.0,0.0,0.0,0.0,0.0,0.0,0.0,0.0,0.0,0.0,0.0,0.0,0.0,1.4521,1.6139,0.0,1.453,1.5086,1.5769,1.6279,1.7063,1.7868,1.8665,1.9262,1.9645,1.9739,2.0167,2.037,2.032,2.0622,2.0384,1.9641,2.0546,2.0498,1.9676,2.0784,2.1442,2.168,2.1617,2.1636,2.1582,2.0664,1.9915,1.9335,1.9315,1.954,1.9918,2.0293,2.1388,2.2604,0.0,0.0,0.0,0.0,0.0,0.0,0.0,0.0,-0.365,-0.4519,-0.6418,-0.7923,-0.8498,-0.9587,-0.9983,-0.9305,-0.7748,-0.5905,-0.376,-0.2397,-0.1577,-0.1357,-0.2122,-0.3645,-0.5958,-0.6329,-0.6776,-0.7344,-0.7421,-0.7498,-0.7539,-0.7344,-0.7353,-0.7464,-0.7317,-0.7353,-0.7322,-0.5228,-0.3589,-0.2242,-0.038,0.0896,0.1797,0.0,0.0,0.0,0.0,0.0,0.0,0.0,0.0,0.0,0.0,0.0,0.0,0.0,0.0,0.0,0.0,0.0,0.0,0.0,0.0,0.0,0.0,0.0,0.0,0.0,0.0,0.0,0.0,0.0,0.0,0.0,0.0,0.0,0.0,1.4782,1.5654,1.5571,1.7132,1.7562,1.5905,1.6301,1.6917,1.7568,1.8,1.863,1.9581,1.9937,2.0021,1.9857,2.0163,2.0169,1.9866,2.0174,1.9845,1.8942,1.987,1.9739,1.8702,1.9809,2.0516,2.0795,2.0727,2.0762,2.0895,2.1318,2.0874,2.0002,2.0748,2.0857,2.0704,2.1394,2.2414,2.3433,0.0,0.0,0.0,0.0,0.0,0.0,0.0,-0.3603,-0.4323,-0.5699,-0.6997,-0.8609,-1.0776,-1.0837,-1.1089,-1.2014,-0.9636,-0.762,-0.6478,-0.5069,-0.4217,-0.4083,-0.5235,-0.6485,-0.7771,-0.7221,-0.7215,-0.7821,-0.7678,-0.7678,-0.7807,-0.7665,-0.7604,-0.7611,-0.7611,-0.7611,-0.7547,-0.6367,-0.5014,-0.3511,-0.158,-0.0055,0.1236,0.0,0.0,0.0,0.0,0.0,0.0,0.0,0.0,0.0,0.0,0.0,0.0,0.0,0.0,0.0,0.0,0.0,0.0,0.0,0.0,0.0,0.0,0.0,0.0,0.0,0.0,0.0,0.0,0.0,0.0,0.0,0.0,0.0,1.277,1.4836,1.6121,1.5619,1.8226,1.9407,1.7721,1.8626,1.9598,2.0314,2.0133,1.9922,1.9735,1.9725,1.9167,1.7927,1.7927,1.7795,1.7543,1.7582,1.7608,1.7608,1.7608,1.7608,1.7608,1.8548,1.8784,1.8543,1.9471,1.9484,1.8924,2.0175,2.0401,2.0069,2.14,2.1387,2.0684,2.1074,2.1567,2.2172,0.0,0.0,0.0,0.0,0.0,0.0,0.0,-0.3849,-0.4803,-0.5395,-0.7998,-1.0113,-1.0915,-1.2282,-1.2886,-1.2301,-1.0973,-0.9198,-0.6905,-0.6246,-0.5887,-0.5745,-0.6988,-0.7715,-0.7799,-0.7538,-0.7574,-0.7952,-0.7804,-0.7773,-0.7807,-0.7665,-0.7712,-0.7891,-0.7776,-0.7875,-0.8079,-0.7587,-0.6678,-0.5399,-0.3647,-0.1964,-0.0423,0.0,0.0,0.0,0.0,0.0,0.0,0.0,0.0,0.0,0.0,0.0,0.0,0.0,0.0,0.0,0.0,0.0,0.0,0.0,0.0,0.0,0.0,0.0,0.0,0.0,0.0,0.0,0.0,0.0,0.0,0.0,1.0773,1.2047,1.4112,1.5481,1.6484,1.6984,1.7134,1.6957,1.6303,1.5654,1.5317,1.5325,1.5429,1.5562,1.5767,1.5762,1.5603,1.5244,1.613,1.6499,1.6205,1.7145,1.7608,1.7608,1.7608,1.7501,1.7326,1.7785,1.8167,1.8533,1.9028,1.9223,1.9206,1.9858,1.9575,1.8918,2.1047,2.1759,2.1563,2.166,2.205,2.2615,0.0,0.0,0.0,0.0,0.0,0.0,0.0,-0.4065,-0.5153,-0.584,-0.8663,-1.0841,-1.1494,-1.2839,-1.344,-1.2734,-1.1218,-0.9609,-0.8006,-0.8002,-0.8071,-0.8066,-0.8872,-0.908,-0.8571,-0.8133,-0.7991,-0.8202,-0.8079,-0.8031,-0.8085,-0.795,-0.8004,-0.8196,-0.8133,-0.8194,-0.8383,-0.833,-0.7872,-0.7123,-0.6168,-0.446,-0.2409,-0.1383,-0.0019,0.1499,0.2693,0.386,0.4826,0.4816,0.0,0.0,0.0,0.0,0.0,0.0,0.0,0.0,0.0,0.0,0.0,0.0,0.0,0.0,0.0,0.0,0.0,0.0,0.0,0.0,0.0,0.0,0.0,0.0,1.0865,1.2235,1.418,1.4796,1.5274,1.5886,1.5563,1.5235,1.5047,1.4352,1.39,1.3851,1.3871,1.4039,1.4357,1.4367,1.4327,1.4197,1.4909,1.549,1.5864,1.6488,1.7116,1.7769,1.7649,1.7528,1.7367,1.7528,1.7743,1.7956,1.8167,1.8226,1.8278,1.901,1.8855,1.8344,0.0,0.0,0.0,0.0,2.169,2.1856,0.0,0.0,0.0,0.0,0.0,0.0,0.0,-0.418,-0.5329,-0.6524,-0.8916,-1.0908,-1.1944,-1.2652,-1.3093,-1.316,-1.0969,-0.9565,-0.9472,-0.9857,-1.0125,-1.0224,-1.0407,-1.0171,-0.9483,-0.8729,-0.8383,-0.8505,-0.8383,-0.8383,-0.8505,-0.8376,-0.8403,-0.8533,-0.8533,-0.858,-0.8621,-0.873,-0.871,-0.8614,-0.8614,-0.7052,-0.4493,-0.2452,-0.1503,-0.0956,0.1086,0.2236,0.278,0.2861,0.0,0.0,0.0,0.0,0.0,0.0,0.0,0.0,0.0,0.0,0.0,0.0,0.0,0.0,0.0,0.0,0.0,0.0,0.0,0.0,0.0,0.0,0.0,0.0,1.1309,1.2217,1.3136,1.3069,1.3134,1.3716,1.3934,1.3966,1.3878,1.3791,1.379,1.4054,1.3849,1.382,1.4054,1.4063,0.0,0.0,0.0,1.446,1.5581,1.5664,1.6384,1.7713,1.7636,1.7608,1.7608,1.7608,1.7461,1.7246,1.7246,1.706,1.6854,1.7871,1.813,1.7945,1.9076,1.9679,2.0011,2.0686,2.0713,2.0388,0.0,0.0,0.0,0.0,0.0,0.0,0.0,-0.4002,-0.5146,-0.5825,-0.8213,-1.0048,-1.0472,-1.149,-1.2355,-1.2837,-1.1978,-1.1131,-1.0545,-1.02,-0.9775,-0.9209,-0.9584,-0.9459,-0.8721,-0.8555,-0.8478,-0.8505,-0.8478,-0.8485,-0.8505,-0.8478,-0.8587,-0.8825,-0.8825,-0.8981,-0.924,-0.9267,-0.926,-0.9233,-0.9233,-0.7971,-0.6057,-0.5504,-0.3909,-0.1864,-0.0829,0.0609,0.208,0.2577,0.2918,0.3328,0.4444,0.0,0.0,0.0,0.0,0.0,0.0,0.0,0.0,0.0,0.0,0.0,0.0,0.0,0.0,0.0,0.0,0.0,0.0,0.0,0.0,0.9072,0.9567,1.0069,1.0509,1.0509,1.147,1.4114,1.3442,1.2691,1.2585,1.1417,1.0688,1.0717,1.0688,1.0688,1.0717,1.0717,1.0702,1.0643,1.1689,1.2311,1.2395,1.46,1.5771,1.5934,1.7067,0.0,1.7608,1.7608,1.7582,1.7528,1.7528,1.7354,1.7099,1.7045,1.6723,1.6469,1.8657,1.9533,1.9569,1.9348,1.9228,1.9087,0.0,0.0,0.0,0.0,0.0,0.0,0.0,-0.3957,-0.5096,-0.5631,-0.7772,-0.9419,-0.9846,-1.0437,-1.0851,-1.0998,-1.0878,-1.0612,-1.0179,-1.0647,-1.057,-0.9689,-1.0041,-0.983,-0.8982,-0.8961,-0.8961,-0.8961,-0.8961,-0.892,-0.8845,-0.8845,-0.8927,-0.9049,-0.9049,-0.9171,-0.9417,-0.9462,-0.9449,-0.9417,-0.9462,-0.8876,-0.7853,-0.6948,-0.5283,-0.3293,-0.2092,-0.0549,0.0945,0.125,0.1637,0.2102,0.2706,0.3242,0.3757,0.0,0.0,0.0,0.0,0.0,0.0,0.0,0.0,0.0,0.0,0.0,0.0,0.0,0.0,0.8174,0.0,0.0,0.9017,0.9228,0.9456,0.968,0.9873,0.9907,1.0478,1.2015,1.1544,1.1081,1.0997,1.027,0.9792,0.9792,0.9792,0.9792,0.9792,0.9792,0.9792,0.9792,1.039,1.1053,1.1736,1.2918,1.4225,1.5665,1.6242,1.6896,1.7608,1.7608,1.7608,1.7608,1.7608,1.7528,1.7367,1.7073,1.6779,1.6621,1.7669,1.826,1.8541,1.8914,1.8899,1.8659,0.0,0.0,0.0,0.0,0.0,0.0,0.0,-0.4002,-0.5104,-0.566,-0.7422,-0.8804,-0.9299,-0.9406,-0.9406,-0.9311,-0.9806,-0.998,-0.9613,-1.0962,-1.1271,-1.0163,-1.0437,-1.0242,-0.9403,-0.941,-0.941,-0.941,-0.941,-0.9349,-0.9226,-0.9226,-0.924,-0.9274,-0.9274,-0.9356,-0.9476,-0.9598,-0.9578,-0.9476,-0.9598,-0.9393,-0.8874,-0.7471,-0.6014,-0.4529,-0.314,-0.1509,0.0,0.0,0.0476,0.1049,0.1042,0.204,0.3221,0.3142,0.3725,0.0,0.0,0.0,0.0,0.0,0.0,0.0,0.0,0.0,0.734,0.7097,0.7419,0.7712,0.7636,0.8279,0.89,0.9211,0.9599,0.9866,0.9961,0.9974,0.9927,0.9805,0.9819,0.9825,0.9792,0.9792,0.9792,0.9792,0.9792,0.9792,0.9792,0.9792,0.9792,0.9792,0.9686,1.0206,1.1477,1.137,1.2682,1.5401,1.5409,1.6168,1.7608,1.7608,1.7608,1.7582,1.7305,1.6988,1.6698,1.6534,1.6368,1.6292,1.6406,1.6675,1.717,1.8333,1.8518,1.8121,0.0,0.0,0.0,0.0,0.0,0.0,0.0,0.0,-0.5136,-0.5791,-0.7117,-0.8032,-0.8099,-0.8363,-0.8844,-0.958,-1.0881,-1.1174,-1.0016,-1.0839,-1.0674,-0.9126,-0.9376,-0.9514,-0.941,-0.941,-0.941,-0.941,-0.941,-0.9403,-0.9383,-0.9383,-0.9429,-0.9557,-0.9557,-0.9639,-0.9744,-0.9758,-0.9758,-0.9744,-0.9758,-0.8927,-0.7573,-0.7224,-0.6091,-0.4666,-0.4357,-0.2423,0.0,0.0,0.0067,0.0297,0.124,0.1395,0.1574,0.3363,0.0,0.3641,0.5325,0.6251,0.7042,0.8257,0.7513,0.706,0.0,0.0,0.5414,0.6027,0.5196,0.4392,0.4493,0.6054,0.7357,0.7393,0.8848,0.9954,0.9832,0.9819,0.9812,0.9792,0.9907,0.994,0.9805,0.9792,0.9792,0.9792,0.9792,0.9792,0.9792,0.9792,0.9792,0.9792,0.9686,0.9632,0.9692,1.0746,1.2063,1.3603,1.4808,1.6168,1.7608,1.7608,1.7608,1.7529,1.6195,1.4824,1.3534,1.3675,1.3425,1.3116,1.4876,1.5453,1.5422,1.6587,1.6813,1.6539,0.0,0.0,0.0,0.0,0.0,0.0,0.0,0.0,0.0,-0.5568,-0.6524,-0.7204,-0.7366,-0.7215,-0.7321,-0.786,-0.9564,-1.0396,-0.9867,-1.0904,-1.1198,-1.0442,-0.983,-0.9551,-0.9632,-0.9639,-0.9639,-0.9639,-0.9639,-0.9598,-0.9517,-0.9517,-0.9551,-0.9612,-0.9612,-0.9686,-0.9792,-0.9792,-0.9792,-0.9731,-0.8775,-0.7994,-0.727,-0.6134,-0.4766,-0.3409,-0.3213,-0.1787,0.0,0.0,0.0,0.0084,0.0531,0.0955,0.1542,0.277,0.3561,0.0,0.5882,0.653,0.0,0.0,0.6294,0.6048,0.609,0.521,0.4496,0.4866,0.462,0.4377,0.4486,0.6175,0.7505,0.0,0.902,1.0161,1.0093,0.9863,0.9666,0.9578,0.9625,0.97,0.9778,0.9792,0.9792,0.9792,0.9792,0.9792,0.9792,0.9792,0.9792,0.9792,0.9598,0.949,0.9517,0.9896,1.0807,1.2255,1.2841,1.3888,1.5335,1.5335,1.5335,1.5308,1.4674,1.3992,1.3302,1.3384,1.3221,1.3012,1.3864,1.4115,1.4246,1.6253,1.6805,1.65,0.0,0.0,0.0,0.0,0.0,0.0,0.0,0.0,0.0,0.0,-0.5898,-0.6392,-0.6525,-0.6339,-0.6241,-0.6339,-0.7997,-0.9157,-0.9438,-1.042,-1.1081,-1.1259,-1.0157,-0.9632,-0.9785,-0.9792,-0.9792,-0.9792,-0.9792,-0.9737,-0.9666,-0.9666,-0.9666,-0.9666,-0.9666,-0.9727,-0.9792,-0.9792,-0.9542,-0.9049,-0.7878,-0.684,-0.5919,-0.4581,-0.303,-0.1599,-0.1854,-0.101,0.0,0.0,0.0512,0.0547,0.0558,0.1083,0.1887,0.2796,0.4095,0.5334,0.5745,0.0,0.0,0.4706,0.4794,0.491,0.3792,0.3493,0.3517,0.3688,0.3916,0.4111,0.423,0.6166,0.7762,0.7762,0.9148,1.0215,1.0215,0.9829,0.9523,0.9456,0.9334,0.9374,0.9673,0.971,0.9751,0.9785,0.9792,0.9792,0.9792,0.9792,0.9792,0.9792,0.9578,0.9496,0.9605,0.9376,1.0003,1.1507,1.1507,1.2271,1.3695,1.3695,1.3497,1.3184,1.3127,1.2852,1.2429,1.2348,1.2266,1.221,1.2563,1.2697,1.3028,1.5723,1.6497,1.6251,0.0,0.0,0.0,0.0,0.0,0.0,0.0,0.0,0.0,0.0,0.0,0.0,0.0,-0.5857,-0.6077,-0.5748,-0.6733,-0.7783,-0.8768,-0.9061,-0.9645,-1.0686,-0.9881,-0.9523,-0.9785,-0.9792,-0.9792,-0.9792,-0.9792,-0.9792,-0.9785,-0.9785,-0.9785,-0.9785,-0.9785,-0.9785,-0.9792,-0.9792,-0.8897,-0.7474,-0.743,-0.5483,-0.2644,-0.2587,-0.1167,0.061,-0.0805,0.0,0.0,0.1552,0.1824,0.1938,0.1937,0.1965,0.0,0.3952,0.5494,0.6285,0.4693,0.0,0.4658,0.3451,0.3411,0.3764,0.4095,0.3067,0.216,0.2474,0.2552,0.2581,0.2583,0.5344,0.7608,0.7608,0.8947,1.0028,1.0028,0.9673,0.9442,0.9585,0.919,0.9041,0.0,0.953,0.9673,0.9778,0.9792,0.9792,0.9792,0.9792,0.9792,0.9792,0.968,0.9605,0.9612,0.9456,1.0084,1.1507,1.1507,1.2271,1.3695,1.3695,1.304,1.1833,1.1648,1.087,0.9689,0.9445,0.932,0.9441,1.0682,1.1164,1.151,1.4384,1.5273,1.5257,0.0,0.0,0.0,0.0,0.0,0.0,0.0,0.0,0.0,0.0,0.0,0.0,0.0,0.0,0.0,0.0,-0.5898,-0.6894,-0.763,-0.8414,-0.9164,-0.9878,-0.9293,-0.9028,-0.9203,-0.9327,-0.9476,-0.968,-0.968,-0.9697,-0.9792,-0.9792,-0.9792,-0.9792,-0.9792,-0.9207,-0.8221,-0.8221,-0.726,-0.5652,-0.4577,-0.3493,-0.2312,-0.0614,0.038,0.0961,0.0,0.0,0.1526,0.1734,0.1824,0.1867,0.186,0.1924,0.2188,0.3159,0.4291,0.504,0.4066,0.0,0.3747,0.2532,0.2394,0.2354,0.1582,0.1903,0.2303,0.2182,0.2955,0.3562,0.3408,0.5357,0.7035,0.7109,0.8659,0.99,0.997,0.9717,0.9442,0.9163,0.9117,0.0,0.0,0.0,0.0,0.9659,0.968,0.969,0.9785,0.9792,0.9792,0.9792,0.9686,0.9652,0.9717,0.9605,0.9815,1.0375,1.0375,1.0644,1.1112,1.1112,1.0882,1.0456,1.0397,1.0086,0.9591,0.9417,0.9274,0.9222,0.9515,0.9644,0.9891,1.1837,1.2486,1.2865,0.0,0.0,0.0,0.0,0.0,0.0,0.0,0.0,0.0,0.0,0.0,0.0,0.0,0.0,0.0,0.0,0.0,-0.5979,-0.6726,-0.7337,-0.8057,-0.8929,-0.8235,-0.7977,-0.8238,-0.8336,-0.8533,-0.8893,-0.8893,-0.9022,-0.9266,-0.9266,-0.9063,-0.8698,-0.8698,-0.7881,-0.6507,-0.6507,-0.5552,-0.3962,-0.2927,-0.2145,-0.1395,0.045,0.118,0.0,0.0,0.0,0.2448,0.2446,0.2505,0.2601,0.2635,0.3017,0.3409,0.3327,0.3975,0.4454,0.321,0.2873,0.26,0.1456,0.1222,0.106,0.0185,0.1191,0.2227,0.1915,0.3452,0.4785,0.4543,0.5955,0.7293,0.7648,0.8663,0.9521,0.9886,0.9666,0.9381,0.9169,0.9117,0.9042,0.0,0.0,0.0,0.9585,0.9659,0.9727,0.9785,0.9792,0.9792,0.9792,0.9704,0.9697,0.9792,0.9704,0.9704,0.9792,0.9792,0.9792,0.9792,0.9792,0.9792,0.9792,0.9792,0.9737,0.9673,0.9523,0.9403,0.9247,0.9069,0.8953,0.9071,1.0562,1.1428,1.2325,0.0,0.0,0.0,0.0,0.0,0.0,0.0,0.0,0.0,0.0,0.0,0.0,0.0,0.0,0.0,0.0,0.0,0.0,-0.5998,-0.5859,-0.6359,-0.7759,-0.6824,-0.6512,-0.7018,-0.6924,-0.708,-0.7543,-0.7543,-0.7767,-0.8213,-0.8213,-0.7667,-0.6662,-0.6662,-0.5953,-0.4769,-0.4769,-0.385,-0.2374,-0.2338,-0.137,0.0119,0.077,0.0,0.0,0.0,0.0,0.3637,0.3631,0.3826,0.4079,0.4141,0.4985,0.5645,0.4257,0.4355,0.4424,0.2143,0.152,0.1285,0.0245,0.0,0.0031,0.0093,0.1139,0.2028,0.1818,0.4068,0.6007,0.0,0.0,0.8236,0.9009,0.8906,0.9008,0.9704,0.9505,0.9342,0.0,0.0,0.0,0.0,0.0,0.0,0.9612,0.9717,0.9792,0.9798,0.9805,0.9798,0.9792,0.9792,0.9792,0.9792,0.9792,0.9792,0.9792,0.9792,0.9792,0.9792,0.9792,0.9792,0.9792,0.9792,0.9792,0.9778,0.9666,0.9523,0.9403,0.9254,0.9076,0.9085,1.0578,1.1982,1.3399,0.0,0.0,0.0,0.0,0.0,0.0,0.0,0.0,0.0,0.0,0.0,0.0,0.0,0.0,0.0,0.0,0.0,0.0,-0.4229,-0.4618,-0.4991,-0.5374,-0.5646,-0.5881,-0.612,-0.6201,-0.6404,-0.6777,-0.6777,-0.6899,-0.7102,-0.7102,-0.6719,-0.6035,-0.6035,-0.4941,-0.3109,-0.3109,-0.2144,-0.0594,0.0,0.0285,0.0807,0.0,0.0,0.0,0.0,0.0,0.0,0.0,0.0,0.0,0.0,0.4275,0.4486,0.2447,0.2147,0.2181,0.0782,0.0395,0.0345,0.0063,0.0,0.0249,0.1125,0.2392,0.351,0.4085,0.5599,0.6721,0.0,0.0,0.0,0.825,0.892,0.0,0.99,0.9992,0.0,0.9788,0.0,0.9677,0.9564,0.9612,0.0,0.9893,0.9832,0.9839,0.9954,0.9961,0.9907,0.9792,0.9792,0.9792,0.9792,0.9792,0.9792,0.9792,0.9792,0.9792,0.9792,0.9792,0.9792,0.9792,0.9792,0.9792,0.9778,0.9666,0.9585,0.9537,0.941,0.926,0.9293,1.0727,1.1412,1.2028,0.0,0.0,0.0,0.0,0.0,0.0,0.0,0.0,0.0,0.0,0.0,0.0,0.0,0.0,0.0,0.0,0.0,0.0,0.0,-0.4139,-0.4376,-0.4203,-0.4532,-0.4817,-0.4997,-0.5085,-0.516,-0.522,-0.5283,-0.529,-0.524,-0.5222,-0.4801,-0.4047,-0.4047,-0.3057,-0.138,-0.113,0.0,0.0,0.0,0.0,0.0,0.0,0.0,0.0,0.0,0.0,0.0,0.0,0.0,0.4634,0.4274,0.4048,0.3549,0.1828,0.0,0.1432,0.0307,0.0,0.0164,0.0928,0.0977,0.1163,0.2319,0.3521,0.4392,0.4505,0.5643,0.0,0.6234,0.6803,0.0,0.0,0.0,0.0,0.9852,1.0049,1.0141,0.0,1.01,0.0,0.9917,0.9978,1.0086,1.0197,1.0015,0.9954,1.0109,1.0116,1.0114,1.0025,1.0025,0.9992,0.9893,0.9825,0.9792,0.9792,0.9792,0.9792,0.9792,0.9792,0.9792,0.9792,0.9792,0.9792,0.9785,0.9704,0.9666,0.9598,0.9517,0.9845,1.0436,1.1224,1.2301,1.3603,0.0,0.0,0.0,0.0,0.0,0.0,0.0,0.0,0.0,0.0,0.0,0.0,0.0,0.0,0.0,0.0,0.0,0.0,0.0,0.0,0.0,-0.3554,-0.3496,-0.3548,-0.3703,-0.371,-0.3603,-0.3366,-0.3485,-0.3421,-0.3186,-0.3125,0.0,0.0,0.0,0.0,0.0,0.0,0.0,0.0,0.0,0.0,0.0,0.0,0.0,0.0,0.0,0.0,0.0,0.0,0.516,0.413,0.4616,0.3942,0.2746,0.1709,0.165,0.172,0.0642,0.0562,0.107,0.2456,0.2571,0.26,0.3573,0.4424,0.4804,0.4147,0.0,0.5849,0.5739,0.6234,0.6912,0.7658,0.0,0.898,0.9774,1.0001,1.0163,1.0351,1.0385,1.0431,1.0431,1.041,1.0419,1.0541,1.0265,1.0157,1.0335,1.0342,1.0329,1.0315,1.0274,1.0168,0.999,0.9866,0.9792,0.9792,0.9792,0.9792,0.9792,0.9792,0.9792,0.9792,0.9792,0.9792,0.9792,0.9792,0.9868,0.993,0.993,1.0854,1.2161,1.2362,1.4065,1.6326,0.0,0.0,0.0,0.0,0.0,0.0,0.0,0.0,0.0,0.0,-0.0729,-0.1058,0.0,0.0,0.0,0.0,0.0,0.0,0.0,0.0,0.0,0.0,-0.2604,-0.2647,-0.2189,-0.2177,-0.2155,-0.2106,-0.2133,-0.2121,-0.2076,-0.2064,0.0,0.0,0.0,0.0,0.0,0.0,0.0,0.0,0.0,0.0,0.0,0.0,0.0,0.0,0.0,0.0,0.0,0.0,0.5917,0.515,0.4385,0.3253,0.1948,0.0653,0.1437,0.2634,0.2321,0.3402,0.461,0.4505,0.4284,0.419,0.4722,0.4596,0.0,0.0,0.5192,0.5245,0.5218,0.5942,0.6777,0.7516,0.8324,0.9176,1.008,1.0432,1.063,0.0,0.0,0.0,0.0,1.09,0.0,0.0,1.0671,1.0561,1.046,1.0453,1.0399,1.0315,1.0032,0.992,0.9984,0.9866,0.9792,0.9792,0.9792,0.9792,0.9792,0.9792,0.9792,0.9792,0.9792,0.9792,0.9792,0.9792,1.0582,1.1755,1.1755,1.264,1.4089,1.5272,1.5949,1.6466,0.0,0.0,0.0,0.0,0.0,0.0,0.0,0.0,0.0,0.0,-0.0254,-0.0526,-0.078,-0.1066,0.0,0.0,0.0,0.0,0.0,0.0,0.0,0.0,0.0,0.0,-0.1806,-0.187,-0.1711,-0.133,0.0,-0.1084,-0.0391,-0.0391,0.0078,0.0936,0.0936,0.1436,0.2291,0.2567,0.0,0.3632,0.4207,0.4965,0.0,0.0,0.0,0.0,0.0,0.0,0.0,0.0,0.5852,0.511,0.4477,0.3918,0.3217,0.1815,0.2665,0.4051,0.4109,0.4714,0.5482,0.6069,0.5749,0.5416,0.593,0.0,0.0,0.0,0.4913,0.4889,0.4889,0.5637,0.0,0.7034,0.7753,0.8608,0.9774,0.0,0.0,0.0,0.0,0.0,0.0,1.1097,1.1056,1.1056,1.0887,1.0738,1.0616,1.0609,1.0541,1.0392,1.0175,1.0028,0.9984,0.9866,0.9792,0.9792,0.9792,0.9792,0.9792,0.9792,0.9792,0.9792,0.9792,0.9792,0.9883,1.0687,1.1495,1.2277,1.3108,1.438,1.5843,1.6512,1.7263,1.7995,0.0,0.0,0.0,0.0,0.0,0.0,0.0,0.0,0.0,0.0,0.0,-0.0126,-0.047,-0.0749,-0.1091,0.0,0.0,0.0,0.0,0.0,0.0,0.0,0.0,0.0,0.0,0.0,0.0,-0.0706,-0.0682,0.0,0.0,0.0,0.0,0.0,0.2117,0.2501,0.3102,0.365,0.4229,0.0,0.0,0.6271,0.0,0.0,0.0,0.0,0.0,0.0,0.0,0.0,0.5626,0.4881,0.4534,0.4569,0.4514,0.3322,0.4283,0.5741,0.5892,0.6115,0.656,0.7645,0.7201,0.6566,0.6811,0.6274,0.0,0.0,0.4685,0.4718,0.494,0.0,0.6018,0.0,0.717,0.7984,0.9367,0.0,0.0,0.0,0.0,0.0,1.1288,1.1295,0.0,1.1247,1.1016,1.0846,1.0698,1.0663,1.0582,1.0493,1.029,1.0141,0.9984,0.9866,0.9792,0.9792,0.9792,0.9792,0.9792,0.9792,0.9792,0.9792,0.9792,0.9792,0.9913,1.1525,1.2397,1.2868,1.448,1.5902,1.6991,1.6991,1.7572,1.8386,0.0,0.0,0.0,0.0,0.0,0.0,0.0,0.0,0.0,0.0,0.0,0.0195,0.0677,-0.0238,-0.0926,0.0,0.0,0.0,0.0,0.0,0.0,0.0,0.0,0.0,0.0,0.0,0.0,-0.0079,0.045,0.0,0.0,0.0,0.0,0.0,0.0,0.3679,0.4288,0.4876,0.0,0.0,0.0,0.0,0.0,0.0,0.0,0.0,0.0,0.0,0.0,0.0,0.0,0.4986,0.4417,0.4238,0.4202,0.3949,0.0,0.0,0.7613,0.8854,1.0084,0.9676,0.8816,0.7857,0.6923,0.0,0.0,0.5412,0.4932,0.4791,0.5716,0.5505,0.5548,0.0,0.7039,0.7675,0.9191,0.0,0.0,0.0,0.0,0.0,1.1572,1.1579,1.1518,1.1382,1.1076,1.0846,1.0698,1.0466,1.0403,1.0487,1.008,0.9893,0.9984,0.9866,0.9792,0.9792,0.9792,0.9792,0.9792,0.9792,0.9792,0.9792,0.9792,0.9792,0.9913,1.1525,1.3048,1.454,1.6138,1.6874,1.6991,1.6991,1.6168,1.5044,0.0,0.0,0.0,0.0,0.0,0.0,0.0,0.0,0.0,0.0,0.0562,0.1056,0.1291,0.1217,0.089,0.0,0.0,0.0,0.0,0.0,0.0,0.0,0.0,0.0,0.0,0.0,0.1084,0.1084,0.133,0.0,0.0,0.0,0.0,0.0,0.0,0.4785,0.556,0.5878,0.0,0.0,0.0,0.0,0.0,0.0,0.0,0.0,0.0,0.0,0.0,0.0,0.0,0.0,0.4883,0.5123,0.0,0.0,0.6918,0.8897,0.9091,0.9787,1.031,0.9707,0.8771,0.774,0.6804,0.0,0.5755,0.5339,0.5174,0.5197,0.5523,0.5188,0.5169,0.6079,0.6146,0.6593,0.8099,0.0,0.0,0.0,1.0617,0.0,0.0,0.0,1.1558,1.1402,1.128,1.1076,1.0833,1.0623,1.0487,1.0371,1.0188,1.0039,0.9879,0.9819,0.9792,0.9792,0.9792,0.9792,0.9792,0.9792,0.9792,0.9792,0.9792,1.0361,1.1382,1.2988,1.4599,1.6109,1.6756,1.6991,1.6874,1.5902,1.5163,1.4599,0.0,0.0,0.0,0.0,0.0,0.0,0.0,0.0,0.0,0.0,0.0814,0.1517,0.1833,0.2119,0.2102,0.1654,0.0,0.0,0.0,0.0,0.0,0.0,0.0,0.0,0.0,0.0,0.0,0.1863,0.2033,0.2429,0.0,0.0,0.415,0.4691,0.0,0.0,0.0,0.0,0.0,0.0,0.0,0.0,0.0,0.0,0.0,0.0,0.0,0.0,0.0,0.0,0.0,0.0,0.0,0.0,0.0,0.0,0.7592,0.9259,0.9595,0.9866,0.9951,0.9388,0.8425,0.7446,0.0,0.0,0.5979,0.5618,0.5694,0.5755,0.5498,0.5225,0.519,0.5713,0.5647,0.6001,0.74,0.7584,0.0,0.0,0.0,1.0432,1.13,1.1543,1.1584,1.147,1.1375,1.1233,1.0988,1.0785,1.0541,1.0322,1.0236,1.0086,0.9792,0.9792,0.9792,0.9792,0.9792,0.9792,0.9792,0.9792,1.0058,1.0513,1.0513,1.1404,1.3018,1.4658,1.5991,1.6991,1.6991,1.6697,1.6109,1.448,1.3586,1.3168,0.0,0.0,0.0,0.0,0.0,0.0,0.0,0.0,0.0,0.0,0.0531,0.1311,0.2368,0.2088,0.2204,0.3185,0.0,0.0,0.0,0.0,0.0,0.0,0.0,0.0,0.0,0.0,0.0,0.0,0.0,0.0,0.3806,0.4408,0.49,0.533,0.0,0.0,0.0,0.0,0.0,0.0,0.0,0.0,0.0,0.0,0.0,0.0,0.0,0.0,0.0,0.0,0.0,0.0,0.0,0.5734,0.6068,0.0,0.755,0.8723,0.8879,0.9244,0.9481,0.9027,0.7988,0.7138,0.0,0.6522,0.5954,0.6479,0.6588,0.6426,0.5891,0.5782,0.579,0.58,0.58,0.622,0.7428,0.7824,0.0,0.0,0.0,0.994,1.0833,1.1448,1.1732,1.159,1.1335,1.12,1.1193,1.0771,1.0426,1.0283,1.0103,0.9947,0.9792,0.9792,0.9792,0.9792,0.9792,0.9792,0.9792,0.9792,1.0657,1.2187,1.2187,1.3078,1.4688,1.6315,1.6991,1.6991,1.6991,1.602,1.4421,1.2808,1.1231,0.9852,0.0,0.0,0.0,0.0,0.0,0.0,0.0,0.1167,0.1229,0.1232,0.2038,0.2738,0.3076,0.3313,0.3569,0.3885,0.0,0.0,0.0,0.0,0.0,0.0,0.0,0.0,0.0,0.0,0.0,0.0,0.0,0.0,0.0,0.0,0.6004,0.6754,0.7113,0.7547,0.0,0.0,0.0,0.0,0.0,0.0,0.0,0.0,0.0,0.0,0.0,0.0,0.0,0.0,0.0,0.0,0.0,0.0,0.0,0.6104,0.6903,0.7701,0.7458,0.774,0.7947,0.7294,0.6864,0.6558,0.6322,0.6484,0.6647,0.649,0.6608,0.673,0.6694,0.5939,0.5615,0.6539,0.6194,0.6146,0.0,0.0,0.0,0.924,1.0297,1.1097,0.0,1.1543,1.1626,1.1477,1.1375,1.1233,1.1029,1.0846,1.0643,1.0322,1.0096,0.9947,0.9792,0.9792,0.9792,0.9792,0.9792,0.9792,0.9792,0.9792,1.0687,1.2217,1.2217,1.3735,1.6197,1.5607,1.602,1.6786,1.4589,1.3407,1.2749,1.114,1.024,0.9792,0.0,0.0,0.0,0.0,0.0,0.0,0.0,0.1562,0.1642,0.1716,0.2505,0.3136,0.3338,0.3729,0.4038,0.418,0.0,0.0,0.0,0.0,0.0,0.0,0.0,0.0,0.0,0.0,0.0,0.0,0.0,0.0,0.0,0.0,0.0,0.0,0.8093,0.0,0.0,0.0,0.0,0.0,0.0,0.0,0.9361,0.0,0.0,0.0,0.0,0.0,0.0,0.0,0.0,0.0,0.0,0.0,0.0,0.0,0.6567,0.7009,0.0,0.7273,0.7497,0.69,0.6677,0.0,0.0,0.6734,0.6934,0.6776,0.699,0.7122,0.6817,0.608,0.575,0.6488,0.6119,0.6017,0.0,0.0,0.0,0.9266,0.0,0.0,1.1287,1.1484,1.1558,1.1402,1.1287,1.111,1.0928,1.0806,1.0622,1.0322,1.0188,1.0001,0.9792,0.9792,0.9792,0.9792,0.9792,0.9792,0.9792,0.9792,1.102,1.3108,1.3108,1.4599,0.0,1.5972,1.5782,1.5854,1.328,1.2246,1.2006,1.0391,0.9792,0.9792,0.0,0.0,0.0,0.0,0.0,0.0,0.0,0.0,0.158,0.1775,0.2322,0.2882,0.3382,0.3574,0.3802,0.4191,0.0,0.0,0.0,0.0,0.0,0.0,0.0,0.0,0.0,0.0,0.0,0.0,0.572,0.6572,0.75,0.0,0.0,0.0,0.0,0.0,0.0,0.0,0.0,0.0,0.0,0.0,0.0,0.0,0.0,0.0,0.0,0.0,0.0,0.0,0.0,0.0,0.0,0.0,0.0,0.0,0.0,0.0,0.0,0.7557,0.0,0.0,0.0,0.0,0.733,0.7107,0.0,0.7236,0.7584,0.7556,0.6616,0.6306,0.6177,0.616,0.5887,0.0,0.0,0.7494,0.0,0.0,1.0346,1.0894,1.0732,1.1232,1.1538,1.1389,1.1076,1.0907,1.0901,1.0649,1.0426,1.0283,1.0301,1.012,0.9792,0.9792,0.9792,0.9792,0.9792,0.9792,0.9792,0.9792,1.1495,1.4421,1.4421,1.5341,1.6838,1.6832,1.5902,1.4292,1.2808,1.2134,1.1872,1.0338,0.9798,0.9805,0.0,0.0,0.0,0.0,0.0,0.0,0.0,0.0,0.0,0.0,0.4267,0.4686,0.4816,0.4462,0.4246,0.0,0.0,0.0,0.0,0.0,0.0,0.0,0.0,0.0,0.0,0.0,0.0,0.5748,0.6594,0.7788,0.931,1.0234,0.0,0.0,0.0,0.0,0.0,0.0,0.0,0.0,0.0,0.0,0.0,0.0,0.0,0.0,0.8775,0.839,0.0,0.0,0.0,0.0,0.0,0.0,0.0,0.0,0.6883,0.6925,0.7038,0.0,0.6236,0.5907,0.6097,0.639,0.0,0.6741,0.7045,0.7387,0.0,0.7554,0.8674,0.7329,0.6835,0.9239,0.774,0.6808,0.8326,0.8986,0.0,1.0324,1.0995,1.1355,1.1118,1.1294,1.1382,1.1261,1.1016,1.0867,1.0745,1.0595,1.0426,1.0283,1.0168,0.9981,0.9792,0.9792,0.9792,0.9792,0.9792,0.9792,0.9792,0.9792,1.0868,1.2749,1.2749,1.3676,1.5084,1.3873,1.3123,1.2607,1.1035,1.0438,1.0464,0.9985,0.9866,0.9947,0.0,0.0,0.0,0.0,0.0,0.0,0.0,0.0,0.0,0.0,0.0,0.0,0.0,0.0,0.0,0.0,0.0,0.0,0.0,0.0,0.0,0.0,0.0,0.0,0.0,0.0,0.0,0.0,0.0,0.9098,0.0,0.0,0.0,0.0,0.0,0.0,0.0,0.0,0.0,0.0,0.9512,0.0,0.0,0.0,0.0,0.0,0.8733,0.8423,0.0,0.7509,0.7357,0.752,0.0,0.0,0.0,0.0,0.7776,0.7776,0.7776,0.7388,0.6915,0.6568,0.6854,0.718,0.7008,0.0,0.0,0.0,0.0,0.7642,0.9031,0.8139,0.7644,0.0,0.8203,0.0,0.0,0.0,0.9967,1.0704,1.1172,1.1369,1.1308,1.1315,1.1226,1.1077,1.0894,1.0745,1.0622,1.0534,1.0392,1.0181,1.0062,0.9947,0.9792,0.9792,0.9792,0.9792,0.9792,0.9792,0.9792,0.9792,1.0687,1.2217,1.2217,1.2689,1.3446,1.2643,1.1809,1.1027,1.0203,0.99,0.9907,0.9819,1.0327,1.0996,0.0,0.0,0.0,0.0,0.0,0.0,0.0,0.0,0.0,0.0,0.0,0.0,0.0,0.0,0.0,0.0,0.0,0.0,0.0,0.0,0.0,0.0,0.0,0.0,0.0,0.0,0.0,0.0,0.0,0.0,0.0,0.0,0.0,0.0,0.0,0.0,0.0,0.0,0.0,0.0,1.027,0.0,0.0,0.0,0.0,0.0,0.0,0.0,0.0,0.7954,0.7717,0.7822,0.8231,0.0,0.0,0.0,0.0,0.0,0.8944,0.8896,0.8637,0.8055,0.8116,0.8242,0.7911,0.0,0.0,0.0,0.0,0.0,0.0,0.8725,0.0,0.0,0.0,0.0,0.9044,0.9447,1.0046,1.0819,1.1118,1.1288,1.1314,1.1261,1.1104,1.0928,1.0772,1.0656,1.05,1.0473,1.0331,0.9997,0.9994,0.992,0.9792,0.9792,0.9792,0.9792,0.9792,0.9792,0.9792,0.9792,1.0536,1.1826,1.1826,1.1826,1.1842,1.1967,1.1119,0.9805,0.9934,0.992,0.9819,0.9798,1.0876,1.2332,0.0,0.0,0.0,0.0,0.0,0.0,0.0,0.0,0.0,0.0,0.0,0.0,0.0,0.0,0.0,0.0,0.0,0.0,0.0,0.0,0.0,0.0,0.0,0.0,0.0,0.0,0.0,0.0,0.0,0.0,1.2149,1.4729,1.512,0.0,0.0,0.0,0.0,0.0,0.0,0.0,1.1054,0.0,0.0,0.0,0.0,0.0,0.0,0.0,0.0,0.878,0.8669,0.884,0.8672,0.0,0.0,0.0,0.0,0.0,1.0018,1.041,1.0092,0.8341,0.794,0.7911,0.0,0.0,0.0,0.0,0.0,0.0,0.0,0.8847,0.8678,0.0,0.0,0.9772,0.981,1.0154,1.0507,1.0867,1.1266,1.1374,1.1016,1.1104,1.1104,1.0928,1.0772,1.0656,1.05,1.0378,1.0229,1.0021,0.9893,0.9812,0.9792,0.9792,0.9792,0.9792,0.9792,0.9792,0.9792,0.9792,0.9943,1.0179,1.0179,1.0179,1.0179,1.0177,1.0048,0.9792,0.9819,0.9893,0.9967,0.9839,1.108,1.3002,0.0,0.0,0.0,0.0,0.0,0.0,0.0,0.0,0.0,0.0,0.0,0.0,0.0,0.0,0.0,0.0,0.0,0.0,0.0,0.0,0.0,0.0,0.0,0.0,0.0,0.0,0.0,0.0,0.0,1.3134,1.4362,1.4816,1.4462,1.3379,0.0,0.0,0.0,0.0,0.0,0.0,0.0,0.0,0.0,0.0,0.0,0.0,0.0,0.0,0.0,0.0,0.9005,0.9125,0.9297,0.0,0.0,0.0,0.0,0.0,0.9924,1.0307,1.0332,0.9118,0.931,0.9645,0.0,0.0,0.0,0.0,0.0,0.0,0.0,0.0,0.9498,1.0491,0.0,0.9652,0.9968,1.0236,1.0548,1.1009,1.1144,1.1171,1.1077,1.1056,1.0982,1.0799,1.0683,1.0534,1.0385,1.0236,1.0055,0.99,0.9825,0.9792,0.9792,0.9792,0.9792,0.9792,0.9792,0.9792,0.9792,0.9792,0.9792,0.9792,0.9792,0.9792,0.9792,0.9792,0.9792,0.9792,0.9792,0.9832,1.0108,1.1935,1.3104,1.4211,0.0,0.0,0.0,0.0,0.0,0.0,0.0,0.0,0.0,0.0,0.0,0.0,0.0,0.0,0.0,0.0,0.0,0.0,0.0,0.0,0.0,0.0,0.0,0.0,0.0,0.0,0.0,1.3199,1.3694,1.4734,1.6247,1.4797,1.3768,0.0,0.0,0.0,0.0,0.0,0.0,0.0,0.0,0.0,0.0,0.0,0.0,0.0,0.0,0.0,0.0,0.0,0.0,0.0,0.0,0.0,0.0,1.0243,1.0293,1.0254,1.0007,1.0215,1.0436,1.0057,0.0,0.0,0.0,0.0,0.0,0.0,0.0,0.0,0.0,0.9596,0.0,1.0208,0.9794,0.9551,1.0049,1.0285,1.0616,1.1138,1.1439,1.1466,1.1173,1.1349,1.127,1.0716,1.0561,1.0412,1.0236,1.0082,0.9947,0.9798,0.9792,0.9967,1.0361,0.9997,0.9792,0.9792,0.9792,0.9792,0.9792,0.9792,0.9792,0.9792,0.9792,0.9792,0.9792,0.9792,0.9792,0.9792,0.9792,0.9792,1.0231,1.3807,1.4993,1.5304,0.0,0.0,0.0,0.0,0.0,0.0,0.0,0.0,0.0,0.0,0.0,0.0,0.0,0.0,0.0,0.0,0.0,0.0,0.0,0.0,0.0,0.0,0.0,0.0,0.0,1.231,1.2919,1.4367,1.4732,1.5576,1.6834,1.5582,1.4647,1.3952,0.0,0.0,0.0,0.0,0.0,0.0,0.0,0.0,0.0,0.0,0.0,0.0,0.0,0.0,0.0,0.0,0.0,0.0,0.0,0.0,1.0273,1.0293,1.0293,1.0447,1.1093,1.1068,1.0871,1.0979,1.0179,0.0,1.14,1.0074,0.0,1.0627,0.0,0.0,0.0,0.831,0.8557,0.8961,0.9553,1.0062,1.0412,1.0684,1.0934,1.1172,1.2608,1.2888,1.1111,1.2386,1.2531,1.0658,1.05,1.0365,1.0049,1.0021,0.9947,0.9798,0.9792,1.0513,1.2006,1.0536,0.9792,0.9792,0.9792,0.9792,0.9792,0.9792,0.9792,0.9792,0.9792,0.9792,0.9792,0.9792,0.9792,0.9792,0.9792,0.9792,1.0245,1.4069,1.5443,1.5742,0.0,0.0,0.0,0.0,0.0,0.0,0.0,0.0,0.0,0.0,0.0,0.0,0.0,0.0,0.0,0.0,0.0,0.0,0.0,0.0,0.0,0.0,0.0,0.9962,1.1941,1.247,1.3752,1.5885,1.6727,1.6682,1.5841,1.5496,0.0,0.0,0.0,0.0,0.0,0.0,0.0,0.0,0.0,0.0,0.0,0.0,0.0,0.0,0.0,0.0,0.0,0.0,1.0293,1.0293,1.0293,1.0293,1.0293,1.0293,1.0059,0.9788,0.9744,1.0184,1.0618,1.0522,1.0129,0.0,0.0,1.1423,1.0872,1.2369,1.1023,0.0,0.0,0.0,0.8615,0.9224,0.9717,1.0157,1.0582,1.0779,1.0934,1.0988,1.1509,1.1591,1.0846,1.122,1.1229,1.0558,1.0317,1.0136,1.0021,0.9927,1.0304,1.1261,1.1291,1.1585,1.2187,1.1585,1.0778,0.9792,0.9792,0.9792,0.9792,0.9792,0.9792,0.9792,0.9792,0.9792,0.9792,0.9792,0.9792,0.9792,0.9792,0.9792,1.013,1.288,1.3707,1.3793,0.0,0.0,0.0,0.0,0.0,0.0,0.0,0.0,0.0,0.0,0.0,0.0,0.0,0.0,0.0,0.0,0.0,0.0,0.0,0.0,0.0,0.0,0.0,0.9817,1.1366,1.2261,1.3811,1.6019,1.744,1.7305,1.5722,0.0,0.0,0.0,0.0,0.0,0.0,0.0,0.0,0.0,0.0,0.0,0.0,0.0,0.0,0.0,0.0,0.0,0.0,0.0,1.0293,1.0293,1.0293,1.0293,1.0293,1.0293,0.9987,0.9516,0.8973,0.9514,1.0178,1.0006,0.0,0.0,1.2458,1.1763,1.1177,1.2631,1.0972,0.0,0.8638,0.0,0.0,0.9367,0.9765,1.0123,1.0434,1.061,1.0704,1.0704,1.1129,1.1196,1.0614,1.0906,1.0894,1.0383,1.013,0.9994,0.9947,0.9846,1.0543,1.2157,1.2217,1.2457,1.2958,1.2457,1.1645,1.0536,1.0028,0.9792,0.9792,0.9792,0.9792,0.9792,0.9792,0.9792,0.9792,0.9792,0.9792,0.9792,0.9792,0.9792,1.0032,1.2046,1.2614,1.2591,0.0,0.0,0.0,0.0,0.0,0.0,0.0,0.0,0.0,0.0,0.0,0.0,0.0,0.0,0.0,0.0,0.0,0.0,0.0,0.0,0.0,0.0,0.0,0.9406,1.1138,1.1782,1.2881,1.4509,1.6572,1.7336,1.6793,1.7054,0.0,0.0,0.0,0.0,0.0,0.0,0.0,0.0,0.0,1.1328,0.0,0.0,0.0,0.0,0.0,0.0,0.0,0.0,1.0293,1.0293,1.0293,1.0312,1.0312,1.0303,1.0104,0.9789,0.9244,0.9348,0.9631,0.0,0.0,0.0,1.2586,1.0768,0.9195,1.0918,0.9815,0.856,0.8689,0.8716,0.0,0.9138,0.9659,0.9984,0.9984,1.0181,1.0315,1.0308,1.1807,1.2185,1.0467,1.187,1.2073,1.0153,0.9984,0.9947,0.9798,0.9792,1.0536,1.2157,1.2217,1.2958,1.4569,1.2988,1.2187,1.2157,1.0573,0.9792,0.9792,0.9792,0.9792,0.9792,0.9792,0.9792,0.9792,0.9792,0.9792,0.9792,0.9792,0.9792,1.0018,1.1908,1.258,1.2605,0.0,0.0,0.0,0.0,0.0,0.0,0.0,0.0,0.0,0.0,0.0,0.0,0.0,0.0,0.0,0.0,0.0,0.0,0.0,0.0,0.0,0.0,0.0,0.0,0.0,0.0,1.2595,1.4648,1.6496,1.6778,0.0,0.0,0.0,1.5687,0.0,0.0,0.0,0.0,0.0,0.0,1.3289,1.2355,0.0,0.0,0.0,0.0,0.0,0.0,0.0,0.0,0.0,0.0,1.0293,1.0928,1.1454,1.0557,1.0346,1.024,0.9567,0.9532,0.0,1.0981,0.0,0.0,0.0,1.1754,0.0,0.0,0.9504,0.9029,0.9179,0.9124,0.9111,0.9308,0.9639,0.9893,1.0001,1.0181,1.0243,1.0103,1.0551,1.0669,1.0145,1.0476,1.0533,1.0046,0.992,0.9839,0.9792,0.9792,1.105,1.3795,1.2779,1.2958,1.4569,1.2988,1.1615,1.0513,1.0028,0.9792,0.9792,0.9792,0.9792,0.9792,0.9792,0.9792,0.9792,0.9792,0.9792,0.9792,0.9792,0.9792,0.9866,1.054,1.0711,1.0697,0.0,0.0,0.0,0.0,0.0,0.0,0.0,0.0,0.0,0.0,0.0,0.0,0.0,0.0,0.0,0.0,0.0,0.0,0.0,0.0,0.0,0.0,0.0,0.0,0.0,1.2071,1.3247,0.0,0.0,0.0,0.0,0.0,0.0,1.7011,0.0,1.7689,0.0,0.0,0.0,1.5452,1.3839,1.3054,1.284,0.0,0.0,0.0,0.0,0.0,0.0,0.0,0.0,0.0,1.0293,1.0831,1.1303,1.0565,1.0257,1.0162,1.0078,1.0122,0.0,1.2336,1.2983,1.3192,1.3383,0.0,0.0,0.0,0.9916,0.9322,0.9442,0.9376,0.9322,0.9449,0.9666,0.9819,0.9913,1.0008,1.0066,0.994,0.9927,0.9927,0.9927,0.9846,0.9832,0.992,0.9846,0.9792,0.9792,0.9792,1.0989,1.3556,1.2719,1.2659,1.3646,1.2689,1.1374,0.9792,0.9792,0.9792,0.9792,0.9792,0.9792,0.9792,0.9792,0.9792,0.9792,0.9792,0.9792,0.9792,0.9792,0.9792,0.9798,0.9893,0.9866,0.9839,0.0,0.0,0.0,0.0,0.0,0.0,0.0,0.0,0.0,0.0,0.0,0.0,0.0,0.0,0.0,0.0,0.0,0.0,0.0,0.0,0.0,0.0,0.0,0.0,0.0,0.0,0.0,0.0,0.0,0.0,0.0,0.0,1.8973,1.9918,0.0,2.006,0.0,1.6582,1.5908,1.609,1.3835,1.3354,1.392,1.3356,0.0,0.0,0.0,0.0,0.0,0.0,0.0,0.0,1.0303,1.0361,1.0385,1.0353,1.0007,0.9798,1.0696,1.0994,1.1543,1.3728,1.4091,0.0,1.2515,1.2128,1.2006,1.2003,0.0,0.9469,0.9618,0.9523,0.9469,0.9605,0.9704,0.9792,0.9792,0.9792,0.9792,0.9792,0.9792,0.9785,0.9771,0.9771,0.9771,0.9771,0.9758,0.9758,0.9771,0.9758,1.0499,1.2106,1.2017,1.2017,1.2166,1.2017,1.1214,0.9751,0.9751,0.9758,0.9771,0.9785,0.9792,0.9792,0.9792,0.9792,0.9792,0.9792,0.9792,0.9792,0.9792,0.9792,0.9792,0.9792,0.9792,0.9812,0.0,0.0,0.0,0.0,0.0,0.0,0.0,0.0,0.0,0.0,0.0,0.0,0.0,0.0,0.0,0.0,0.0,0.0,0.0,0.0,0.0,0.0,0.0,0.0,0.0,0.0,0.0,0.0,0.0,0.0,0.0,0.0,0.0,1.8466,0.0,1.8108,1.5686,1.4394,1.3859,1.3814,1.3399,1.287,1.2541,1.3902,1.2918,0.0,0.0,0.0,0.0,0.0,0.0,0.0,1.0419,1.0697,1.1004,1.0231,1.0202,1.056,1.1136,1.1298,0.0,1.4741,1.5668,1.5888,1.5888,1.3956,1.1807,1.0566,1.0009,0.9744,0.9893,0.9798,0.9734,0.9737,0.9771,0.9792,0.9792,0.9792,0.9792,0.9792,0.9792,0.9744,0.9666,0.9652,0.9652,0.9652,0.9544,0.953,0.9646,0.9544,1.023,1.1844,1.066,1.0602,1.1873,1.0631,0.9821,0.9476,0.9476,0.9537,0.9659,0.9737,0.9792,0.9792,0.9792,0.9792,0.9792,0.9792,0.9792,0.9792,0.9792,0.9792,0.9792,0.9792,0.9792,0.9812,0.0,0.0,0.0,0.0,0.0,0.0,0.0,0.0,0.0,0.0,0.0,0.0,0.0,0.0,0.0,0.0,0.0,0.0,0.0,0.0,0.0,0.0,0.0,0.0,0.0,0.0,0.0,0.0,0.0,0.0,0.0,0.0,0.0,1.8906,0.0,1.7676,1.5028,1.4083,1.3653,1.356,1.3236,1.3037,1.3055,1.3944,1.2908,1.1141,1.2135,0.0,0.0,0.0,0.0,0.0,0.0,0.0,1.0389,0.9873,0.9835,1.0195,1.1152,1.1305,0.0,1.4106,0.0,1.4607,1.5612,1.3303,1.0935,1.0868,1.0274,0.9812,0.9893,0.9792,0.969,0.969,0.9659,0.9612,0.9612,0.9673,0.969,0.969,0.969,0.9693,0.9618,0.9544,0.9503,0.9503,0.9429,0.9444,0.9496,0.9422,0.978,1.0611,0.9838,0.9809,1.064,0.9809,0.941,0.941,0.941,0.9422,0.951,0.972,0.9792,0.9792,0.9792,0.9792,0.9792,0.9792,0.9792,0.9792,0.9792,0.9792,0.9792,0.9792,0.9792,0.9812,0.0,0.0,0.0,0.0,0.0,0.0,0.0,0.0,0.0,0.0,0.0,0.0,0.0,0.0,0.0,0.0,0.0,0.0,0.0,0.0,0.0,0.0,0.0,0.0,0.0,0.0,0.0,0.0,0.0,0.0,0.0,0.0,0.0,1.9864,0.0,0.0,1.5435,1.427,1.3769,1.371,1.3054,1.3096,1.3541,0.0,0.0,0.0,1.2252,1.233,1.1922,1.184,0.0,0.0,0.0,0.0,0.9371,0.9415,0.9251,0.9366,1.0787,1.1254,1.1673,1.3064,1.2664,0.0,1.4084,1.2124,1.0384,1.1966,1.0918,0.9747,0.9747,0.9646,0.9571,0.9571,0.9462,0.941,0.941,0.949,0.9571,0.9571,0.9571,0.9557,0.9537,0.9444,0.9369,0.9369,0.932,0.9313,0.9369,0.9349,0.9306,0.9306,0.9306,0.9306,0.9306,0.9306,0.9306,0.9306,0.9356,0.9485,0.9745,0.9968,0.9965,0.9751,0.9751,0.9765,0.9792,0.9792,0.9792,0.9792,0.9792,0.9792,0.9792,0.9792,0.9792,0.9866,0.0,0.0,0.0,0.0,0.0,0.0,0.0,0.0,0.0,0.0,0.0,0.0,0.0,0.0,0.0,0.0,0.0,0.0,0.0,0.0,0.0,0.0,0.0,0.0,0.0,0.0,0.0,0.0,0.0,0.0,0.0,0.0,0.0,0.0,0.0,0.0,0.0,1.3464,1.2457,1.2444,1.2328,1.1911,0.0,0.0,0.0,0.0,0.0,0.0,1.2347,1.195,1.144,0.0,0.0,0.0,0.8841,0.9087,0.8838,0.8774,0.9955,0.0,1.2791,0.0,1.2324,1.1979,0.0,0.0,1.1664,1.3165,1.1343,0.9442,0.9442,0.9422,0.9437,0.9437,0.9424,0.941,0.941,0.943,0.9437,0.9437,0.9437,0.939,0.9254,0.9226,0.9241,0.9241,0.9069,0.9055,0.9206,0.9062,0.8967,0.8967,0.8967,0.8967,0.8967,0.8967,0.8967,0.8973,0.9152,0.9851,1.1057,1.1204,1.0669,0.9639,0.9639,0.9677,0.9792,0.9792,0.9792,0.9792,0.9792,0.9792,0.9792,0.9792,0.9792,1.0004,0.0,0.0,0.0,0.0,0.0,0.0,0.0,0.0,0.0,0.0,0.0,0.0,0.0,0.0,0.0,1.0362,1.0436,1.066,1.1168,0.0,0.0,0.0,0.0,0.0,0.0,0.0,0.0,0.0,0.0,0.0,0.0,1.8598,1.9591,0.0,0.0,0.0,0.0,0.0,0.0,0.0,0.0,0.0,0.0,0.0,0.0,0.0,0.0,0.0,0.0,1.1968,1.144,1.0962,1.0753,0.0,0.0,0.0,0.8726,0.8654,0.904,1.0065,1.0947,0.0,1.0084,1.02,1.2107,1.1899,1.1735,1.3346,1.2553,1.163,1.1788,1.044,0.9538,1.0351,0.9716,0.913,0.913,0.9205,0.9281,0.9281,0.9281,0.9254,0.9214,0.9111,0.9035,0.9035,0.8865,0.8838,0.8899,0.8764,0.8682,0.8682,0.8682,0.8682,0.8682,0.8682,0.9128,1.002,1.0189,1.1034,1.2421,1.2487,1.1838,1.0668,1.0789,1.0406,0.9707,0.9758,0.9792,0.9792,0.9792,0.9792,0.9913,1.0808,1.114,1.1382,0.0,0.0,0.0,0.0,0.0,0.0,0.0,0.0,0.0,0.0,0.0,0.0,0.0,0.0,0.0,0.0,1.1332,1.1631,1.2328,1.2707,0.0,0.0,0.0,0.0,0.0,0.0,0.0,0.0,0.0,0.0,1.8929,1.8929,2.0449,0.0,1.9864,0.0,0.0,0.0,0.0,0.0,0.0,0.0,0.0,0.0,0.0,0.0,0.0,0.0,0.0,0.0,0.0,0.0,1.082,1.0283,0.0,0.0,0.0,0.8482,0.8388,0.0,0.9262,0.8768,0.8738,0.9409,0.0,1.197,1.2353,1.4105,1.4019,1.3805,1.4482,1.1894,1.0036,1.1081,0.9939,0.8912,0.8912,0.9028,0.9124,0.9124,0.9124,0.9111,0.907,0.894,0.8838,0.8798,0.8716,0.8655,0.8655,0.8547,0.8505,0.8505,0.8505,0.8505,0.8505,0.882,0.9763,1.1283,1.1451,1.2296,1.3719,1.3799,1.3327,1.2448,1.1963,1.0906,0.9618,0.9731,0.9792,0.9792,0.9792,0.9792,0.9997,1.1615,1.2217,1.2487,0.0,0.0,0.0,0.0,0.0,0.0,0.0,0.0,0.0,0.0,0.0,0.0,0.0,1.274,1.2764,1.2788,1.2788,1.28,1.2864,1.2895,1.2915,0.0,0.0,0.0,0.0,0.0,0.0,0.0,0.0,0.0,1.9825,1.9825,2.166,2.4809,2.1348,1.8437,1.6065,0.0,0.0,0.0,0.0,0.0,0.0,0.0,0.0,0.0,0.0,0.0,0.0,0.0,0.0,0.0,0.0,0.0,0.0,0.0,0.0,0.0,0.0,0.8611,0.0,0.9067,0.9672,1.0873,1.3084,1.3762,1.4451,1.6174,1.5417,1.4981,1.6704,1.3704,1.1044,1.1091,0.9864,0.8912,0.8912,0.8919,0.8919,0.8919,0.8919,0.8865,0.875,0.8723,0.8662,0.852,0.8526,0.8519,0.8519,0.8512,0.8505,0.8505,0.8505,0.8505,0.8505,0.9693,1.0992,1.2319,1.2588,1.3477,1.4902,1.5173,1.5274,1.5053,1.2599,1.0798,0.9618,0.9731,0.9792,0.9792,0.9792,0.9792,0.9997,1.1615,1.2217,1.2659,0.0,0.0,0.0,0.0,0.0,0.0,0.0,0.0,0.0,0.0,0.0,0.0,0.0,1.3281,1.3184,1.2922,1.325,1.3635,1.4036,1.3695,1.3469,1.3469,0.0,0.0,0.0,0.0,0.0,0.0,0.0,1.5019,1.8301,1.8574,1.9474,2.0918,2.0196,1.9376,1.8377,1.5532,0.0,0.0,0.0,0.0,0.0,0.0,0.0,0.0,0.0,0.0,0.0,0.0,0.0,0.0,0.0,0.0,0.0,0.0,0.0,0.0,0.0,0.0,0.0,0.8509,0.8979,0.9711,1.0749,1.2233,1.3673,1.4594,1.5244,1.5905,1.6731,1.4163,1.236,1.3644,1.1729,1.0116,1.028,0.9506,0.8912,0.8912,0.8825,0.8743,0.8716,0.8621,0.854,0.8512,0.8423,0.8723,0.9556,0.9505,0.9845,1.0664,1.0689,1.0689,1.0689,1.1267,1.2354,1.3936,1.4131,1.5065,1.6676,1.6778,1.5796,1.4013,1.3145,1.2038,1.0777,1.0074,0.9792,0.9792,0.9792,0.9792,1.0119,1.2779,1.3735,1.4212,0.0,0.0,0.0,0.0,0.0,0.0,0.0,0.0,0.0,0.0,0.0,0.0,0.0,0.0,1.3398,1.3118,1.3472,1.3876,1.4262,1.3802,1.3493,1.3493,1.3106,0.0,0.0,0.0,0.0,0.0,0.0,0.0,0.0,0.0,1.8361,1.9044,1.9044,1.9141,0.0,0.0,0.0,1.5064,0.0,0.0,1.3841,0.0,0.0,0.0,0.0,0.0,0.0,0.0,0.0,0.0,0.0,0.0,0.0,0.0,0.0,0.0,0.8697,0.0,0.0,0.0,0.9385,0.9803,1.0557,1.201,1.3316,1.3744,1.4984,1.6032,1.6233,1.4763,1.3872,1.494,1.2947,1.1336,1.1514,1.0681,0.9908,0.9455,0.9333,0.9087,0.862,0.8877,0.905,0.8999,0.9328,0.9887,1.0721,1.0704,1.1023,1.1877,1.1901,1.212,1.2571,1.2695,1.3572,1.5146,1.5441,1.6176,1.7288,1.7515,1.6287,1.3976,1.3645,1.2459,1.0677,0.9949,0.97,0.9777,1.0343,1.0582,1.0989,1.4212,1.54,1.5784,0.0,0.0,0.0,0.0,0.0,0.0,0.0,0.0,0.0,0.0,0.0,0.0,0.0,0.0,0.0,1.3561,1.3561,1.3573,1.3567,1.3194,1.2959,1.2939,1.2935,0.0,0.0,0.0,0.0,0.0,0.0,0.0,0.0,0.0,1.8576,0.0,1.8105,1.7598,1.7949,0.0,1.7695,1.7165,0.0,1.4545,1.5987,0.0,0.0,0.0,1.521,1.4232,0.0,1.1513,0.0,0.0,0.0,0.0,0.0,0.0,0.0,0.0,0.0,0.0,0.0,0.0,1.0942,1.1329,1.2786,1.334,1.3647,1.4001,1.475,1.5351,1.5378,1.5595,1.5499,1.4644,1.3343,1.2443,1.2453,1.2428,1.1913,1.0621,1.0465,0.9908,0.8487,0.9513,1.0179,1.001,1.117,1.1926,1.1974,1.1999,1.2023,1.2023,1.2023,1.2643,1.3944,1.3944,1.4579,1.5821,1.637,1.665,1.6665,1.7224,1.6658,1.5183,1.3963,1.1819,0.9214,0.9342,0.9469,0.9753,1.1379,1.2078,1.2599,1.5803,1.6991,1.7237,0.0,0.0,0.0,0.0,0.0,0.0,0.0,0.0,0.0,0.0,0.0,0.0,0.0,0.0,0.0,1.464,1.4919,1.5158,1.5305,1.4796,1.4335,1.3998,1.3857,1.3639,0.0,0.0,0.0,0.0,0.0,0.0,0.0,0.0,0.0,0.0,1.7321,1.7106,1.6539,1.5273,0.0,0.0,1.4232,1.4271,0.0,0.0,0.0,0.0,0.0,1.3652,1.3724,0.0,1.2379,1.2976,0.0,0.0,0.0,0.0,0.0,0.0,0.9313,0.0,0.0,0.0,0.0,0.0,1.0819,1.1513,1.2286,1.3253,1.3794,1.4301,1.4986,1.5173,1.5143,1.4895,1.4159,1.371,1.3878,1.3043,1.2273,1.1887,1.1744,1.1176,0.98,1.0744,1.103,1.0076,1.117,1.2328,1.3295,1.422,1.4711,1.4711,1.4711,1.4902,1.5272,1.5272,1.5567,1.6152,1.5355,1.5144,1.5432,1.4641,1.3556,1.2272,1.1919,1.0717,0.9015,0.9273,0.9469,0.9753,1.1379,1.2078,1.2599,1.5803,1.6991,1.7237,0.0,0.0,0.0,0.0,0.0,0.0,0.0,0.0,0.0,0.0,0.0,0.0,0.0,0.0,0.0,0.0,1.5428,1.5553,1.5495,1.4991,1.4556,1.4284,1.4156,1.3997,0.0,0.0,0.0,0.0,0.0,0.0,0.0,0.0,0.0,0.0,0.0,0.0,0.0,0.0,0.0,0.0,1.5014,0.0,0.0,1.5459,1.5508,0.0,0.0,0.0,1.4526,1.2877,1.2469,0.0,0.0,0.0,0.0,0.0,0.0,0.0,0.0,0.0,0.0,0.0,0.0,0.0,1.0005,1.0499,1.1059,1.1753,1.2326,1.29,1.3581,1.3996,1.429,1.4389,1.433,1.4371,1.4666,1.4107,1.3429,1.2876,1.2868,1.2369,1.1042,1.2011,1.2425,1.1672,1.2813,1.386,1.4651,1.5391,1.5808,1.5808,1.5808,1.5808,1.5808,1.5808,1.5888,1.6086,1.4875,1.4438,1.4667,1.3518,1.2286,1.1018,1.1076,1.0268,0.8926,0.9123,0.9723,1.0677,1.2247,1.3411,1.45,1.7061,1.801,1.814,0.0,0.0,0.0,0.0,0.0,0.0,0.0,0.0,0.0,0.0,0.0,0.0,0.0,0.0,0.0,0.0,1.5551,1.543,1.4975,1.4557,0.0,1.4192,1.4231,1.4217,1.4172,0.0,0.0,0.0,0.0,0.0,0.0,0.0,0.0,0.0,0.0,0.0,0.0,0.0,0.0,1.6531,1.6207,1.7399,0.0,0.0,1.8288,1.9365,1.8145,1.6758,1.5206,1.3215,1.1687,0.0,0.0,0.0,0.0,0.0,1.1175,0.0,0.0,0.0,0.0,0.0,0.0,0.0,0.9952,1.0114,1.0167,1.0167,1.0765,1.1419,1.1775,1.2532,1.3167,1.3393,1.398,1.4549,1.4932,1.5213,1.4923,1.3728,1.3838,1.3504,1.2159,1.324,1.3969,1.3849,1.5056,1.5808,1.5808,1.5808,1.5737,1.5581,1.5581,1.551,1.5367,1.5367,1.5367,1.5343,1.4327,1.3831,1.3815,1.3054,1.196,1.0679,1.1108,1.0464,0.9154,0.9154,1.0199,1.1954,1.3496,1.5289,1.7208,1.8794,1.9401,1.9401,0.0,0.0,0.0,0.0,0.0,0.0,0.0,0.0,0.0,0.0,0.0,0.0,0.0,0.0,0.0,0.0,0.0,1.6676,0.0,0.0,1.5405,1.4687,1.4966,1.4986,1.4668,1.4986,1.5142,0.0,0.0,0.0,0.0,0.0,0.0,0.0,0.0,0.0,0.0,0.0,0.0,1.5688,1.5987,0.0,1.9609,1.8025,1.7335,1.7127,1.6178,1.514,1.4114,1.3208,1.1881,1.0753,0.0,0.0,0.0,0.0,0.0,0.0,0.0,0.0,0.0,0.0,0.0,0.0,0.99,1.0156,1.0506,1.0506,1.064,1.0905,1.1423,1.2019,1.2425,1.227,1.31,1.406,1.4879,1.5062,1.4976,1.4714,1.4744,1.4269,1.2917,1.4006,1.4427,1.3555,1.4941,1.5808,1.5808,1.5808,1.5343,1.4292,1.4268,1.3764,1.2678,1.2654,1.2654,1.2654,1.1428,1.0891,1.0986,1.0814,1.0154,0.9241,1.1496,1.1764,1.0672,1.0672,1.1106,1.1954,1.3496,1.5289,1.7208,1.8794,1.9401,1.9401,0.0,0.0,0.0,0.0,0.0,0.0,0.0,0.0,0.0,0.0,0.0,0.0,0.0,0.0,0.0,0.0,0.0,0.0,0.0,0.0,1.6113,1.5478,1.564,1.5542,1.5098,1.5522,1.5625,1.5396,0.0,0.0,0.0,0.0,0.0,0.0,0.0,0.0,0.0,0.0,1.5742,1.5855,1.7165,0.0,1.9127,1.7973,1.7511,1.7261,1.593,1.4578,1.3243,1.2162,1.1433,0.0,0.0,1.1152,1.1485,0.0,1.1159,1.1193,0.0,0.0,0.0,1.0595,0.0,0.0,0.0,0.9808,0.9781,1.009,0.9809,0.9769,1.0592,1.0992,1.1303,1.1597,1.2126,1.2833,1.3775,1.4384,1.4736,1.4736,1.4892,1.4726,1.406,1.4613,1.4792,1.4249,1.506,1.5551,1.5404,1.5648,1.5119,1.3602,1.3791,1.3215,1.1802,1.1865,1.1881,1.1768,1.0515,1.0276,1.0919,1.036,1.0306,1.0739,1.2171,1.2583,1.2191,1.2191,1.2863,1.3864,1.4022,1.5788,1.8286,1.9098,1.9401,1.9401,0.0,0.0,0.0,0.0,0.0,0.0,0.0,0.0,0.0,0.0,0.0,0.0,0.0,0.0,0.0,0.0,0.0,0.0,0.0,0.0,0.0,1.5711,1.6033,1.5953,1.5415,1.5933,1.6031,1.5649,1.5571,0.0,0.0,0.0,0.0,0.0,0.0,0.0,0.0,0.0,0.0,1.6318,0.0,1.863,1.8265,1.7641,1.7512,1.74,1.5688,1.4045,1.2526,1.1264,1.1106,1.1202,1.0137,1.0832,0.0,0.0,0.0,0.0,0.0,0.0,0.0,0.0,0.0,1.0528,0.0,0.0,0.0,0.9634,0.9139,0.8911,0.9765,1.0072,1.0365,1.0883,1.1272,1.1703,1.2288,1.3313,1.4047,1.4221,1.4397,1.4558,1.4798,1.4772,1.4785,1.4892,1.5066,1.512,1.5022,1.5404,1.4782,1.2882,1.3216,1.2609,1.0934,1.1048,1.1032,1.089,1.0132,1.0293,1.1317,1.0857,1.1331,1.2572,1.3236,1.3572,1.3633,1.3675,1.4727,1.619,1.4992,1.648,1.9321,1.9374,1.9401,1.9401,1.4721,1.5059,0.0,0.0,0.0,0.0,0.0,0.0,0.0,0.0,0.0,0.0,0.0,0.0,0.0,0.0,0.0,0.0,1.8173,0.0,0.0,0.0,1.5784,1.6254,1.5415,1.6215,1.6625,1.6551,1.6207,1.6026,0.0,0.0,0.0,0.0,1.4504,0.0,0.0,0.0,1.5348,0.0,1.6944,1.7239,0.0,1.6621,1.588,1.5015,1.3606,1.264,1.1987,0.0,1.1614,1.1455,0.0,1.1583,1.1346,0.0,0.0,0.0,0.0,0.0,0.0,0.0,1.1962,0.0,0.0,0.0,1.0557,0.9848,0.0,0.9513,0.9337,0.0,0.0,0.9564,1.0795,1.1618,1.0935,1.1631,1.2484,1.3267,1.2919,1.3026,1.4103,1.3927,1.3994,1.4514,1.4362,1.4464,1.4959,1.5075,1.3987,1.1581,1.1564,1.0464,0.8088,0.8192,0.8199,0.8086,0.906,0.9699,1.0066,1.211,1.2723,1.2389,1.5093,1.5705,1.4833,1.5052,1.6179,1.7656,1.6509,1.7234,1.897,1.9294,1.9401,1.9401,0.0,0.0,0.0,0.0,0.0,0.0,0.0,0.0,0.0,0.0,0.0,0.0,0.0,0.0,0.0,0.0,0.0,1.7966,0.0,0.0,0.0,0.0,0.0,0.0,1.6562,1.6914,1.6976,1.6707,1.6797,1.6715,0.0,0.0,0.0,0.0,1.5142,0.0,1.552,0.0,1.5057,0.0,0.0,0.0,0.0,1.5795,1.5173,1.4021,1.3296,1.2765,1.2342,0.0,1.1979,0.0,0.0,0.0,0.0,0.0,0.0,0.0,0.0,0.0,0.0,0.0,0.0,0.0,1.1072,0.0,1.0474,0.0,0.0,0.0,0.0,0.0,0.0,0.0,1.0234,1.0544,1.0343,1.0196,1.0675,1.227,1.2229,1.2336,1.2986,1.3093,1.316,1.3227,1.358,1.3847,1.3935,1.3963,1.3316,1.1916,1.1504,1.0719,0.9466,0.9624,0.9624,0.9453,1.001,1.0719,1.1587,1.2745,1.3649,1.4388,1.5991,1.6532,1.6291,1.657,1.7119,1.7769,1.7645,1.8119,1.893,1.9281,1.9401,1.9401,0.0,0.0,0.0,0.0,0.0,0.0,0.0,0.0,0.0,0.0,0.0,0.0,1.6402,1.6409,0.0,0.0,1.8834,1.9009,0.0,0.0,1.8818,0.0,0.0,0.0,0.0,0.0,1.7519,1.7074,1.7285,1.7227,0.0,0.0,0.0,0.0,0.0,1.516,1.4937,0.0,1.4655,1.4769,1.4142,1.3997,1.4238,1.4872,1.4481,1.3573,1.338,1.3099,1.2722,1.2104,1.2438,1.2906,1.1917,1.2425,0.0,0.0,0.0,0.0,1.3287,0.0,0.0,0.0,0.0,0.0,0.0,0.0,0.0,0.0,0.0,0.0,0.0,0.0,0.0,0.0,0.0,0.982,0.9858,0.9311,0.9593,1.1427,1.1855,1.2056,1.2171,1.2323,1.2377,1.2305,1.274,1.3073,1.318,1.3201,1.2918,1.2312,1.1838,1.1311,1.0748,1.0935,1.0925,1.0763,1.1128,1.1871,1.2928,1.3444,1.4454,1.5835,1.6446,1.6834,1.7086,1.7461,1.7608,1.7675,1.825,1.8624,1.8851,1.9254,1.9401,1.9401,0.0,1.6227,0.0,0.0,0.0,0.0,0.0,0.0,0.0,0.0,0.0,0.0,0.0,0.0,0.0,0.0,0.0,1.8343,1.9989,0.0,1.8129,0.0,0.0,1.8279,0.0,0.0,0.0,1.7952,1.7578,1.7399,1.738,0.0,0.0,0.0,1.5043,1.5155,1.5473,1.3842,1.4131,1.553,1.4179,1.3808,1.4078,0.0,1.3634,1.36,1.3586,1.3253,1.2843,1.3053,1.2992,1.2851,1.3053,1.2992,0.0,0.0,0.0,0.0,0.0,1.382,0.0,1.3012,0.0,0.0,0.0,0.0,1.2078,0.0,0.0,0.0,0.0,0.0,0.0,0.0,0.0,0.0,0.0,0.9204,0.9644,1.0875,1.177,1.2184,1.194,1.1637,1.1686,1.2265,1.1779,1.1979,1.3146,1.32,1.2926,1.231,1.2281,1.1725,1.0626,1.0738,1.0738,1.0624,1.1926,1.2773,1.3222,1.4411,1.5261,1.5835,1.6446,1.6714,1.6767,1.7367,1.7608,1.7675,1.825,1.8504,1.8571,1.9187,1.9401,1.9401,0.0,0.0,0.0,0.0,0.0,0.0,0.0,1.4087,0.0,0.0,0.0,0.0,0.0,1.8329,1.8749,0.0,0.0,2.0732,2.1442,2.1683,0.0,0.0,0.0,1.9942,0.0,0.0,0.0,0.0,0.0,0.0,1.7776,1.6682,0.0,0.0,0.0,1.4704,0.0,0.0,0.0,0.0,0.0,1.2845,1.3399,1.3805,1.3935,1.3881,1.3474,1.3227,1.3032,1.2705,1.2684,1.2749,1.2449,1.2786,1.328,1.3006,1.334,1.3814,1.3908,1.4015,1.3921,1.3246,1.2945,1.261,1.1895,0.0,0.0,0.0,0.0,0.0,0.0,0.0,0.0,0.0,0.0,0.0,0.0,0.9685,0.9952,1.0367,1.1022,1.1333,1.1069,1.0948,1.0958,1.1162,1.1299,1.1673,1.231,1.2334,1.2589,1.314,1.2611,1.2504,1.2912,1.2955,1.2955,1.2912,1.3374,1.3771,1.4084,1.4714,1.52,1.5591,1.6366,1.67,1.6754,1.7341,1.7608,1.7675,1.825,1.849,1.8557,1.9187,1.9401,1.9401,1.8578,0.0,0.0,0.0,0.0,0.0,0.0,0.0,0.0,0.0,1.7969,0.0,2.0003,0.0,1.9883,0.0,2.1481,2.1714,2.1346,2.2607,0.0,2.1227,2.1471,0.0,0.0,0.0,0.0,0.0,0.0,1.8128,1.7474,1.6561,0.0,0.0,0.0,1.4437,1.4242,1.4374,1.4089,0.0,0.0,1.2086,0.0,1.2663,1.2936,1.3,1.2811,1.2637,1.2486,1.2472,1.2537,1.2556,1.2163,1.2545,1.3087,1.2864,1.328,1.3801,1.3908,1.4001,1.3975,1.346,1.3213,1.2925,1.2355,1.2492,1.2566,0.0,0.0,0.0,0.0,0.0,0.0,0.0,0.0,0.0,0.0,0.9927,1.0098,1.0098,1.0541,1.0744,1.045,1.0533,1.0546,1.0423,1.0848,1.1289,1.1708,1.1929,1.2483,1.342,1.3113,1.3315,1.4082,1.4103,1.4103,1.4103,1.4103,1.4295,1.4683,1.4892,1.5253,1.5775,1.642,1.6767,1.6926,1.7408,1.7608,1.7662,1.813,1.8397,1.8557,1.9187,1.9401,1.9401,0.0,0.0,0.0,0.0,1.6021,0.0,0.0,0.0,1.6834,0.0,1.8318,1.9464,2.065,2.026,2.022,2.1046,2.1552,2.1273,1.9886,2.2348,0.0,0.0,2.1575,2.1478,1.9287,0.0,0.0,0.0,0.0,0.0,1.6559,1.6489,0.0,0.0,1.4613,0.0,1.324,1.41,1.4292,1.3913,1.2696,1.1574,1.0634,1.0561,1.0746,1.1139,1.1697,1.1585,1.1368,1.2413,1.2551,1.2305,1.2305,1.2318,1.2403,1.2703,1.2992,1.3273,1.3533,1.3834,1.4015,1.3693,1.3613,1.3474,1.2958,1.324,1.3373,1.2513,1.2604,0.0,0.0,0.0,0.0,0.0,0.0,0.0,0.0,0.0,1.0125,1.0125,1.0414,1.0497,1.0167,1.0383,1.0439,1.0154,1.0396,1.0811,1.1352,1.1984,1.2585,1.3153,1.3774,1.4103,1.4103,1.4103,1.4103,1.4103,1.4095,1.4424,1.5008,1.4999,1.5504,1.631,1.658,1.6899,1.7219,1.7488,1.7608,1.7635,1.7903,1.8223,1.8584,1.9187,1.9401,1.9401,1.9532,1.9089,1.8264,0.0,1.587,1.512,1.521,1.5899,0.0,0.0,1.9907,2.0672,2.183,2.164,2.1324,2.1117,2.2025,0.0,0.0,0.0,0.0,2.0981,2.2084,2.1396,1.8541,2.0512,0.0,1.7027,0.0,0.0,1.5841,1.4892,1.4189,0.0,0.0,1.3402,1.2958,1.3835,1.3647,1.2653,1.1488,1.1064,1.1004,0.9792,0.9907,1.0805,1.1396,1.1425,1.1345,1.2141,1.2358,1.2305,1.2305,1.247,1.269,1.2757,1.3139,1.3507,1.3586,1.3834,1.4089,1.3988,1.378,1.356,1.3433,1.3687,1.3788,1.312,1.3193,1.314,1.2345,1.1908,0.0,0.0,0.0,0.0,0.0,0.0,0.0,1.0479,1.0762,1.0827,1.0497,1.0142,1.0075,1.0437,1.0314,1.0488,1.1076,1.2096,1.2744,1.2904,1.3675,1.4103,1.4103,1.4103,1.4103,1.4095,1.4309,1.4603,1.5022,1.5213,1.5668,1.631,1.658,1.6899,1.7219,1.7488,1.7608,1.7635,1.7889,1.8329,1.8851,1.9254,1.9401,1.9428,1.9902,0.0,0.0,1.6938,1.6448,1.6188,1.6198,1.6794,1.7943,1.977,2.0641,0.0,2.1964,2.2124,2.2044,2.171,2.2078,0.0,2.1348,0.0,0.0,2.1179,2.1836,2.1114,1.8719,1.9682,0.0,1.6218,0.0,0.0,1.4759,1.4046,1.3466,0.0,0.0,1.312,1.3019,1.3782,1.3498,1.2443,1.1661,1.1213,0.0,0.9989,0.9919,1.0411,1.1204,1.1304,1.1166,1.2024,1.2305,1.2305,1.2305,1.243,1.2617,1.2904,1.3186,1.3487,1.374,1.3961,1.4103,1.4103,1.3961,1.378,1.3626,1.3754,1.374,1.3287,1.3327,1.3233,1.2631,1.227,1.1917,0.0,0.0,0.0,0.0,0.0,0.0,0.0,1.1148,1.1188,1.0652,1.043,1.0486,1.0882,1.076,1.0699,1.0811,1.2074,1.273,1.2596,1.3667,1.4215,1.4103,1.4469,1.4536,1.4282,1.4576,1.487,1.5186,1.5324,1.5792,1.6473,1.6633,1.6954,1.7381,1.7541,1.7608,1.7648,1.8076,1.8423,1.8784,1.9241,1.9401,1.9415,1.9774,0.0,0.0,0.0,0.0,1.7528,1.7168,1.8063,1.9078,1.992,2.1047,2.1756,2.1756,2.2178,2.2445,2.2331,0.0,2.1381,2.0753,2.1651,2.1759,2.0764,2.1116,2.0619,1.8992,1.842,0.0,0.0,0.0,0.0,1.3634,1.3546,1.308,0.0,0.0,0.0,0.0,1.3801,1.351,1.2657,1.2404,1.1702,1.0821,1.0821,1.0647,1.0506,1.1401,1.1327,1.0963,1.1998,1.2331,1.2318,1.2398,1.2398,1.2478,1.3039,1.322,1.3373,1.3895,1.4076,1.4103,1.4103,1.4103,1.4015,1.372,1.3666,1.3607,1.3373,1.3273,1.3186,1.2958,1.2604,1.2184,0.0,0.0,0.0,0.0,0.0,0.0,0.0,0.0,0.0,1.0878,1.1008,1.1152,1.1197,1.1251,1.1089,1.0613,1.1971,1.261,1.2305,1.3707,1.4402,1.4255,1.4977,1.5124,1.4674,1.4932,1.52,1.5458,1.5498,1.5965,1.6767,1.6767,1.7074,1.7608,1.7608,1.7609,1.7702,1.8263,1.8517,1.8611,1.9201,1.9401,1.9401,1.8646,0.0,0.0,0.0,0.0,1.8236,1.9132,1.9853,2.0552,2.1194,2.2091,2.2666,2.2666,2.276,2.2626,2.2111,2.1964,0.0,0.0,0.0,0.0,1.9681,2.0316,1.956,1.721,1.8308,1.7516,0.0,0.0,0.0,0.0,1.2776,1.247,0.0,0.0,0.0,1.3207,1.3554,1.3061,1.2078,1.2242,1.2173,1.2002,1.2002,1.2398,1.2952,1.2901,1.201,1.1005,1.227,1.2524,1.2385,1.2893,1.2898,1.2784,1.3106,1.3367,1.3547,1.3653,1.3895,1.4103,1.4103,1.4103,1.4068,1.4015,1.4015,1.4001,1.3948,1.3714,1.3527,1.3474,1.3059,1.2596,1.2198,0.0,0.0,0.0,0.0,0.0,0.0,0.0,1.1712,1.1913,1.1523,1.1105,1.0745,1.0733,1.0707,1.0615,1.1734,1.2358,1.2305,1.3507,1.4482,1.5164,1.5106,1.5253,1.5568,1.5404,1.5471,1.5741,1.6005,1.6498,1.71,1.71,1.7287,1.7608,1.7608,1.7729,1.7969,1.8357,1.8637,1.8891,1.9267,1.9401,1.9428,1.8839,0.0,0.0,0.0,1.8714,1.945,2.0347,2.1229,2.1783,2.1609,2.1957,2.2211,2.2211,2.2626,2.2719,2.2245,2.2071,2.177,2.1194,2.0561,2.0077,1.9826,1.9706,1.8876,1.7207,1.7179,1.6297,1.4501,0.0,0.0,0.0,1.2906,1.2692,1.2569,0.0,1.2866,0.0,1.3407,1.3261,1.3042,1.318,1.323,1.323,1.323,1.3381,1.3586,1.344,1.2831,1.2113,1.2631,1.2797,1.2826,1.312,1.3106,1.3072,1.3327,1.3493,1.364,1.3807,1.3975,1.4103,1.4103,1.4103,1.4103,1.4103,1.4103,1.4103,1.4103,1.3975,1.3807,1.3626,1.328,1.2946,1.2799,1.2652,1.2484,0.0,0.0,0.0,0.0,0.0,0.0,0.0,1.1472,1.1462,1.1234,1.1248,1.1069,1.0613,1.1846,1.2484,1.2305,1.3614,1.4509,1.4937,1.5427,1.5655,1.5581,1.5595,1.5675,1.5821,1.6163,1.6538,1.6953,1.7113,1.7341,1.7608,1.7608,1.7769,1.8022,1.837,1.8664,1.893,1.9281,1.9401,1.9415,0.0,1.9036,0.0,0.0,1.9863,2.0668,2.1136,2.2184,2.2653,2.1957,2.1863,2.1863,2.1863,2.2479,2.2773,2.2445,2.2151,2.1877,2.1515,2.0695,2.017,2.0117,1.933,1.8503,1.7702,1.6246,1.5204,0.0,0.0,1.2952,1.312,1.3173,1.3059,1.2803,1.2639,1.2887,1.3433,1.3393,1.3627,1.4001,1.4055,1.4103,1.4103,1.4103,1.3948,1.3714,1.3626,1.3514,1.3347,1.3059,1.3072,1.3207,1.336,1.3327,1.334,1.3613,1.3714,1.3767,1.4028,1.4103,1.4103,1.4103,1.4103,1.4103,1.4103,1.4103,1.4103,1.4103,1.4103,1.4015,1.3754,1.3487,1.3287,1.3287,1.3233,1.3106,1.2843,0.0,0.0,0.0,0.0,0.0,1.0784,1.1485,1.1866,1.1577,1.1653,1.1373,1.0626,1.189,1.2516,1.2305,1.3681,1.4527,1.4767,1.5712,1.6005,1.5671,1.5821,1.5928,1.6008,1.6351,1.6645,1.6901,1.7167,1.7394,1.7608,1.7649,1.7862,1.8143,1.8464,1.8758,1.9052,1.9308,1.9401,1.9401,0.0,0.0,1.9703,1.9693,2.0699,2.1475,2.1529,2.2318,2.2867,2.2786,2.2773,2.2773,2.2773,2.284,2.2773,2.2445,2.2151,2.175,2.1189,2.0544,2.0077,1.9853,1.9252,1.8609,1.7996,1.6528,1.5511,0.0,0.0,1.3059,1.2837,1.3099,1.3059,1.283,1.3293,1.3247,1.2918,1.3688,1.386,1.3666,1.3975,1.4103,1.4103,1.4103,1.4089,1.4015,1.3714,1.378,1.3961,1.3634,1.338,1.3307,1.3841,1.3814,1.3626,1.3961,1.4041,1.4055,1.4082,1.4103,1.4103,1.4103,1.4103,1.4103,1.4103,1.4103,1.4103,1.4103,1.4103,1.4082,1.4055,1.378,1.356,1.356,1.3367,1.3106,1.2843,0.0,1.2529,1.1922,0.0,0.0,1.1052,1.1966,1.2091,1.0817,1.094,1.0945,1.0629,1.1484,1.2082,1.2291,1.3494,1.4629,1.5675,1.5795,1.6088,1.658,1.6364,1.6366,1.6633,1.6953,1.7247,1.7528,1.7555,1.7582,1.7635,1.7862,1.8156,1.8477,1.8771,1.9065,1.9361,1.9388,1.9401,1.9428,1.9862,1.9947,2.0281,2.0989,2.1216,2.1555,2.2265,2.2666,2.2893,2.2893,2.2893,2.2893,2.2893,2.2893,2.2773,2.2445,2.2151,2.185,2.1435,2.0655,2.0157,2.0037,1.9506,1.8918,1.8303,1.7208,1.6246,0.0,0.0,1.3841,1.3567,1.3474,1.3287,1.3026,1.2893,1.2906,1.3072,1.3414,1.3567,1.3626,1.3975,1.4103,1.4103,1.4103,1.4103,1.4068,1.3948,1.3988,1.4089,1.3948,1.3828,1.3774,1.4015,1.4001,1.3935,1.4055,1.4103,1.4103,1.4103,1.4103,1.4103,1.4103,1.4103,1.4103,1.4103,1.4103,1.4103,1.4103,1.4103,1.4103,1.4103,1.3988,1.3908,1.3908,1.3814,1.3764,1.3885,1.3877,0.0,1.3269,0.0,0.0,1.227,1.2321,1.2411,1.2395,1.2164,1.1677,1.0884,1.1667,1.2283,1.2596,1.3581,1.4482,1.5297,1.5635,1.6008,1.6471,1.6351,1.6444,1.6714,1.7033,1.7367,1.7608,1.7608,1.7689,1.7849,1.7969,1.8303,1.8758,1.885,1.9105,1.9401,1.9401,1.9401,1.9441,2.0775,2.0708,2.0935,2.1937,2.1844,2.1911,2.2773,2.2893,2.2893,2.2893,2.2893,2.2893,2.2893,2.2893,2.2813,2.2565,2.2205,2.193,2.1729,2.0775,2.0197,2.0197,1.9679,1.916,1.8624,1.7769,1.6872,1.5965,1.5061,1.4416,1.3948,1.3706,1.3493,1.33,1.2973,1.3013,1.3327,1.35,1.3647,1.378,1.4095,1.4162,1.4103,1.4103,1.4103,1.4103,1.4103,1.4103,1.4103,1.4103,1.4103,1.4103,1.4103,1.4103,1.4103,1.4103,1.4103,1.4103,1.4103,1.4103,1.4103,1.4103,1.4103,1.4103,1.4103,1.4103,1.4103,1.4103,1.4103,1.4103,1.4103,1.4103,1.4103,1.4103,1.4274,1.4439,1.458,1.4841,0.0,1.4328,1.4428,1.4181,1.3272,1.298,1.2959,1.3172,1.3035,1.2528,1.1609,1.2024,1.2478,1.2904,1.3768,1.4517,1.5106,1.5671,1.6072,1.6297,1.6471,1.6658,1.6847,1.726,1.7528,1.7729,1.7809,1.7969,1.8156,1.8236,1.8529,1.8903,1.9025,1.9185,1.9401,1.9401,1.9455,1.9474,2.0989,2.1368,2.1756,2.2311,2.2645,2.288,2.2893,2.2893,2.2893,2.2893,2.2893,2.2893,2.2893,2.2893,2.2893,2.2893,2.2358,2.1991,2.201,2.0882,2.0197,2.0197,1.9679,1.9225,1.889,1.8036,1.7167,1.6297,1.5414,1.4509,1.3613,1.36,1.36,1.3613,1.3935,1.3908,1.364,1.4234,1.4335,1.4129,1.4402,1.4349,1.4103,1.4103,1.4103,1.4103,1.4103,1.4103,1.4103,1.4103,1.4103,1.4103,1.4103,1.4103,1.4103,1.4103,1.4103,1.4103,1.4103,1.4103,1.4103,1.4103,1.4103,1.4103,1.4103,1.4103,1.4103,1.4103,1.4103,1.4103,1.4103,1.4103,1.4103,1.4103,1.466,1.4974,1.4652,1.5404,1.5665,1.4811,1.522,1.5052,1.3717,1.4131,1.3843,1.2335,1.2996,1.3312,1.2912,1.2507,1.2585,1.3186,1.4034,1.4781,1.5391,1.6003,1.6297,1.631,1.6911,1.7192,1.7219,1.7742,1.7982,1.8009,1.8357,1.8477,1.8504,1.8798,1.889,1.893,1.9252,1.9388,1.9401,1.9401,1.9575,1.9589,2.1676,2.2144,2.2546,2.2719,2.284,2.2893,2.2893,2.2893,2.2893,2.2893,2.2893,2.2893,2.2893,2.2893,2.2893,2.2893,2.2364,2.2012,2.1991,2.0851,2.0197,2.0197,1.9679,1.9225,1.8903,1.8223,1.7555,1.6924,1.6217,1.5427,1.4558,1.4314,1.4221,1.4207,1.4135,1.4277,1.4536,1.4522,1.4589,1.4718,1.4812,1.4643,1.4367,1.4367,1.4255,1.4103,1.4103,1.4103,1.4103,1.4103,1.4103,1.4103,1.4103,1.4103,1.4103,1.4103,1.4103,1.4103,1.4103,1.4103,1.4103,1.4103,1.4103,1.4103,1.4103,1.4103,1.4103,1.4103,1.4103,1.4103,1.4103,1.4103,1.4334,1.5082,1.5136,1.5475,1.6558,1.67,1.6634,1.6563,1.6708,1.6524,1.5793,1.498,1.4562,1.4713,1.3669,1.2788,1.2249,1.2831,1.3267,1.3474,1.4527,1.5274,1.5661,1.6273,1.6698,1.6924,1.7112,1.7394,1.7742,1.7929,1.8129,1.8357,1.845,1.8597,1.8798,1.885,1.9038,1.9267,1.9361,1.9401,1.9428,1.9615,1.972,1.9628,2.1836,2.2331,2.2699,2.2699,2.2827,2.2893,2.2893,2.2893,2.284,2.274,2.2813,2.2859,2.2743,2.2825,2.2893,2.2893,2.235,2.1998,2.2004,2.0987,2.0332,2.021,1.9786,1.9415,1.9092,1.8596,1.8049,1.7515,1.6698,1.5909,1.5146,1.4937,1.479,1.4683,1.4517,1.4638,1.4986,1.4883,1.4897,1.5022,1.5106,1.495,1.4669,1.4541,1.4402,1.4242,1.4143,1.4103,1.4103,1.4103,1.4103,1.4103,1.4103,1.4103,1.4103,1.4103,1.4103,1.4103,1.4103,1.4103,1.4103,1.4103,1.4103,1.4103,1.4103,1.4175,1.4215,1.4129,1.4103,1.4103,1.4103,1.444,1.4915,1.5593,1.5905,1.6451,1.7541,1.7515,1.744,1.7609,1.7754,1.7617,1.7015,1.5858,1.5264,1.5549,1.4248,1.3126,1.243,1.3293,1.3887,1.4114,1.5034,1.5752,1.6128,1.6633,1.6993,1.7206,1.7408,1.7742,1.8196,1.8303,1.8449,1.8664,1.8771,1.8918,1.9092,1.9092,1.9199,1.9401,1.9401,1.9401,1.9415,1.9703,1.9856,1.9762,2.1622,2.2031,2.2432,2.2445,2.2672,2.2893,2.2893,2.288,2.2733,2.2439,2.2646,2.2732,2.2398,2.2677,2.2867,2.2867,2.231,2.2005,2.1991,2.1165,2.0539,2.0193,1.996,1.9666,1.9401,1.9078,1.8609,1.7995,1.6901,1.6083,1.5511,1.5471,1.5334,1.5102,1.5062,1.5048,1.5066,1.5297,1.528,1.5066,1.5347,1.528,1.4986,1.4669,1.4514,1.4461,1.4188,1.4103,1.4095,1.4129,1.4143,1.4122,1.417,1.417,1.417,1.4122,1.4095,1.4095,1.4108,1.4095,1.4095,1.4108,1.4156,1.417,1.417,1.4362,1.4469,1.4175,1.4193,1.4235,1.4208,1.5103,1.5841,1.5872,1.6902,1.7711,1.7767,1.7919,1.8013,1.7927,1.8296,1.8222,1.7378,1.6542,1.5763,1.5051,1.4652,1.41,1.3327,1.3881,1.4464,1.4972,1.5578,1.6155,1.6727,1.7073,1.7273,1.73,1.7809,1.8209,1.8531,1.8798,1.8903,1.8943,1.9267,1.9401,1.9401,1.9401,1.9401,1.9401,1.9401,1.9401,1.943,1.9716,1.9983,2.0007,2.1869,2.2178,2.2485,2.2746,2.2853,2.2893,2.2893,2.2672,2.2505,2.2412,2.229,2.2188,2.2123,2.2345,2.2512,2.2525,2.221,2.1982,2.201,2.1184,2.054,2.021,1.996,1.9666,1.9401,1.9078,1.8596,1.7996,1.7327,1.6924,1.6752,1.6297,1.6056,1.5963,1.5521,1.5418,1.5595,1.5458,1.5484,1.5631,1.5675,1.5551,1.5257,1.4986,1.471,1.4461,1.4188,1.4103,1.4122,1.4349,1.4416,1.4456,1.4705,1.4794,1.4732,1.4482,1.4255,1.4135,1.4362,1.4255,1.4135,1.4341,1.4589,1.4794,1.4794,1.4839,1.4798,1.4482,1.5055,1.5566,1.5361,1.6191,1.709,1.7586,1.7692,1.7861,1.8328,1.8437,1.8144,1.733,1.7642,1.7495,1.6419,1.5327,1.479,1.5059,1.4279,1.3906,1.4181,1.4954,1.5284,1.5022,1.6228,1.6926,1.7073,1.7569,1.7956,1.8197,1.8317,1.8544,1.8824,1.8863,1.9052,1.9294,1.9361,1.9401,1.9401,1.9401,1.9401,1.9401,1.9401,1.9401,1.947,1.9926,2.0151,2.0015,2.0431,2.0839,2.1342,2.2331,2.2612,2.2665,2.2682,2.2644,2.2546,2.2258,2.219,2.2086,2.1832,2.2067,2.2251,2.2405,2.2265,2.2118,2.1991,2.1456,2.0891,2.0454,2.016,1.9867,1.9602,1.9279,1.8838,1.8237,1.7662,1.7326,1.7192,1.6846,1.6551,1.6284,1.5963,1.5805,1.5795,1.5635,1.5661,1.5808,1.5808,1.5715,1.5541,1.5271,1.4977,1.4696,1.4571,1.4402,1.4335,1.4629,1.4723,1.475,1.4932,1.5008,1.4986,1.4937,1.471,1.4544,1.4683,1.4625,1.4544,1.4683,1.4959,1.5146,1.5035,1.5093,1.5106,1.4776,1.5625,1.6309,1.5959,1.7252,1.8348,1.8316,1.8376,1.8467,1.8585,1.8191,1.7712,1.7295,1.736,1.715,1.6488,1.5743,1.534,1.5465,1.5065,1.487,1.4923,1.6115,1.6422,1.5615,1.6777,1.7448,1.7555,1.8023,1.8369,1.8691,1.8691,1.8838,1.9132,1.9132,1.9212,1.9401,1.9401,1.9401,1.9401,1.9401,1.9401,1.9401,1.9401,1.9459,1.9643,2.0034,2.0307,2.037,1.8653,1.9196,1.9898,2.1701,2.2224,2.2391,2.239,2.2627,2.2638,2.2145,2.2177,2.21,2.1656,2.1803,2.203,2.2271,2.2308,2.2227,2.2017,2.1664,2.1224,2.0641,2.029,1.9997,1.9746,1.9481,1.9052,1.8557,1.7943,1.7528,1.7314,1.7246,1.6938,1.6431,1.6391,1.6166,1.5875,1.5875,1.5848,1.5808,1.5808,1.5808,1.5768,1.5511,1.5267,1.5075,1.4999,1.4825,1.4629,1.4946,1.5079,1.512,1.5173,1.5213,1.5294,1.5524,1.5418,1.5227,1.5115,1.5053,1.5066,1.5106,1.5334,1.5494,1.5294,1.5441,1.5511,1.524,1.6253,1.7005,1.6517,1.8292,1.9544,1.8681,1.9013,1.9184,1.8558,1.7787,1.7254,1.7244,1.7156,1.6999,1.676,1.653,1.6286,1.598,1.6113,1.607,1.5685,1.7102,1.7516,1.6591,1.7315,1.7862,1.8115,1.8424,1.8704,1.8985,1.8985,1.9118,1.9401,1.9401,1.9401,1.9401,1.9401,1.9401,1.9401,1.9441,1.9468,1.9468,1.9508,1.9668,1.9897,2.0159,2.0464,2.0753,1.8615,1.9032,1.9675,2.1641,2.2209,2.2391,2.2385,2.2429,2.2437,2.2345,2.1996,2.1679,2.1588,2.1624,2.1692,2.1715,2.1918,2.2031,2.1984,2.1256,2.0668,2.029,2.0027,1.9733,1.9468,1.9145,1.8916,1.8823,1.8236,1.7929,1.7876,1.7408,1.7152,1.7058,1.6754,1.6473,1.623,1.623,1.6059,1.5808,1.5808,1.5808,1.5768,1.5511,1.5364,1.532,1.5079,1.4981,1.4959,1.5231,1.5498,1.5738,1.6016,1.6233,1.6446,1.6486,1.6473,1.6273,1.5538,1.5347,1.5391,1.5608,1.5912,1.6217,1.6393,1.6473,1.642,1.615,1.7597,1.8691,1.8002,1.9561,2.068,1.9773,1.9751,1.9351,1.8027,1.8177,1.7863,1.6323,1.6664,1.6741,1.6044,1.5727,1.5767,1.6215,1.601,1.6179,1.6872,1.7394,1.7689,1.7742,1.8143,1.849,1.8756,1.881,1.9011,1.9321,1.9321,1.9348,1.9401,1.9401,1.9401,1.9401,1.9401,1.9401,1.9415,1.9626,1.9733,1.976,2.0,2.0103,2.0172,2.0503,2.0659,2.0753,1.6953,1.8094,1.9325,2.118,2.1886,2.2187,2.2184,2.2462,2.2593,2.2429,2.2197,2.1929,2.1642,2.1606,2.1606,2.1606,2.1539,2.1602,2.1753,2.14,2.0957,2.0494,2.0187,1.9826,1.9401,1.9078,1.889,1.889,1.8463,1.8263,1.8249,1.7836,1.7542,1.7394,1.71,1.6805,1.6524,1.6364,1.6286,1.6248,1.5928,1.5995,1.6273,1.5979,1.5765,1.5631,1.5682,1.5588,1.5471,1.5765,1.6059,1.6302,1.646,1.6593,1.67,1.67,1.67,1.662,1.6206,1.6099,1.6139,1.6248,1.6406,1.654,1.6673,1.67,1.666,1.6526,1.7674,1.8612,1.8439,1.9583,2.0261,1.9401,1.9143,1.8611,1.7449,1.7207,1.6975,1.6455,1.6532,1.6538,1.6321,1.6179,1.6286,1.6764,1.6792,1.7021,1.7595,1.8063,1.837,1.8489,1.8623,1.8865,1.9158,1.9158,1.9254,1.9401,1.9401,1.9401,1.9401,1.9401,1.9401,1.9401,1.9562,1.9629,1.9655,1.9907,2.004,2.001,2.0157,2.0315,2.049,2.0627,2.0784,2.0951,1.607,1.764,1.9152,2.0901,2.1651,2.2007,2.2084,2.2498,2.2709,2.2545,2.2429,2.2215,2.1727,2.1642,2.1574,2.1497,2.1249,2.1219,2.1463,2.1487,2.1206,2.0593,2.0224,1.9826,1.9401,1.9145,1.9025,1.9025,1.8731,1.8597,1.8584,1.8196,1.7889,1.7675,1.7408,1.7113,1.6794,1.6591,1.6591,1.666,1.6195,1.6275,1.6687,1.6484,1.6233,1.6035,1.6286,1.6233,1.6048,1.6324,1.6591,1.6807,1.6807,1.686,1.6914,1.6914,1.6914,1.6887,1.674,1.67,1.6727,1.6794,1.6807,1.682,1.6901,1.6914,1.6914,1.6914,1.7655,1.8366,1.8487,1.9239,1.9593,1.8806,1.8451,1.7949,1.7052,1.6545,1.6425,1.6831,1.6732,1.6739,1.7088,1.7114,1.7221,1.7474,1.7689,1.7929,1.8182,1.8649,1.893,1.9025,1.9025,1.9132,1.9388,1.9401,1.9401,1.9401,1.9401,1.9401,1.9401,1.9401,1.9428,1.9508,1.9706,1.984,1.992,2.0184,2.0304,2.0317,2.0384,2.0565,2.0788,2.0891,2.1047,2.1256,1.7661,1.8645,1.9498,2.1262,2.1791,2.2079,2.2321,2.2403,2.2545,2.2825,2.2593,2.2287,2.2012,2.1764,2.1466,2.1154,2.1109,2.1091,2.1131,2.1131,2.0868,2.0244,1.9724,1.9441,1.9401,1.9374,1.9361,1.9361,1.9038,1.8863,1.885,1.8262,1.7982,1.7969,1.7689,1.7408,1.7166,1.7152,1.6966,1.67,1.666,1.666,1.67,1.6687,1.666,1.6647,1.666,1.666,1.6647,1.666,1.6899,1.7166,1.7166,1.7327,1.7541,1.7541,1.7541,1.7395,1.6847,1.67,1.6767,1.7099,1.7166,1.7246,1.7488,1.7541,1.7541,1.7541,1.8266,1.882,1.839,1.8887,1.9192,1.8687,1.8387,1.7926,1.7123,1.7226,1.7332,1.7192,1.7379,1.7742,1.8303,1.8357,1.837,1.8384,1.841,1.8557,1.881,1.8876,1.9052,1.9361,1.9361,1.9374,1.9401,1.9401,1.9401,1.9401,1.9401,1.9401,1.9401,1.9401,1.9548,1.9773,1.9786,1.9947,2.0197,2.0521,2.0672,2.0699,2.0935,2.1056,2.1096,2.1422,2.1529,2.1596,1.8016,1.9656,2.0836,2.1476,2.1819,2.2098,2.2375,2.2392,2.2511,2.2859,2.2777,2.2593,2.2279,2.1994,2.1728,2.1434,2.1217,2.1109,2.1109,2.1109,2.0837,2.0239,1.969,1.9401,1.9401,1.9401,1.9401,1.9401,1.9281,1.9199,1.9185,1.8597,1.8317,1.8303,1.7809,1.7541,1.7434,1.7273,1.7207,1.7221,1.6847,1.6927,1.7235,1.7073,1.7006,1.7006,1.7006,1.7006,1.7006,1.7006,1.7207,1.7448,1.7448,1.7515,1.782,1.895,1.9074,1.9101,2.0223,1.9542,1.8534,1.8663,1.8692,1.8544,1.7982,1.7716,1.7662,1.7796,1.7867,1.7975,1.8261,1.8378,1.8386,1.8178,1.7942,1.7619,1.7173,1.7221,1.7406,1.7675,1.7969,1.8237,1.8464,1.849,1.8571,1.8744,1.8758,1.8891,1.9185,1.9199,1.9332,1.9626,1.9669,1.9575,1.9401,1.9575,1.9575,1.9401,1.9575,1.9575,1.9401,1.9401,1.9562,1.9813,1.9987,2.0241,2.0535,2.0828,2.0949,2.0949,2.1069,2.1216,2.1435,2.1542,2.1703,2.189,1.8874,2.0613,2.1735,2.1739,2.1966,2.223,2.2518,2.2483,2.2511,2.2859,2.2893,2.2743,2.2314,2.2105,2.184,2.1475,2.1217,2.1109,2.1109,2.1001,2.0748,2.0224,1.976,1.9495,1.9401,1.9401,1.9401,1.9401,1.9401,1.9401,1.9388,1.8865,1.8624,1.8611,1.809,1.7862,1.7849,1.7582,1.7568,1.7689,1.7181,1.7275,1.7702,1.7515,1.7515,1.7582,1.7488,1.7515,1.7582,1.7488,1.7648,1.7862,1.7862,1.8196,1.889,2.0567,2.0871,2.1144,2.3538,2.2778,2.1075,2.0162,1.9867,1.9488,1.8401,1.8023,1.7929,1.8116,1.7862,1.7764,1.8269,1.8124,1.7935,1.7935,1.7713,1.751,1.7458,1.7461,1.7649,1.8223,1.8504,1.8664,1.8758,1.8799,1.8851,1.9052,1.9065,1.9158,1.9388,1.9401,1.9535,1.9786,1.98,1.9746,1.9639,1.984,1.984,1.9639,1.9746,1.9746,1.9639,1.9575,1.9736,2.008,2.0281,2.0535,2.0842,2.1136,2.1256,2.1256,2.1349,2.151,2.1729,2.1823,2.1984,2.2164,2.0429,2.1574,2.1988,2.2002,2.2232,2.2505,2.2844,2.2642,2.2511,2.2859,2.2893,2.2661,2.2082,2.2001,2.1776,2.1171,2.1109,2.1109,2.1109,2.0861,2.0534,2.0237,1.996,1.9666,1.9401,1.9401,1.9401,1.9401,1.9401,1.9401,1.9388,1.9065,1.889,1.8876,1.8624,1.849,1.8477,1.8156,1.7995,1.7969,1.7716,1.7769,1.7995,1.7995,1.8209,1.845,1.8129,1.8209,1.845,1.8129,1.8223,1.849,1.8518,1.9524,2.0978,2.2322,2.2802,2.3517,2.6275,2.6024,2.4333,2.1437,2.0414,1.9852,1.8741,1.849,1.849,1.849,1.849,1.849,1.849,1.8223,1.7995,1.7995,1.7796,1.7702,1.7955,1.7995,1.8236,1.8823,1.8903,1.9038,1.9361,1.9401,1.9401,1.9401,1.9401,1.9401,1.9401,1.9401,1.9535,1.98,1.9813,1.9947,2.021,2.021,2.021,2.0197,1.9947,1.996,2.0197,1.9933,2.012,2.0712,2.0712,2.0842,2.1136,2.1462,2.1582,2.1609,2.1903,2.1991,2.2031,2.2311,2.2385,2.2458,2.0969,2.176,2.2066,2.2232,2.2348,2.2508,2.2848,2.2632,2.2429,2.2545,2.2545,2.2395,2.2048,2.1819,2.1639,2.1461,2.1249,2.1109,2.1109,2.1032,2.0858,2.0565,2.0241,1.9959,1.9709,1.9666,1.9666,1.9666,1.9495,1.9401,1.9388,1.9065,1.889,1.8876,1.8624,1.849,1.8477,1.8397,1.8357,1.8343,1.8263,1.8277,1.8357,1.8357,1.841,1.8477,1.8397,1.8424,1.8477,1.8384,1.8424,1.8671,1.9702,2.0342,2.124,2.3958,2.4571,2.4877,2.7269,2.7175,2.5696,2.2828,2.2001,2.1375,1.9264,1.8637,1.8544,1.8758,1.8637,1.849,1.849,1.8424,1.8357,1.8357,1.8277,1.8317,1.8596,1.8636,1.8783,1.9185,1.9267,1.9294,1.9388,1.9401,1.9401,1.9401,1.9401,1.9481,1.9653,1.9666,1.9893,2.0431,2.0445,2.0548,2.0811,2.0641,2.0441,2.0197,2.0361,2.0347,2.0197,2.0117,2.0307,2.0712,2.0712,2.0842,2.1136,2.1462,2.1582,2.1609,2.1903,2.2111,2.2298,2.2392,2.2552,2.2773,2.1217,2.1891,2.2209,2.2379,2.2511,2.2661,2.2859,2.2743,2.2593,2.2593,2.2606,2.2504,2.2198,2.201,2.1868,2.176,2.1466,2.1249,2.1109,2.1109,2.0969,2.0721,2.0624,2.0372,1.9973,1.9973,1.9963,1.9956,1.9692,1.9555,1.9562,1.9239,1.9092,1.9092,1.8918,1.8866,1.8853,1.8718,1.8664,1.8651,1.8544,1.8557,1.8664,1.8664,1.8731,1.8853,1.8704,1.8731,1.8853,1.8704,1.8744,1.9106,2.0587,2.1457,2.2448,2.503,2.6029,2.6582,2.7931,2.7494,2.6075,2.3719,2.3008,2.2223,1.9665,1.8958,1.8891,1.9065,1.8958,1.8866,1.8866,1.8866,1.8866,1.8866,1.8866,1.8905,1.9078,1.9092,1.9172,1.9374,1.9401,1.9401,1.9401,1.9401,1.9441,1.9562,1.9562,1.9666,1.996,1.9973,2.0187,2.0686,2.0712,2.0815,2.1109,2.0935,2.0762,2.0544,2.0641,2.0641,2.0544,2.0454,2.0575,2.0842,2.0842,2.0949,2.1136,2.1462,2.1649,2.1783,2.2044,2.2338,2.2592,2.2592,2.2779,2.3033,2.1351,2.2058,2.2395,2.2429,2.2696,2.2893,2.2893,2.2893,2.2893,2.2859,2.2868,2.2723,2.2394,2.2362,2.2285,2.2034,2.1751,2.1466,2.1154,2.1109,2.1001,2.0753,2.0969,2.0824,2.029,2.0247,2.0227,2.0247,1.9961,1.9807,1.9786,1.9535,1.9401,1.9401,1.9401,1.9401,1.9374,1.9078,1.893,1.8916,1.8677,1.8731,1.893,1.893,1.9132,1.9361,1.9065,1.9132,1.9361,1.9052,1.9304,2.004,2.1358,2.2814,2.4294,2.5854,2.7249,2.8254,2.8147,2.7114,2.569,2.405,2.3347,2.2454,1.9955,1.9401,1.9401,1.9401,1.9401,1.9401,1.9428,1.9441,1.9441,1.9441,1.9441,1.9428,1.9401,1.9401,1.9401,1.9401,1.9401,1.9401,1.9401,1.9428,1.9548,1.9773,1.9826,1.996,2.0224,2.0237,2.0414,2.0739,2.0753,2.0842,2.1109,2.1109,2.1109,2.1109,2.0842,2.0855,2.1096,2.0842,2.0855,2.1109,2.1109,2.1109,2.1136,2.1489,2.1783,2.2017,2.2338,2.2619,2.2893,2.2893,2.3046,2.3212,2.2071,2.234,2.2477,2.2743,2.2859,2.2893,2.2893,2.2893,2.2812,2.2545,2.2517,2.2404,2.2129,2.2095,2.2062,2.2015,2.1754,2.1574,2.1511,2.1249,2.1077,2.1001,2.1077,2.1056,2.0922,2.0707,2.0587,2.0579,2.0056,1.9813,1.9786,1.9535,1.9401,1.9401,1.9401,1.9401,1.9388,1.9321,1.9294,1.9294,1.9227,1.9241,1.9294,1.9294,1.9348,1.9388,1.9321,1.9348,1.9388,1.9321,2.0873,2.2914,2.3207,2.4378,2.5909,2.7384,2.804,2.804,2.6879,2.6345,2.5496,2.3003,2.2331,2.1752,1.9821,1.9401,1.9401,1.9401,1.9401,1.9468,1.9666,1.9706,1.9706,1.9706,1.9706,1.9626,1.9428,1.9401,1.9401,1.9401,1.9401,1.9401,1.9401,1.9602,1.9733,1.98,1.9983,2.0237,2.0561,2.0575,2.0708,2.1002,2.1015,2.1042,2.1109,2.1109,2.1109,2.1109,2.1042,2.1042,2.1109,2.1042,2.1056,2.1109,2.1109,2.1109,2.1149,2.167,2.1957,2.2031,2.2599,2.284,2.2893,2.2893,2.2934,2.3027,2.2311,2.2545,2.2696,2.2859,2.2893,2.2893,2.2893,2.2893,2.2859,2.2661,2.2743,2.2743,2.2464,2.2545,2.2511,2.2232,2.2071,2.1854,2.1615,2.1434,2.1249,2.1109,2.1109,2.1109,2.1109,2.0969,2.0893,2.0893,2.0451,2.0155,1.997,1.9706,1.9535,1.9401,1.9401,1.9401,1.9401,1.9401,1.9401,1.9401,1.9401,1.9401,1.9401,1.9401,1.9401,1.9401,1.9401,1.9481,1.9692,2.0254,2.1075,2.1996,2.2567,2.3794,2.5288,2.6798,2.7249,2.7087,2.6318,2.5135,2.3808,2.2367,2.1583,2.0916,1.9978,1.9773,1.9773,1.9773,1.9773,1.9826,1.9943,1.997,1.997,1.997,1.997,1.9907,1.9613,1.9602,1.9548,1.9415,1.9522,1.9626,1.9773,1.992,2.0067,2.0214,2.0361,2.0575,2.0869,2.0882,2.0949,2.1109,2.1109,2.1109,2.1109,2.1109,2.1176,2.1355,2.1176,2.1109,2.1109,2.1256,2.1355,2.1355,2.1355,2.1355,2.1349,2.1689,2.189,2.2031,2.2472,2.2773,2.2893,2.2893,2.2987,2.314,2.2429,2.2709,2.2893,2.2893,2.2893,2.2893,2.2893,2.2893,2.2893,2.2893,2.3092,2.3159,2.2905,2.3096,2.301,2.2545,2.2429,2.2217,2.1767,2.1697,2.1543,2.1249,2.1264,2.1261,2.1261,2.1216,2.1154,2.1109,2.0826,2.0562,2.0264,1.996,1.9666,1.9468,1.9415,1.9401,1.9401,1.9401,1.9428,1.9468,1.9468,1.9495,1.9548,1.9548,1.9548,1.9548,1.9548,1.9843,2.0376,2.1047,2.0988,2.0776,2.1509,2.273,2.4144,2.5421,2.5779,2.5724,2.5476,2.3772,2.2052,2.1818,2.1024,2.029,2.0344,2.0277,2.0197,2.0197,2.0197,2.0224,2.0264,2.0277,2.0277,2.0277,2.0277,2.017,1.992,1.988,1.9786,1.9575,1.9733,1.9973,2.0184,2.025,2.0414,2.0686,2.0753,2.0882,2.1162,2.1189,2.1203,2.1256,2.1256,2.1256,2.1256,2.1256,2.1376,2.1662,2.1376,2.1256,2.1269,2.1542,2.1662,2.1662,2.1662,2.1636,2.1628,2.1689,2.185,2.2017,2.2365,2.2645,2.2907,2.296,2.314,2.3474,2.2709,2.2859,2.2893,2.2893,2.2893,2.2893,2.2893,2.2893,2.2893,2.2893,2.2928,2.2941,2.2895,2.2915,2.2928,2.2859,2.258,2.2364,2.2287,2.2081,2.1932,2.1868,2.1892,2.1896,2.1896,2.1662,2.1402,2.1109,2.0837,2.0676,2.0632,2.0054,1.9773,1.9733,1.9508,1.9401,1.9401,1.9401,1.9535,1.9746,1.9746,1.9893,2.009,2.009,2.009,2.009,2.009,2.0962,2.1919,2.0538,2.1803,2.3837,2.2734,2.3235,2.4272,2.4471,2.4556,2.4244,2.2912,2.2493,2.2185,2.1155,2.0759,2.0681,2.0935,2.057,2.0197,2.0197,2.0197,2.0277,2.0575,2.0615,2.0615,2.0615,2.0615,2.0508,2.0184,2.0144,2.013,2.009,2.0117,2.0157,2.0197,2.0468,2.0659,2.0699,2.0909,2.1176,2.1502,2.1529,2.1636,2.1857,2.1871,2.1871,2.1871,2.1871,2.1884,2.1957,2.1884,2.1871,2.1871,2.1943,2.1957,2.1957,2.1957,2.181,2.1622,2.2098,2.2178,2.2077,2.2626,2.2853,2.2934,2.3166,2.3447,2.3777,2.2777,2.2893,2.2893,2.2893,2.2893,2.2893,2.2893,2.2893,2.2893,2.2893,2.301,2.306,2.2914,2.2897,2.2893,2.2893,2.2743,2.2593,2.2395,2.2298,2.2161,2.2013,2.1996,2.2001,2.2001,2.1879,2.1764,2.1607,2.1149,2.0864,2.0699,2.0445,2.012,1.98,1.984,1.976,1.9626,1.9786,1.992,2.001,2.001,2.009,2.0197,2.0197,2.0197,2.0318,2.118,2.1504,2.1481,2.1351,2.1826,2.2314,2.1463,2.2171,2.3302,2.3302,2.3302,2.3156,2.2451,2.19,2.1352,2.0827,2.0802,2.0949,2.1082,2.0877,2.0691,2.0691,2.0691,2.0762,2.0895,2.0922,2.0922,2.0922,2.0922,2.0815,2.0521,2.0481,2.0481,2.0481,2.0481,2.0615,2.0935,2.1114,2.1261,2.139,2.1523,2.1657,2.1823,2.1823,2.189,2.201,2.1991,2.1991,2.1991,2.1991,2.2071,2.2231,2.2231,2.2138,2.2024,2.2151,2.2231,2.2231,2.2231,2.2151,2.2058,2.2311,2.2338,2.2271,2.2733,2.3,2.3153,2.346,2.3768,2.4048]},{"header":{"parameterUnit":"m.s-1","parameterCategory":1,"la1":30.6,"la2":28.766,"lo1":-90.7593,"lo2":-88.6598,"dy":0.0162,"dx":0.0183,"nx":116,"ny":114,"refTime":"2023-11-03T00:00:00:Z","depth":0,"parameterNumber":3,"parameterNumberName":"V-component_of_WINDS"},"data":[0.0,0.0,0.0,0.0,0.0,0.0,0.0,0.0,0.0,0.0,0.0,0.0,0.0,0.0,0.0,0.0,0.0,0.0,0.0,0.0,0.0,0.0,0.0,0.0,0.0,0.0,0.0,0.0,0.0,0.0,0.0,0.0,0.0,0.0,0.0,0.0,0.0,0.0,0.0,0.0,0.0,0.0,0.0,0.0,0.0,0.0,0.0,0.0,0.0,0.0,0.0,0.0,0.0,0.0,0.0,0.0,0.0,0.0,0.0,0.0,0.0,0.0,0.0,0.0,0.0,0.0,0.0,0.0,0.0,0.0,0.0,0.0,0.0,0.0,0.0,0.0,0.0,0.0,0.0,0.0,0.0,0.0,0.0,0.0,0.0,0.0,0.0,0.0,0.0,0.0,0.0,0.0,0.0,0.0,0.0,0.0,0.0,0.0,0.0,0.0,0.0,0.0,0.0,0.0,0.0,0.0,0.0,0.0,0.0,0.0,0.0,0.0,0.0,0.0,0.0,0.0,0.0,0.0,0.0,0.0,0.0,0.0,0.0,0.0,0.0,0.0,0.0,0.0,0.0,0.0,0.0,0.0,0.0,0.0,0.0,0.0,0.0,0.0,0.0,0.0,0.0,0.0,0.0,0.0,0.0,0.0,0.0,0.0,0.0,0.0,0.0,0.0,0.0,0.0,0.0,0.0,0.0,0.0,0.0,0.0,0.0,0.0,0.0,0.0,0.0,0.0,0.0,0.0,0.0,0.0,0.0,0.0,0.0,0.0,0.0,0.0,0.0,0.0,0.0,0.0,0.0,0.0,0.0,0.0,0.0,0.0,0.0,0.0,0.0,0.0,0.0,0.0,0.0,0.0,0.0,0.0,0.0,0.0,0.0,0.0,0.0,0.0,0.0,0.0,0.0,0.0,0.0,0.0,0.0,0.0,0.0,0.0,0.0,0.0,0.0,0.0,0.0,0.0,0.0,0.0,0.0,0.0,0.0,0.0,0.0,0.0,0.0,0.0,0.0,0.0,0.0,0.0,0.0,0.0,0.0,0.0,0.0,0.0,0.0,0.0,0.0,0.0,0.0,0.0,0.0,0.0,0.0,0.0,0.0,0.0,0.0,0.0,0.0,0.0,0.0,0.0,0.0,0.0,0.0,0.0,0.0,0.0,0.0,0.0,0.0,0.0,0.0,0.0,0.0,0.0,0.0,0.0,0.0,0.0,0.0,0.0,0.0,0.0,0.0,0.0,0.0,0.0,0.0,0.0,0.0,0.0,0.0,0.0,0.0,0.0,0.0,0.0,0.0,0.0,0.0,0.0,0.0,0.0,0.0,0.0,0.0,0.0,0.0,0.0,0.0,0.0,0.0,0.0,0.0,0.0,0.0,0.0,0.0,0.0,0.0,0.0,0.0,0.0,0.0,0.0,0.0,0.0,0.0,0.0,0.0,0.0,0.0,0.0,0.0,0.0,0.0,0.0,0.0,0.0,0.0,0.0,0.0,0.0,0.0,0.0,0.0,0.0,0.0,0.0,0.0,0.0,0.0,0.0,0.0,0.0,0.0,0.0,0.0,0.0,0.0,0.0,0.0,0.0,0.0,0.0,0.0,0.0,0.0,0.0,0.0,0.0,0.0,0.0,0.0,0.0,0.0,0.0,0.0,0.0,0.0,0.0,0.0,0.0,0.0,0.0,0.0,0.0,0.0,0.0,0.0,0.0,0.0,0.0,0.0,0.0,0.0,0.0,0.0,0.0,0.0,0.0,0.0,0.0,0.0,0.0,0.0,0.0,0.0,0.0,0.0,0.0,0.0,0.0,0.0,0.0,0.0,0.0,0.0,0.0,0.0,0.0,0.0,0.0,0.0,0.0,0.0,0.0,0.0,0.0,0.0,0.0,0.0,0.0,0.0,0.0,0.0,0.0,0.0,0.0,0.0,0.0,0.0,0.0,0.0,0.0,0.0,0.0,0.0,0.0,0.0,0.0,0.0,0.0,0.0,0.0,0.0,0.0,0.0,0.0,0.0,0.0,0.0,0.0,0.0,0.0,0.0,0.0,0.0,0.0,0.0,0.0,0.0,0.0,0.0,0.0,0.0,0.0,0.0,0.0,0.0,0.0,0.0,0.0,0.0,0.0,0.0,0.0,0.0,0.0,0.0,0.0,0.0,0.0,0.0,0.0,0.0,0.0,0.0,0.0,0.0,0.0,0.0,0.0,0.0,0.0,0.0,0.0,0.0,0.0,0.0,0.0,0.0,0.0,0.0,0.0,0.0,0.0,0.0,0.0,0.0,0.0,0.0,0.0,0.0,0.0,0.0,0.0,0.0,0.0,0.0,0.0,0.0,0.0,0.0,0.0,0.0,0.0,0.0,0.0,0.0,0.0,0.0,0.0,0.0,0.0,0.0,0.0,0.0,0.0,0.0,0.0,0.0,0.0,0.0,0.0,0.0,0.0,0.0,0.0,0.0,0.0,0.0,0.0,0.0,0.0,0.0,0.0,0.0,0.0,0.0,0.0,0.0,0.0,0.0,0.0,0.0,0.0,0.0,0.0,0.0,0.0,0.0,0.0,0.0,0.0,0.0,0.0,0.0,0.0,0.0,0.0,0.0,0.0,0.0,0.0,0.0,0.0,0.0,0.0,0.0,0.0,0.0,0.0,0.0,0.0,0.0,0.0,0.0,0.0,0.0,0.0,0.0,0.0,0.0,0.0,0.0,0.0,0.0,0.0,0.0,0.0,0.0,0.0,0.0,0.0,0.0,0.0,0.0,0.0,0.0,0.0,0.0,0.0,0.0,0.0,0.0,0.0,0.0,0.0,0.0,0.0,0.0,0.0,0.0,0.0,0.0,0.0,0.0,0.0,0.0,0.0,0.0,0.0,0.0,0.0,0.0,0.0,0.0,0.0,0.0,0.0,0.0,0.0,0.0,0.0,0.0,0.0,0.0,0.0,0.0,0.0,0.0,0.0,0.0,0.0,0.0,0.0,0.0,0.0,0.0,0.0,0.0,0.0,0.0,0.0,0.0,0.0,0.0,0.0,0.0,0.0,0.0,0.0,0.0,0.0,0.0,0.0,0.0,0.0,0.0,0.0,0.0,0.0,0.0,0.0,0.0,0.0,0.0,0.0,0.0,0.0,0.0,0.0,0.0,0.0,0.0,0.0,0.0,0.0,0.0,0.0,0.0,0.0,0.0,0.0,0.0,0.0,0.0,0.0,0.0,0.0,0.0,0.0,0.0,0.0,0.0,0.0,0.0,0.0,0.0,0.0,0.0,0.0,0.0,0.0,0.0,0.0,0.0,0.0,0.0,0.0,0.0,0.0,0.0,0.0,0.0,0.0,0.0,0.0,0.0,0.0,0.0,0.0,0.0,0.0,0.0,0.0,0.0,0.0,0.0,0.0,0.0,0.0,0.0,0.0,0.0,0.0,0.0,0.0,0.0,0.0,0.0,0.0,0.0,0.0,0.0,0.0,0.0,0.0,0.0,0.0,0.0,0.0,0.0,0.0,0.0,0.0,0.0,0.0,0.0,0.0,0.0,0.0,0.0,0.0,0.0,0.0,0.0,0.0,0.0,0.0,0.0,0.0,0.0,0.0,0.0,0.0,0.0,0.0,0.0,0.0,0.0,0.0,0.0,0.0,0.0,0.0,0.0,0.0,0.0,0.0,0.0,0.0,0.0,0.0,0.0,0.0,0.0,0.0,0.0,0.0,0.0,0.0,0.0,0.0,0.0,0.0,0.0,0.0,0.0,0.0,0.0,0.0,0.0,0.0,0.0,0.0,0.0,0.0,0.0,0.0,0.0,0.0,0.0,0.0,0.0,0.0,0.0,0.0,0.0,0.0,0.0,0.0,0.0,0.0,0.0,0.0,0.0,0.0,0.0,0.0,0.0,0.0,0.0,0.0,0.0,0.0,0.0,0.0,0.0,0.0,0.0,0.0,0.0,0.0,0.0,0.0,0.0,0.0,0.0,0.0,0.0,0.0,0.0,0.0,0.0,0.0,0.0,0.0,0.0,0.0,0.0,0.0,0.0,0.0,0.0,0.0,0.0,0.0,0.0,0.0,0.0,0.0,0.0,0.0,0.0,0.0,0.0,0.0,0.0,0.0,0.0,0.0,0.0,0.0,0.0,0.0,0.0,0.0,0.0,0.0,0.0,0.0,0.0,0.0,0.0,0.0,0.0,0.0,0.0,0.0,0.0,0.0,0.0,0.0,0.0,0.0,0.0,0.0,0.0,0.0,0.0,0.0,0.0,0.0,0.0,0.0,0.0,0.0,0.0,0.0,0.0,0.0,0.0,0.0,0.0,0.0,0.0,0.0,0.0,0.0,0.0,0.0,0.0,0.0,0.0,0.0,0.0,0.0,0.0,0.0,0.0,0.0,0.0,0.0,0.0,0.0,0.0,0.0,0.0,0.0,0.0,0.0,0.0,0.0,0.0,0.0,0.0,0.0,0.0,0.0,0.0,0.0,0.0,0.0,0.0,0.0,0.0,0.0,0.0,0.0,0.0,0.0,0.0,0.0,0.0,0.0,0.0,0.0,0.0,0.0,0.0,0.0,0.0,0.0,0.0,0.0,0.0,0.0,0.0,0.0,0.0,0.0,0.0,0.0,0.0,0.0,0.0,0.0,0.0,0.0,0.0,0.0,0.0,0.0,0.0,0.0,0.0,0.0,0.0,0.0,0.0,0.0,0.0,0.0,0.0,0.0,0.0,0.0,0.0,0.0,0.0,0.0,0.0,0.0,0.0,0.0,0.0,0.0,0.0,0.0,0.0,0.0,0.0,0.0,0.0,0.0,0.0,0.0,0.0,0.0,0.0,0.0,0.0,0.0,0.0,0.0,0.0,0.0,0.0,0.0,0.0,0.0,0.0,0.0,0.0,0.0,0.0,0.0,0.0,0.0,0.0,0.0,0.0,0.0,0.0,0.0,0.0,0.0,0.0,0.0,0.0,0.0,0.0,0.0,0.0,0.0,0.0,0.0,0.0,0.0,0.0,0.0,0.0,0.0,0.0,0.0,0.0,0.0,0.0,0.0,0.0,0.0,0.0,0.0,0.0,0.0,0.0,0.0,0.0,0.0,0.0,0.0,0.0,0.0,0.0,0.0,0.0,0.0,0.0,0.0,0.0,0.0,0.0,0.0,0.0,0.0,0.0,0.0,0.0,0.0,0.0,0.0,0.0,0.0,0.0,0.0,0.0,0.0,0.0,0.0,0.0,0.0,0.0,0.0,0.0,0.0,0.0,0.0,0.0,0.0,0.0,0.0,0.0,0.0,0.0,0.0,0.0,0.0,0.0,0.0,0.0,0.0,0.0,0.0,0.0,0.0,0.0,0.0,0.0,0.0,0.0,0.0,0.0,0.0,0.0,0.0,0.0,0.0,0.0,0.0,0.0,0.0,0.0,0.0,0.0,0.0,0.0,0.0,0.0,0.0,0.0,0.0,0.0,0.0,0.0,0.0,0.0,0.0,0.0,0.0,0.0,0.0,0.0,0.0,0.0,0.0,0.0,0.0,0.0,0.0,0.0,0.0,0.0,0.0,0.0,0.0,0.0,0.0,0.0,0.0,0.0,0.0,0.0,0.0,0.0,0.0,0.0,0.0,0.0,0.0,0.0,0.0,0.0,0.0,0.0,0.0,0.0,0.0,0.0,0.0,0.0,0.0,0.0,0.0,0.0,0.0,0.0,0.0,0.0,0.0,0.0,0.0,0.0,0.0,0.0,0.0,0.0,0.0,0.0,0.0,0.0,0.0,0.0,0.0,0.0,0.0,0.0,0.0,0.0,0.0,0.0,0.0,0.0,0.0,0.0,0.0,0.0,0.0,0.0,0.0,0.0,0.0,0.0,0.0,0.0,0.0,0.0,0.0,0.0,0.0,0.0,0.0,0.0,0.0,0.0,0.0,0.0,0.0,0.0,0.0,0.0,0.0,0.0,0.0,0.0,0.0,0.0,0.0,0.0,0.0,0.0,0.0,0.0,0.0,0.0,0.0,0.0,0.0,0.0,0.0,0.0,0.0,0.0,0.0,0.0,0.0,0.0,0.0,0.0,0.0,0.0,0.0,0.0,0.0,0.0,0.0,0.0,0.0,0.0,0.0,0.0,0.0,0.0,0.0,1.7019,1.6268,0.0,0.0,0.0,0.0,0.0,0.0,0.0,0.0,0.0,0.0,0.0,0.0,0.0,0.0,0.0,0.0,0.0,0.0,0.0,0.0,0.0,0.0,0.0,0.0,0.0,0.0,0.0,0.0,0.0,0.0,0.0,0.0,0.0,0.0,0.0,0.0,0.0,0.0,2.0296,2.0242,2.1151,2.2312,2.1748,1.9768,0.0,0.0,0.0,0.0,0.0,0.0,0.0,0.0,0.0,0.0,0.0,0.0,0.0,0.0,0.0,0.0,0.0,0.0,0.0,0.0,0.0,0.0,0.0,0.0,0.0,0.0,0.0,0.0,0.0,0.0,0.0,0.0,0.0,0.0,0.0,0.0,0.0,0.0,0.0,0.0,0.0,0.0,0.0,0.0,0.0,0.0,0.0,0.0,0.0,0.0,0.0,0.0,0.0,0.0,0.0,0.0,0.0,0.0,0.0,0.0,0.0,0.0,0.0,0.0,0.0,0.0,0.0,0.0,0.0,0.0,1.9921,1.829,0.0,0.0,0.0,0.0,0.0,0.0,0.0,0.0,0.0,0.0,0.0,0.0,0.0,0.0,0.0,0.0,0.0,0.0,0.0,0.0,0.0,0.0,0.0,0.0,1.5033,1.5231,1.5886,1.6695,0.0,0.0,0.0,0.0,0.0,0.0,0.0,0.0,0.0,0.0,2.1659,2.2185,2.4006,2.6383,2.5698,2.2493,2.2865,0.0,0.0,0.0,0.0,0.0,0.0,0.0,0.0,0.0,0.0,0.0,0.0,0.0,0.0,0.0,0.0,0.0,0.0,0.0,0.0,0.0,0.0,0.0,0.0,0.0,0.0,0.0,0.0,0.0,0.0,0.0,0.0,0.0,0.0,0.0,0.0,0.0,0.0,0.0,0.0,0.0,0.0,0.0,0.0,0.0,0.0,0.0,0.0,0.0,0.0,0.0,0.0,0.0,0.0,0.0,0.0,0.0,0.0,0.0,0.0,0.0,0.0,0.0,2.6914,2.7526,2.7681,2.7816,2.7469,2.6624,2.4191,2.1862,1.9711,1.9115,0.0,0.0,0.0,0.0,0.0,0.0,0.0,0.0,0.0,0.0,0.0,0.0,0.0,0.0,0.0,0.0,0.0,0.0,0.0,0.0,0.0,1.6098,1.6497,1.7782,1.8142,1.8631,0.0,0.0,0.0,0.0,0.0,0.0,0.0,2.1015,2.152,2.1744,2.4545,2.6797,2.8484,3.027,3.0835,3.0142,2.6601,2.576,2.6814,0.0,0.0,0.0,0.0,0.0,0.0,0.0,0.0,0.0,0.0,0.0,0.0,0.0,0.0,0.0,0.0,0.0,0.0,0.0,0.0,0.0,0.0,0.0,0.0,0.0,0.0,0.0,0.0,0.0,0.0,0.0,0.0,0.0,0.0,0.0,0.0,0.0,0.0,0.0,0.0,0.0,1.8612,1.8612,0.0,0.0,0.0,0.0,0.0,0.0,0.0,0.0,0.0,0.0,0.0,0.0,0.0,2.4487,2.5541,2.7693,2.8672,2.8507,3.1165,3.2131,3.1582,3.2205,3.2104,3.1403,3.103,0.0,2.2697,2.1007,0.0,0.0,0.0,0.0,0.0,0.0,0.0,0.0,0.0,0.0,0.0,0.0,0.0,0.0,0.0,0.0,0.0,0.0,0.0,0.0,0.0,1.8164,1.8827,2.0052,2.1589,2.2021,2.0787,2.1741,0.0,0.0,0.0,0.0,2.0309,2.1679,2.329,2.5126,2.9556,3.1556,3.1368,3.3065,3.3873,3.3768,3.1434,2.9524,2.7889,2.5547,0.0,0.0,0.0,0.0,0.0,0.0,0.0,0.0,0.0,0.0,0.0,0.0,0.0,0.0,0.0,0.0,0.0,0.0,0.0,0.0,0.0,0.0,0.0,0.0,0.0,0.0,0.0,0.0,0.0,0.0,0.0,0.0,0.0,0.0,0.0,0.0,0.0,0.0,0.0,2.0513,2.1116,2.0276,2.1211,2.1164,0.0,0.0,0.0,0.0,0.0,0.0,0.0,0.0,0.0,2.6924,2.8638,2.9971,3.0858,3.312,3.4548,3.5143,3.6503,3.7172,3.7175,3.6729,3.6366,3.6005,3.4709,3.2442,2.9345,2.5806,2.3786,2.2695,0.0,0.0,0.0,0.0,2.0156,2.0311,0.0,0.0,0.0,0.0,0.0,0.0,0.0,0.0,0.0,0.0,0.0,0.0,1.9572,2.0513,2.1557,2.2958,2.4742,2.496,2.3,2.3271,0.0,0.0,0.0,2.06,2.0974,2.3319,2.6387,3.0153,3.4157,3.5696,3.4895,3.6388,3.7,3.6738,3.6145,3.3966,3.0528,2.8366,2.6249,2.4148,0.0,0.0,0.0,0.0,0.0,0.0,0.0,0.0,0.0,0.0,0.0,0.0,0.0,0.0,0.0,0.0,0.0,0.0,0.0,0.0,0.0,0.0,0.0,0.0,0.0,0.0,0.0,0.0,0.0,0.0,0.0,0.0,0.0,0.0,0.0,0.0,0.0,2.3232,2.3646,2.2391,2.3947,2.3985,0.0,0.0,0.0,0.0,0.0,0.0,2.8167,2.9704,3.1017,3.2173,3.4243,3.5675,3.6421,3.8105,3.9548,4.0726,4.0803,4.1206,4.1765,4.0429,3.9693,3.9387,3.7362,3.596,3.4731,2.9969,2.7305,2.6047,2.442,2.3836,2.3885,2.3782,2.3722,2.3819,0.0,0.0,0.0,0.0,0.0,0.0,0.0,0.0,0.0,0.0,0.0,1.7801,2.1692,2.3081,2.4689,2.7065,2.6878,2.6597,2.6554,2.3514,2.2081,2.2815,2.1276,2.113,2.2743,2.6746,3.1258,3.6241,3.7353,3.8627,4.0131,4.1046,4.1046,4.0246,4.0215,3.9251,3.7339,3.1652,3.0089,3.0974,0.0,0.0,0.0,0.0,0.0,0.0,0.0,0.0,0.0,0.0,0.0,0.0,0.0,0.0,0.0,0.0,0.0,0.0,0.0,0.0,0.0,0.0,0.0,0.0,0.0,0.0,0.0,0.0,0.0,0.0,0.0,0.0,0.0,0.0,0.0,0.0,0.0,0.0,0.0,2.5149,2.7843,0.0,0.0,0.0,0.0,2.8509,2.9025,3.0639,3.3812,3.5406,3.7131,3.9226,4.0079,4.0902,4.1632,4.1728,4.2189,4.2945,4.2949,4.3317,4.3981,4.2661,4.1614,4.0828,3.9445,3.8002,3.631,3.1813,2.9657,2.9049,2.7557,2.7168,2.7375,2.6724,2.6445,2.6339,0.0,0.0,0.0,0.0,0.0,0.0,0.0,0.0,1.6231,1.6976,1.9195,2.1683,2.4334,2.7226,2.9658,3.1393,3.1918,3.1327,2.932,2.7063,2.5898,2.6203,2.4609,2.5733,3.0125,3.221,3.5161,3.9165,4.0008,4.0735,4.1316,4.1085,4.1085,4.1316,4.0743,4.0515,4.0205,3.5443,3.2218,2.9974,2.6517,2.4587,0.0,0.0,0.0,0.0,0.0,0.0,0.0,0.0,0.0,0.0,0.0,0.0,0.0,0.0,0.0,0.0,0.0,0.0,0.0,0.0,0.0,0.0,0.0,0.0,0.0,0.0,0.0,0.0,0.0,0.0,0.0,0.0,0.0,0.0,0.0,0.0,0.0,3.1545,3.3979,0.0,3.0635,3.1365,3.251,3.3609,3.4791,3.6788,3.9914,4.1015,4.2129,4.3376,4.4125,4.4376,4.4141,4.4604,4.5185,4.5853,4.5412,4.5305,4.5455,4.4572,4.3302,4.1648,4.071,3.9234,3.7381,3.5791,3.4148,3.254,3.1136,3.0672,3.0707,3.0085,2.9847,2.9726,0.0,0.0,0.0,0.0,0.0,0.0,0.0,0.0,1.6636,1.7633,2.0871,2.4205,2.7056,3.0522,3.3301,3.4955,3.5132,3.4141,3.177,2.963,2.8315,2.7936,2.734,2.9423,3.4449,3.601,3.843,4.1781,4.2085,4.2389,4.262,4.1781,4.17,4.2196,4.1627,4.17,4.2063,3.9381,3.564,3.1326,2.906,2.7837,2.6971,0.0,0.0,0.0,0.0,0.0,0.0,0.0,0.0,0.0,0.0,0.0,0.0,0.0,0.0,0.0,0.0,0.0,0.0,0.0,0.0,0.0,0.0,0.0,0.0,0.0,0.0,0.0,0.0,0.0,0.0,0.0,0.0,0.0,0.0,3.3996,3.5789,3.6463,3.8936,3.9387,3.6361,3.7211,3.8391,3.9342,4.0133,4.1905,4.49,4.5512,4.6115,4.678,4.7287,4.7157,4.6309,4.6815,4.7252,4.7705,4.7241,4.7,4.6876,4.6036,4.4696,4.3053,4.2087,4.0583,3.8837,3.8607,3.7513,3.5808,3.4745,3.3994,3.3538,3.3381,3.3036,3.2514,0.0,0.0,0.0,0.0,0.0,0.0,0.0,1.5725,1.6716,1.8109,2.122,2.5046,2.9707,3.2745,3.5373,3.7743,3.6119,3.464,3.3918,3.0915,2.8755,2.7945,2.95,3.1966,3.5327,3.8031,4.105,4.4355,4.3547,4.3547,4.4278,4.347,4.3124,4.3162,4.3162,4.3162,4.3213,4.3245,4.0472,3.5844,3.4065,3.332,3.2828,0.0,0.0,0.0,0.0,0.0,0.0,0.0,0.0,0.0,0.0,0.0,0.0,0.0,0.0,0.0,0.0,0.0,0.0,0.0,0.0,0.0,0.0,0.0,0.0,0.0,0.0,0.0,0.0,0.0,0.0,0.0,0.0,0.0,3.4968,3.7483,3.9282,3.9652,4.255,4.3397,4.0513,4.2206,4.4082,4.5559,4.4955,4.5817,4.8692,4.8822,4.9128,4.9676,4.9676,4.9226,4.8362,4.8306,4.8296,4.8296,4.8296,4.8296,4.8213,4.6937,4.5915,4.5043,4.3668,4.2204,4.0698,4.0136,3.9451,3.8655,3.8114,3.6997,3.578,3.6547,3.5894,3.4553,0.0,0.0,0.0,0.0,0.0,0.0,0.0,1.6189,1.7355,1.8324,2.3645,2.8119,2.9989,3.4562,3.7826,3.8718,3.6103,3.4781,3.5626,3.0699,2.9098,3.2068,3.4933,3.8134,4.1699,4.1945,4.3089,4.5244,4.4397,4.4085,4.4278,4.347,4.3739,4.4898,4.4244,4.4662,4.5817,4.5188,4.4186,4.2628,3.7872,3.5258,3.3747,0.0,0.0,0.0,0.0,0.0,0.0,0.0,0.0,0.0,0.0,0.0,0.0,0.0,0.0,0.0,0.0,0.0,0.0,0.0,0.0,0.0,0.0,0.0,0.0,0.0,0.0,0.0,0.0,0.0,0.0,0.0,3.8197,4.0268,3.9508,4.1545,4.3797,4.5654,4.7969,4.8901,4.7515,4.8719,4.9521,4.9355,4.9691,5.0508,5.1875,5.1959,5.2047,5.2194,5.1354,5.0498,4.969,4.8753,4.8296,4.8296,4.8296,4.8003,4.7443,4.7648,4.6792,4.509,4.5307,4.3948,4.1601,4.1986,4.1039,3.9275,3.8265,3.764,3.7302,3.7516,3.6652,3.5243,0.0,0.0,0.0,0.0,0.0,0.0,0.0,1.6378,1.7825,1.9251,2.5027,2.9684,3.1525,3.5275,3.7757,3.7919,3.5783,3.4142,3.351,3.0733,3.128,3.6102,3.8523,4.1279,4.4614,4.4696,4.5316,4.6667,4.5817,4.5547,4.5855,4.5086,4.5393,4.6629,4.6124,4.6471,4.7389,4.724,4.7041,4.6449,4.3037,4.093,3.9379,3.5207,3.4336,3.4772,3.0585,3.0341,3.1468,2.8304,0.0,0.0,0.0,0.0,0.0,0.0,0.0,0.0,0.0,0.0,0.0,0.0,0.0,0.0,0.0,0.0,0.0,0.0,0.0,0.0,0.0,0.0,0.0,0.0,4.2782,4.5169,4.5579,4.6573,4.7897,4.9629,5.1203,5.1953,5.1519,5.2082,5.2447,5.2379,5.2455,5.2855,5.37,5.3737,5.3586,5.3217,5.2535,5.1673,5.0701,4.9638,4.9011,4.882,4.8489,4.8076,4.7636,4.8076,4.7456,4.5952,4.6415,4.5467,4.3588,4.3786,4.2915,4.1262,0.0,0.0,0.0,0.0,3.6685,3.5535,0.0,0.0,0.0,0.0,0.0,0.0,0.0,1.6309,1.8099,2.0306,2.5353,2.9867,3.2816,3.4761,3.5973,3.6156,3.5124,3.3221,3.0271,3.1624,3.4807,3.9802,4.0884,4.2672,4.5467,4.6532,4.7389,4.8082,4.7389,4.7389,4.8082,4.7351,4.7505,4.8394,4.8394,4.8505,4.8735,4.951,4.9394,4.8697,4.8697,4.8079,4.6659,4.196,4.1105,4.1747,3.6859,3.4694,3.391,3.1903,0.0,0.0,0.0,0.0,0.0,0.0,0.0,0.0,0.0,0.0,0.0,0.0,0.0,0.0,0.0,0.0,0.0,0.0,0.0,0.0,0.0,0.0,0.0,0.0,4.6215,4.8887,5.1959,5.1815,5.1597,5.2213,5.3044,5.352,5.3422,5.3445,5.3808,5.4587,5.3914,5.38,5.4587,5.4625,0.0,0.0,0.0,5.27,5.1565,5.0641,4.996,4.9505,4.8702,4.8296,4.8296,4.8296,4.7893,4.7223,4.7223,4.6792,4.5993,4.544,4.4663,4.3727,4.2347,4.0686,3.8905,3.7706,3.6797,3.6173,0.0,0.0,0.0,0.0,0.0,0.0,0.0,1.6394,1.7908,1.9663,2.4067,2.7561,2.882,3.1568,3.383,3.5151,3.3883,3.3389,3.4356,3.6167,3.8666,4.197,4.3568,4.5352,4.7487,4.7755,4.7928,4.8082,4.7928,4.7966,4.8082,4.7928,4.8702,5.0207,5.0207,5.0933,5.2236,5.239,5.2351,5.2197,5.2197,5.0152,4.6797,4.4426,4.3849,4.3788,3.9991,3.9878,4.0963,3.7137,3.5584,3.4763,3.1998,0.0,0.0,0.0,0.0,0.0,0.0,0.0,0.0,0.0,0.0,0.0,0.0,0.0,0.0,0.0,0.0,0.0,0.0,0.0,0.0,4.7501,5.0389,5.2719,5.4703,5.4862,5.4549,5.4087,5.5063,5.5521,5.4784,5.5039,5.5305,5.5458,5.5305,5.5305,5.5458,5.5458,5.5381,5.5234,5.4263,5.3324,5.2382,5.0917,4.9829,4.9039,4.8532,0.0,4.8296,4.8296,4.8223,4.8076,4.8076,4.7599,4.6819,4.6048,4.4876,4.3469,4.2277,4.1534,4.1085,4.0282,3.9863,3.9627,0.0,0.0,0.0,0.0,0.0,0.0,0.0,1.6404,1.7882,1.9476,2.302,2.5878,2.7053,2.8626,2.9763,3.0167,2.9837,3.1544,3.6092,3.7989,4.0963,4.5583,4.6986,4.8586,5.0615,5.0659,5.0659,5.0659,5.0659,5.0428,5.0005,5.0005,5.0466,5.1318,5.1318,5.201,5.3236,5.3664,5.3587,5.3236,5.3664,5.2339,4.9933,4.8292,4.7755,4.7464,4.4052,4.3746,4.4404,4.0918,3.9458,3.8497,3.5365,3.2024,2.8661,0.0,0.0,0.0,0.0,0.0,0.0,0.0,0.0,0.0,0.0,0.0,0.0,0.0,0.0,3.8557,0.0,0.0,4.8505,5.2,5.3626,5.4895,5.617,5.6362,5.6021,5.5192,5.5651,5.5865,5.5443,5.5582,5.5708,5.5708,5.5708,5.5708,5.5708,5.5708,5.5708,5.5708,5.4725,5.3878,5.3213,5.1571,5.0333,4.9494,4.8896,4.8467,4.8296,4.8296,4.8296,4.8296,4.8296,4.8076,4.7636,4.6828,4.6021,4.5205,4.4218,4.3214,4.22,4.1563,4.1054,4.0649,0.0,0.0,0.0,0.0,0.0,0.0,0.0,1.6394,1.7798,1.9223,2.1943,2.4231,2.5548,2.58,2.5841,2.5668,2.6943,3.0601,3.7256,3.9361,4.3,4.8996,5.0176,5.1491,5.3159,5.3197,5.3197,5.3197,5.3197,5.2851,5.2159,5.2159,5.2236,5.2428,5.2428,5.289,5.3741,5.4434,5.4318,5.3741,5.4434,5.4311,5.3567,5.1926,5.1289,5.0814,4.7513,4.6108,4.5469,4.3164,4.156,4.0064,3.7446,3.5253,3.2889,2.9128,2.7483,0.0,0.0,0.0,0.0,0.0,0.0,0.0,0.0,0.0,3.5978,3.8293,4.1808,4.5325,4.8385,5.1012,5.3364,5.5411,5.5861,5.6132,5.667,5.6747,5.6478,5.5785,5.5862,5.5901,5.5708,5.5708,5.5708,5.5708,5.5708,5.5708,5.5708,5.5708,5.5708,5.5708,5.4934,5.4243,5.3709,5.2094,5.0865,4.9986,4.9247,4.8674,4.8296,4.8296,4.8296,4.8306,4.8364,4.8477,4.8495,4.7849,4.7369,4.7065,4.6652,4.5352,4.3659,4.2929,4.221,4.1489,0.0,0.0,0.0,0.0,0.0,0.0,0.0,0.0,1.7586,1.8366,2.0561,2.2143,2.2326,2.2978,2.4217,2.6277,2.9794,3.4074,3.9169,4.2386,4.6004,5.0312,5.2013,5.2941,5.3197,5.3197,5.3197,5.3197,5.3197,5.3159,5.3044,5.3044,5.3472,5.4203,5.4203,5.4664,5.5439,5.5516,5.5516,5.5439,5.5516,5.5577,5.5422,5.3735,5.2696,5.1704,4.828,4.5756,4.3828,4.2773,4.082,3.8905,3.9199,3.7591,3.516,3.3032,0.0,2.7888,2.8133,2.8342,2.9122,3.1999,3.2061,3.3483,0.0,0.0,4.2193,4.6171,4.8669,5.0512,5.168,5.3919,5.5648,5.592,5.6459,5.6632,5.5939,5.5862,5.5824,5.5708,5.6362,5.6555,5.5785,5.5708,5.5708,5.5708,5.5708,5.5708,5.5708,5.5708,5.5708,5.5708,5.4934,5.411,5.3266,5.1947,5.0734,4.9574,4.9105,4.8674,4.8296,4.8296,4.8296,4.8325,4.8665,4.9059,4.9431,4.9311,4.8407,4.7196,4.8186,4.8004,4.7028,4.5883,4.4967,4.4236,0.0,0.0,0.0,0.0,0.0,0.0,0.0,0.0,0.0,1.7494,1.8782,1.9826,2.0307,2.0734,2.1606,2.3114,2.7775,3.2601,3.723,4.245,4.7326,5.161,5.3201,5.4164,5.4626,5.4664,5.4664,5.4664,5.4664,5.4434,5.3972,5.3972,5.4164,5.4511,5.4511,5.4934,5.5708,5.5708,5.5708,5.5719,5.5798,5.5561,5.499,5.2809,5.0949,4.914,4.6686,4.4261,0.0,0.0,3.9492,3.8633,3.8942,3.7253,3.4888,3.3558,3.1715,0.0,3.2837,3.3789,0.0,0.0,3.9462,4.1554,4.5492,4.686,4.8071,5.0822,5.2806,5.4473,5.5836,5.7246,5.8229,0.0,5.7974,5.7627,5.7242,5.5934,5.4818,5.4318,5.4587,5.5011,5.5631,5.5708,5.5708,5.5708,5.5708,5.5708,5.5708,5.5708,5.5708,5.5708,5.4434,5.3818,5.3972,5.2434,5.1535,5.1291,5.1147,5.0832,5.0455,5.0455,5.0455,5.0464,5.0652,5.056,5.0302,5.028,4.9556,4.856,4.9055,4.9024,4.8579,4.7119,4.6094,4.5333,0.0,0.0,0.0,0.0,0.0,0.0,0.0,0.0,0.0,0.0,1.7757,1.8497,1.936,1.9545,1.9945,2.0773,2.5412,3.0246,3.4919,4.1122,4.6832,5.1718,5.3338,5.4626,5.567,5.5708,5.5708,5.5708,5.5708,5.5401,5.4818,5.4818,5.4818,5.4818,5.4818,5.5164,5.5708,5.5708,5.5712,5.5755,5.5617,5.4967,5.3777,5.077,4.7834,4.5089,4.3554,4.1159,0.0,0.0,3.609,3.5816,3.6558,3.5452,3.3893,3.3869,3.3658,3.3919,3.6148,0.0,0.0,4.2121,4.5137,4.7717,4.8524,5.0348,5.2343,5.4015,5.5565,5.7,5.8206,5.8975,5.9456,5.9456,5.8587,5.7934,5.7934,5.5742,5.401,5.3626,5.2933,5.3164,5.4857,5.5247,5.5478,5.567,5.5708,5.5708,5.5708,5.5708,5.5708,5.5708,5.4318,5.3857,5.4472,5.3005,5.2374,5.2584,5.2584,5.237,5.2016,5.2016,5.2189,5.2511,5.2283,5.203,5.1771,5.1308,5.0725,5.0136,4.9807,4.9652,4.9485,4.8121,4.7076,4.6293,0.0,0.0,0.0,0.0,0.0,0.0,0.0,0.0,0.0,0.0,0.0,0.0,0.0,1.9654,1.9995,2.0904,2.4076,2.8123,3.3157,3.8479,4.4074,5.0004,5.2198,5.401,5.567,5.5708,5.5708,5.5708,5.5708,5.5708,5.567,5.567,5.567,5.567,5.567,5.567,5.5708,5.5708,5.5779,5.583,5.5048,5.3862,5.2081,4.786,4.3656,3.9917,3.8859,0.0,0.0,3.125,2.9827,2.8841,3.1386,3.2127,0.0,3.4855,3.6621,3.7683,3.7048,0.0,4.2322,4.4162,4.6594,4.9192,5.1674,5.2997,5.4215,5.5961,5.7013,5.7677,5.7716,5.8153,5.8531,5.8531,5.7709,5.7055,5.7055,5.4857,5.3549,5.4357,5.2284,5.1438,0.0,5.4049,5.4857,5.5631,5.5708,5.5708,5.5708,5.5708,5.5708,5.5708,5.4895,5.4472,5.4511,5.3626,5.2955,5.2584,5.2584,5.237,5.2016,5.2016,5.2667,5.3792,5.2953,5.3277,5.4259,5.2556,5.1864,5.1724,5.0524,5.0099,4.9981,4.9149,4.8348,4.7574,0.0,0.0,0.0,0.0,0.0,0.0,0.0,0.0,0.0,0.0,0.0,0.0,0.0,0.0,0.0,0.0,2.3329,2.642,2.9175,3.5822,4.102,4.4102,4.8373,5.1202,5.2361,5.2895,5.3741,5.4895,5.4895,5.517,5.5708,5.5708,5.5708,5.5708,5.5708,5.5768,5.5843,5.5843,5.4913,5.3491,5.3319,5.1561,4.8695,4.4996,4.0936,3.6706,0.0,0.0,2.8514,2.7602,2.693,2.6693,2.8142,2.8177,2.8392,3.2071,3.5916,3.9445,4.152,0.0,4.696,4.9349,5.0998,5.2603,5.4704,5.5358,5.5538,5.5543,5.5233,5.4806,5.4268,5.4699,5.5296,5.5878,5.6054,5.6324,5.6907,5.5285,5.3549,5.213,5.1702,0.0,0.0,0.0,0.0,5.478,5.4895,5.5131,5.567,5.5708,5.5708,5.5708,5.4934,5.4741,5.5285,5.4472,5.4276,5.4649,5.4649,5.4597,5.4464,5.4464,5.4709,5.5071,5.4764,5.4584,5.4395,5.3236,5.2428,5.1803,5.0876,5.0493,5.0446,4.9904,4.9504,4.9084,0.0,0.0,0.0,0.0,0.0,0.0,0.0,0.0,0.0,0.0,0.0,0.0,0.0,0.0,0.0,0.0,0.0,2.4435,2.6302,3.1701,3.6064,3.887,4.249,4.524,4.7018,4.7278,4.8394,5.0433,5.0433,5.1164,5.2549,5.2549,5.2743,5.3041,5.3041,5.3129,5.3236,5.3236,5.2009,4.9999,4.9171,4.6787,4.3337,3.9255,3.5449,0.0,0.0,0.0,2.4448,2.3899,2.4089,2.4746,2.5607,2.7137,2.9216,3.2329,3.6856,4.1716,4.5551,4.8274,5.0675,5.3378,5.4635,5.5498,5.6406,5.6003,5.515,5.3989,5.266,5.1458,5.0656,5.0549,5.1281,5.3361,5.3562,5.417,5.6247,5.4818,5.3203,5.2169,5.1702,5.1279,0.0,0.0,0.0,5.4357,5.478,5.5164,5.567,5.5708,5.5708,5.5708,5.5208,5.517,5.5708,5.5208,5.5208,5.5708,5.5708,5.5708,5.5708,5.5708,5.5708,5.5708,5.5708,5.5401,5.4857,5.401,5.3159,5.2274,5.1433,5.0938,5.0639,5.023,4.9999,4.9665,0.0,0.0,0.0,0.0,0.0,0.0,0.0,0.0,0.0,0.0,0.0,0.0,0.0,0.0,0.0,0.0,0.0,0.0,2.4511,2.6429,2.9598,3.4289,3.5005,3.6811,4.0054,3.9396,4.0281,4.2777,4.2777,4.4047,4.6428,4.6428,4.6917,4.778,4.778,4.7834,4.7888,4.7888,4.6952,4.5289,4.2827,3.9859,3.6406,3.1358,0.0,0.0,0.0,0.0,2.0302,2.0462,2.1696,2.3357,2.4258,2.9107,3.466,3.5802,3.9762,4.4664,4.9094,5.1579,5.3539,5.6054,5.7305,5.7656,5.664,5.4949,5.3086,5.1257,4.9285,4.763,0.0,0.0,4.686,5.0928,5.051,5.1087,5.5208,5.3736,5.2813,0.0,0.0,0.0,0.0,0.0,0.0,5.4511,5.5285,5.5708,5.5747,5.5785,5.5747,5.5708,5.5708,5.5708,5.5708,5.5708,5.5708,5.5708,5.5708,5.5708,5.5708,5.5708,5.5708,5.5708,5.5708,5.5708,5.5631,5.4818,5.401,5.3159,5.2313,5.1471,5.0716,5.0306,4.991,4.9467,0.0,0.0,0.0,0.0,0.0,0.0,0.0,0.0,0.0,0.0,0.0,0.0,0.0,0.0,0.0,0.0,0.0,0.0,2.1383,2.4252,2.6447,2.7726,3.0934,3.3353,3.4818,3.5279,3.6434,3.8311,3.8311,3.9004,4.0277,4.0277,4.0422,4.0688,4.0688,4.0795,4.0937,4.0937,3.9669,3.7534,0.0,3.4882,3.2177,0.0,0.0,0.0,0.0,0.0,0.0,0.0,0.0,0.0,0.0,3.3754,3.7899,4.149,4.5731,4.9952,5.308,5.5702,5.7538,5.7578,5.7734,5.7148,5.4285,5.2172,4.9798,4.6108,4.3823,4.1846,0.0,0.0,0.0,4.6937,5.0587,0.0,5.6324,5.6665,0.0,5.5511,0.0,5.5054,5.4241,5.4511,0.0,5.6285,5.5939,5.5978,5.6632,5.667,5.6362,5.5708,5.5708,5.5708,5.5708,5.5708,5.5708,5.5708,5.5708,5.5708,5.5708,5.5708,5.5708,5.5708,5.5708,5.5708,5.5631,5.4818,5.4357,5.4087,5.3197,5.2351,5.1552,5.1153,5.0564,4.9859,0.0,0.0,0.0,0.0,0.0,0.0,0.0,0.0,0.0,0.0,0.0,0.0,0.0,0.0,0.0,0.0,0.0,0.0,0.0,2.1997,2.3184,2.3613,2.5618,2.7233,2.8431,2.8931,3.0029,3.1722,3.2107,3.2937,3.4171,3.4174,3.4432,3.4844,3.4844,3.4945,3.5129,3.5099,0.0,0.0,0.0,0.0,0.0,0.0,0.0,0.0,0.0,0.0,0.0,0.0,0.0,3.3233,3.6115,3.9127,4.243,4.6526,0.0,5.3574,5.6288,5.8633,5.9961,5.8664,5.7804,5.6121,5.1823,4.8818,4.5609,4.0925,3.8771,0.0,3.5353,3.8584,0.0,0.0,0.0,0.0,5.6055,5.717,5.7511,0.0,5.728,0.0,5.6242,5.6588,5.7203,5.8017,5.6978,5.6632,5.7517,5.7555,5.7357,5.6857,5.6857,5.6665,5.6285,5.5901,5.5708,5.5708,5.5708,5.5708,5.5708,5.5708,5.5708,5.5708,5.5708,5.5708,5.567,5.5208,5.4818,5.4434,5.3972,5.3119,5.2169,5.1966,5.136,5.0545,0.0,0.0,0.0,0.0,0.0,0.0,0.0,0.0,0.0,0.0,0.0,0.0,0.0,0.0,0.0,0.0,0.0,0.0,0.0,0.0,0.0,2.1307,2.0683,2.0991,2.2431,2.2469,2.3238,2.4733,2.5505,2.6656,2.8101,2.8108,0.0,0.0,0.0,0.0,0.0,0.0,0.0,0.0,0.0,0.0,0.0,0.0,0.0,0.0,0.0,0.0,0.0,0.0,3.5723,3.7901,4.1934,4.5062,4.789,5.1339,5.3998,5.6302,5.8824,6.0622,6.1319,5.9207,5.7442,5.4743,4.9167,4.5174,4.1166,3.6051,0.0,3.3279,3.2545,3.5353,3.92,4.3431,0.0,5.1092,5.5434,5.6901,5.7824,5.8704,5.8896,5.8967,5.8967,5.8852,5.9088,5.9781,5.8401,5.7786,5.8429,5.8467,5.839,5.8313,5.8083,5.7665,5.7022,5.6132,5.5708,5.5708,5.5708,5.5708,5.5708,5.5708,5.5708,5.5708,5.5708,5.5708,5.5708,5.5708,5.5259,5.4573,5.4573,5.3799,5.2677,5.263,5.2039,5.1292,0.0,0.0,0.0,0.0,0.0,0.0,0.0,0.0,0.0,0.0,2.155,1.9385,0.0,0.0,0.0,0.0,0.0,0.0,0.0,0.0,0.0,0.0,2.0381,2.0454,2.0823,2.0824,2.0944,2.1263,2.1417,2.1654,2.1933,2.1934,0.0,0.0,0.0,0.0,0.0,0.0,0.0,0.0,0.0,0.0,0.0,0.0,0.0,0.0,0.0,0.0,0.0,0.0,4.0192,4.5648,4.8592,5.1342,5.4105,5.6988,5.8537,5.959,6.0776,6.1703,6.1585,5.8459,5.64,5.3234,4.589,4.1543,0.0,0.0,3.0617,2.9935,2.9781,3.3699,3.8311,4.2624,4.736,5.2207,5.7165,5.9165,6.0479,0.0,0.0,0.0,0.0,6.182,0.0,0.0,6.071,5.9896,5.9319,5.9281,5.8973,5.8313,5.6896,5.6439,5.6983,5.6132,5.5708,5.5708,5.5708,5.5708,5.5708,5.5708,5.5708,5.5708,5.5708,5.5708,5.5708,5.5708,5.5405,5.5008,5.5008,5.421,5.3043,5.2715,5.2065,5.1248,0.0,0.0,0.0,0.0,0.0,0.0,0.0,0.0,2.2812,2.7148,2.5897,2.4096,2.2682,2.0558,0.0,0.0,0.0,0.0,0.0,0.0,0.0,0.0,0.0,0.0,2.0389,2.0854,2.0867,2.0465,0.0,2.0909,2.0465,2.0465,2.0429,2.0408,2.0408,2.0379,2.0301,2.0268,0.0,2.0025,1.9952,1.9777,0.0,0.0,0.0,0.0,0.0,0.0,0.0,0.0,3.8582,4.5967,5.0858,5.392,5.6119,5.837,5.955,6.0294,6.1151,6.1617,6.1122,5.8043,5.4699,5.0216,4.2873,0.0,0.0,0.0,2.7772,2.7816,2.7816,3.1968,0.0,3.9892,4.397,4.8976,5.5434,0.0,0.0,0.0,0.0,0.0,0.0,6.2935,6.2704,6.2704,6.1941,6.1095,6.0204,6.0165,5.9781,5.8934,5.7703,5.7055,5.6983,5.6132,5.5708,5.5708,5.5708,5.5708,5.5708,5.5708,5.5708,5.5708,5.5708,5.5708,5.5692,5.5464,5.5262,5.5094,5.4862,5.4259,5.3484,5.3281,5.2837,5.2262,0.0,0.0,0.0,0.0,0.0,0.0,0.0,2.3437,2.543,3.0312,3.0156,2.8867,2.6949,2.366,2.1261,0.0,0.0,0.0,0.0,0.0,0.0,0.0,0.0,0.0,0.0,0.0,0.0,2.0535,2.12,0.0,0.0,0.0,0.0,0.0,2.0359,2.0276,2.0153,2.0061,1.9947,0.0,0.0,1.9443,0.0,0.0,0.0,0.0,0.0,0.0,0.0,0.0,3.4545,4.1432,4.8186,5.2889,5.6186,5.7404,5.8946,6.0313,6.0848,6.1062,6.0505,5.7581,5.2911,4.7281,4.0565,3.5584,0.0,0.0,2.5828,2.6418,2.6735,0.0,3.4241,0.0,4.0662,4.5278,5.3126,0.0,0.0,0.0,0.0,0.0,6.3814,6.3852,0.0,6.3583,6.2672,6.171,6.0864,6.0473,6.0012,5.9511,5.8357,5.7511,5.6983,5.6132,5.5708,5.5708,5.5708,5.5708,5.5708,5.5708,5.5708,5.5708,5.5708,5.5708,5.5687,5.5256,5.5067,5.4919,5.4516,5.4118,5.3786,5.3786,5.3682,5.3491,0.0,0.0,0.0,0.0,0.0,0.0,0.0,2.4453,2.7851,3.4531,3.2031,2.9765,3.0266,2.7225,2.3888,0.0,0.0,0.0,0.0,0.0,0.0,0.0,0.0,0.0,0.0,0.0,0.0,2.0586,2.062,0.0,0.0,0.0,0.0,0.0,0.0,2.0096,2.0014,1.9879,0.0,0.0,0.0,0.0,0.0,0.0,0.0,0.0,0.0,0.0,0.0,0.0,0.0,3.1482,3.7672,4.6683,5.4918,5.4349,0.0,0.0,6.0106,6.037,6.0058,5.668,5.1477,4.5578,3.9515,0.0,0.0,2.5806,2.5225,2.5849,2.7259,2.8656,3.1666,0.0,4.005,4.3666,5.2125,0.0,0.0,0.0,0.0,0.0,6.5628,6.5667,6.532,6.4551,6.3018,6.171,6.0864,5.9358,5.8813,5.9473,5.7165,5.6285,5.6983,5.6132,5.5708,5.5708,5.5708,5.5708,5.5708,5.5708,5.5708,5.5708,5.5708,5.5708,5.5687,5.5256,5.4876,5.45,5.4048,5.3823,5.3786,5.3786,5.4039,5.4363,0.0,0.0,0.0,0.0,0.0,0.0,2.3281,2.4453,2.7383,3.4297,3.3237,3.174,3.1536,2.935,2.5883,0.0,0.0,0.0,0.0,0.0,0.0,0.0,0.0,0.0,0.0,0.0,2.0479,2.0479,2.0465,0.0,0.0,0.0,0.0,0.0,0.0,1.9057,1.8845,1.8749,0.0,0.0,0.0,0.0,0.0,0.0,0.0,0.0,0.0,0.0,0.0,0.0,0.0,0.0,2.9085,3.6162,0.0,0.0,5.3224,5.657,5.7805,5.8681,5.8473,5.5049,4.974,4.3893,3.8465,0.0,2.8447,2.4983,2.4738,2.5332,2.5982,2.6927,2.9313,3.4587,3.4853,3.7392,4.5932,0.0,0.0,0.0,6.0402,0.0,0.0,0.0,6.5551,6.4666,6.3974,6.3018,6.1633,6.0441,5.9473,5.8819,5.778,5.6934,5.6209,5.5862,5.5708,5.5708,5.5708,5.5708,5.5708,5.5708,5.5708,5.5708,5.5708,5.5566,5.5326,5.489,5.4484,5.4057,5.386,5.3786,5.3823,5.4118,5.433,5.4484,0.0,0.0,0.0,0.0,0.0,1.9062,2.3359,2.4453,2.6992,3.3164,3.3154,3.2308,3.1666,2.9377,2.6166,2.193,0.0,0.0,0.0,0.0,0.0,0.0,0.0,0.0,0.0,0.0,0.0,2.0776,2.076,2.0717,0.0,0.0,2.0283,1.9924,0.0,0.0,0.0,0.0,0.0,0.0,0.0,0.0,0.0,0.0,0.0,0.0,0.0,0.0,0.0,0.0,0.0,0.0,0.0,0.0,0.0,0.0,4.8274,5.251,5.4593,5.6132,5.6434,5.3241,4.7778,4.1962,0.0,0.0,2.7322,2.4641,2.4543,2.5051,2.5388,2.6044,2.792,3.2192,3.1926,3.3926,4.197,4.3008,0.0,0.0,0.0,5.9165,6.4288,6.5673,6.5904,6.5051,6.4512,6.3705,6.2518,6.1166,5.9781,5.8352,5.805,5.7203,5.5708,5.5708,5.5708,5.5708,5.5708,5.5708,5.5708,5.5708,5.5621,5.5537,5.5537,5.5281,5.4883,5.4468,5.4092,5.3786,5.3786,5.3878,5.4057,5.4516,5.4745,5.4848,0.0,0.0,0.0,0.0,0.0,0.0,0.0,2.457,2.7266,3.1641,3.1402,3.0792,3.0729,2.6911,2.4275,2.4087,0.0,0.0,0.0,0.0,0.0,0.0,0.0,0.0,0.0,0.0,0.0,0.0,0.0,0.0,2.1383,2.1307,2.0758,1.9763,0.0,0.0,0.0,0.0,0.0,0.0,0.0,0.0,0.0,0.0,0.0,0.0,0.0,0.0,0.0,0.0,0.0,0.0,0.0,2.2322,2.5459,0.0,4.2816,4.963,5.0515,5.2592,5.3939,5.1361,4.5594,3.9596,0.0,3.0602,2.6047,2.4994,2.4804,2.5129,2.6101,2.6286,2.7762,3.2177,3.2891,3.5276,4.2124,4.4513,0.0,0.0,0.0,5.6555,6.1633,6.5134,6.675,6.5942,6.4282,6.3314,6.3275,6.089,5.9127,5.8319,5.7478,5.6593,5.5708,5.5708,5.5708,5.5708,5.5708,5.5708,5.5708,5.5708,5.547,5.5114,5.5114,5.4869,5.446,5.3995,5.3786,5.3786,5.3786,5.4083,5.4532,5.4933,5.5356,5.5698,0.0,0.0,0.0,0.0,0.0,0.0,0.0,2.1374,2.3444,2.7199,2.6837,2.6892,2.8663,2.604,2.4152,2.4103,0.0,0.0,0.0,0.0,0.0,0.0,0.0,0.0,0.0,0.0,0.0,0.0,0.0,0.0,0.0,0.0,2.1927,2.0148,1.8776,1.7887,0.0,0.0,0.0,0.0,0.0,0.0,0.0,0.0,0.0,0.0,0.0,0.0,0.0,0.0,0.0,0.0,0.0,0.0,0.0,2.6774,3.3834,4.0803,4.1761,4.3893,4.4927,4.1235,3.7264,3.3544,3.0644,2.7006,2.3816,2.2358,2.2487,2.3184,2.4087,2.4445,2.6561,3.2593,3.3216,3.4853,0.0,0.0,0.0,5.2236,5.8396,6.2935,0.0,6.5673,6.5936,6.5089,6.4512,6.3705,6.2551,6.171,6.0358,5.8352,5.744,5.6593,5.5708,5.5708,5.5708,5.5708,5.5708,5.5708,5.5708,5.5708,5.5464,5.5107,5.5107,5.4708,5.4031,5.4204,5.4083,5.3851,5.4446,5.479,5.4947,5.5375,5.5588,5.5708,0.0,0.0,0.0,0.0,0.0,0.0,0.0,1.892,2.0442,2.3257,2.3107,2.3818,2.6706,2.4404,2.3047,2.4014,0.0,0.0,0.0,0.0,0.0,0.0,0.0,0.0,0.0,0.0,0.0,0.0,0.0,0.0,0.0,0.0,0.0,0.0,1.9479,0.0,0.0,0.0,0.0,0.0,0.0,0.0,1.6336,0.0,0.0,0.0,0.0,0.0,0.0,0.0,0.0,0.0,0.0,0.0,0.0,0.0,2.6584,3.1695,0.0,3.7305,3.8456,3.5189,3.2365,0.0,0.0,2.4805,2.2593,2.1906,2.1838,2.2206,2.3199,2.3564,2.5412,3.0689,3.2038,3.4122,0.0,0.0,0.0,5.2549,0.0,0.0,6.4012,6.5128,6.5551,6.4666,6.4012,6.3211,6.2172,6.1479,6.0242,5.8352,5.778,5.6901,5.5708,5.5708,5.5708,5.5708,5.5708,5.5708,5.5708,5.5708,5.5399,5.4862,5.4862,5.4484,0.0,5.4464,5.4479,5.4173,5.5182,5.5381,5.5153,5.556,5.5708,5.5708,0.0,0.0,0.0,0.0,0.0,0.0,0.0,0.0,1.8526,2.0156,2.0376,2.1527,2.4652,2.2175,2.1225,2.3615,0.0,0.0,0.0,0.0,0.0,0.0,0.0,0.0,0.0,0.0,0.0,0.0,2.6139,2.6542,2.8805,0.0,0.0,0.0,0.0,0.0,0.0,0.0,0.0,0.0,0.0,0.0,0.0,0.0,0.0,0.0,0.0,0.0,0.0,0.0,0.0,0.0,0.0,0.0,0.0,0.0,0.0,0.0,0.0,3.2171,0.0,0.0,0.0,0.0,2.5775,2.352,0.0,2.2908,2.23,2.2062,2.346,2.3586,2.4547,2.7642,3.0372,0.0,0.0,4.2231,0.0,0.0,5.8863,6.1979,6.1056,6.3903,6.5436,6.4589,6.3018,6.2056,6.2018,6.0396,5.9127,5.8319,5.8236,5.7396,5.5708,5.5708,5.5708,5.5708,5.5708,5.5708,5.5708,5.5708,5.5262,5.4532,5.4532,5.428,5.3916,5.4736,5.4891,5.4646,5.5895,5.5885,5.5262,5.561,5.5747,5.5785,0.0,0.0,0.0,0.0,0.0,0.0,0.0,0.0,0.0,0.0,2.0019,2.0246,2.1018,2.0496,2.0303,0.0,0.0,0.0,0.0,0.0,0.0,0.0,0.0,0.0,0.0,0.0,0.0,2.6613,2.8705,3.0183,3.1056,3.0476,0.0,0.0,0.0,0.0,0.0,0.0,0.0,0.0,0.0,0.0,0.0,0.0,0.0,0.0,1.8319,1.9012,0.0,0.0,0.0,0.0,0.0,0.0,0.0,0.0,1.9815,2.0255,2.17,0.0,2.4895,2.3205,2.2266,2.1614,0.0,2.0482,2.0172,2.1005,0.0,2.1111,2.5147,2.4595,2.5789,3.2623,3.4734,3.6956,4.1039,4.8193,0.0,5.855,6.2557,6.4397,6.2852,6.4051,6.4551,6.366,6.2672,6.1826,6.1133,6.0089,5.9127,5.8319,5.7665,5.6786,5.5708,5.5708,5.5708,5.5708,5.5708,5.5708,5.5708,5.5708,5.5429,5.4947,5.4947,5.4723,5.4392,5.4875,5.5059,5.5019,5.5635,5.6147,5.646,5.5912,5.6132,5.6593,0.0,0.0,0.0,0.0,0.0,0.0,0.0,0.0,0.0,0.0,0.0,0.0,0.0,0.0,0.0,0.0,0.0,0.0,0.0,0.0,0.0,0.0,0.0,0.0,0.0,0.0,0.0,0.0,0.0,3.1404,0.0,0.0,0.0,0.0,0.0,0.0,0.0,0.0,0.0,0.0,1.6475,0.0,0.0,0.0,0.0,0.0,1.808,1.8698,0.0,1.9754,2.0144,2.0417,0.0,0.0,0.0,0.0,1.8977,1.8977,1.8977,2.0755,2.2312,2.103,2.0938,2.1076,2.0681,0.0,0.0,0.0,0.0,2.0996,2.4814,2.5285,2.6823,0.0,3.5269,0.0,0.0,0.0,5.6709,6.0902,6.3358,6.4474,6.3929,6.3968,6.3666,6.282,6.1979,6.1133,6.0242,5.9742,5.8934,5.7742,5.7247,5.6593,5.5708,5.5708,5.5708,5.5708,5.5708,5.5708,5.5708,5.5708,5.5464,5.5107,5.5107,5.496,5.482,5.5452,5.5556,5.5437,5.6071,5.6324,5.6362,5.5862,5.589,5.608,0.0,0.0,0.0,0.0,0.0,0.0,0.0,0.0,0.0,0.0,0.0,0.0,0.0,0.0,0.0,0.0,0.0,0.0,0.0,0.0,0.0,0.0,0.0,0.0,0.0,0.0,0.0,0.0,0.0,0.0,0.0,0.0,0.0,0.0,0.0,0.0,0.0,0.0,0.0,0.0,1.7434,0.0,0.0,0.0,0.0,0.0,0.0,0.0,0.0,1.9874,2.0302,2.0345,2.0056,0.0,0.0,0.0,0.0,0.0,1.9017,2.1345,2.3294,2.176,2.2112,2.2607,2.1771,0.0,0.0,0.0,0.0,0.0,0.0,2.6655,0.0,0.0,0.0,0.0,5.0485,5.3746,5.6973,6.1556,6.3051,6.3814,6.4166,6.366,6.2974,6.2172,6.1287,6.0435,5.955,5.9396,5.8588,5.706,5.6863,5.6439,5.5708,5.5708,5.5708,5.5708,5.5708,5.5708,5.5708,5.5708,5.5493,5.5192,5.5192,5.5192,5.5269,5.6001,5.6056,5.5785,5.6516,5.6439,5.5862,5.5747,5.5626,5.5482,0.0,0.0,0.0,0.0,0.0,0.0,0.0,0.0,0.0,0.0,0.0,0.0,0.0,0.0,0.0,0.0,0.0,0.0,0.0,0.0,0.0,0.0,0.0,0.0,0.0,0.0,0.0,0.0,0.0,0.0,3.4071,3.4911,3.1522,0.0,0.0,0.0,0.0,0.0,0.0,0.0,1.7227,0.0,0.0,0.0,0.0,0.0,0.0,0.0,0.0,1.8964,1.9358,1.9796,1.9057,0.0,0.0,0.0,0.0,0.0,2.0886,2.4012,2.5539,2.0644,2.0718,2.1771,0.0,0.0,0.0,0.0,0.0,0.0,0.0,3.111,3.3181,0.0,0.0,4.8438,5.511,5.7588,5.9588,6.1826,6.4095,6.4711,6.2672,6.2974,6.2974,6.2172,6.1287,6.0435,5.955,5.8858,5.8011,5.7016,5.6285,5.5824,5.5708,5.5708,5.5708,5.5708,5.5708,5.5708,5.5708,5.5708,5.5682,5.5599,5.5599,5.5599,5.5599,5.5758,5.5742,5.5708,5.5862,5.6285,5.6709,5.5978,5.6343,5.7173,0.0,0.0,0.0,0.0,0.0,0.0,0.0,0.0,0.0,0.0,0.0,0.0,0.0,0.0,0.0,0.0,0.0,0.0,0.0,0.0,0.0,0.0,0.0,0.0,0.0,0.0,0.0,0.0,0.0,3.6207,3.6578,3.3084,2.8537,2.3173,0.0,0.0,0.0,0.0,0.0,0.0,0.0,0.0,0.0,0.0,0.0,0.0,0.0,0.0,0.0,0.0,1.9506,1.9709,1.9195,0.0,0.0,0.0,0.0,0.0,1.9582,2.2519,2.464,2.2184,2.4293,2.6544,0.0,0.0,0.0,0.0,0.0,0.0,0.0,0.0,3.8454,4.4884,0.0,5.1605,5.6352,5.805,5.9819,6.2435,6.3403,6.3557,6.282,6.2704,6.2281,6.1441,6.0589,5.9742,5.8896,5.805,5.7209,5.6324,5.5901,5.5708,5.5708,5.5708,5.5708,5.5708,5.5708,5.5708,5.5708,5.5708,5.5708,5.5708,5.5708,5.5708,5.5708,5.5708,5.5708,5.5708,5.5708,5.5939,5.6247,5.5848,5.5786,5.5958,0.0,0.0,0.0,0.0,0.0,0.0,0.0,0.0,0.0,0.0,0.0,0.0,0.0,0.0,0.0,0.0,0.0,0.0,0.0,0.0,0.0,0.0,0.0,0.0,0.0,0.0,0.0,3.6142,3.7624,3.8445,3.851,3.1373,2.6169,0.0,0.0,0.0,0.0,0.0,0.0,0.0,0.0,0.0,0.0,0.0,0.0,0.0,0.0,0.0,0.0,0.0,0.0,0.0,0.0,0.0,0.0,1.8036,1.7783,1.7986,1.8746,2.1268,2.3788,2.4205,0.0,0.0,0.0,0.0,0.0,0.0,0.0,0.0,0.0,3.8309,0.0,4.9346,5.1896,5.4164,5.717,5.8517,6.0204,6.2968,6.2675,6.2432,6.2962,6.2374,6.1555,6.0583,5.9896,5.905,5.805,5.7363,5.6593,5.5747,5.5708,5.5638,5.5566,5.5632,5.5708,5.5708,5.5708,5.5708,5.5708,5.5708,5.5708,5.5708,5.5708,5.5708,5.5708,5.5708,5.5708,5.5708,5.5708,5.5708,5.5709,5.5898,5.5592,5.5183,0.0,0.0,0.0,0.0,0.0,0.0,0.0,0.0,0.0,0.0,0.0,0.0,0.0,0.0,0.0,0.0,0.0,0.0,0.0,0.0,0.0,0.0,0.0,0.0,0.0,3.3763,3.5495,3.9541,4.0406,3.9669,3.7316,3.2036,2.7693,2.4195,0.0,0.0,0.0,0.0,0.0,0.0,0.0,0.0,0.0,0.0,0.0,0.0,0.0,0.0,0.0,0.0,0.0,0.0,0.0,0.0,1.7884,1.7828,1.7783,1.8325,2.0646,2.2851,2.4706,2.5554,2.5799,0.0,3.1268,3.0776,0.0,3.531,0.0,0.0,0.0,4.2874,4.7318,5.0183,5.4005,5.7247,5.905,6.0787,6.221,6.316,6.2849,6.2473,6.2219,6.1738,6.0912,5.9681,5.955,5.8781,5.717,5.7016,5.6593,5.5747,5.5708,5.5537,5.5153,5.5493,5.5708,5.5708,5.5708,5.5708,5.5708,5.5708,5.5708,5.5708,5.5708,5.5708,5.5708,5.5708,5.5708,5.5708,5.5708,5.5708,5.5786,5.6558,5.6765,5.6885,0.0,0.0,0.0,0.0,0.0,0.0,0.0,0.0,0.0,0.0,0.0,0.0,0.0,0.0,0.0,0.0,0.0,0.0,0.0,0.0,0.0,0.0,0.0,3.1837,3.5177,3.7472,4.0296,4.3644,4.186,3.9004,3.5064,2.9453,0.0,0.0,0.0,0.0,0.0,0.0,0.0,0.0,0.0,0.0,0.0,0.0,0.0,0.0,0.0,0.0,0.0,0.0,1.7783,1.7783,1.7783,1.7783,1.7783,1.7783,1.7916,1.8288,1.941,2.2575,2.5833,2.6839,2.8653,0.0,0.0,3.4897,3.6705,4.0538,4.2056,0.0,0.0,0.0,4.8856,5.2477,5.5285,5.7786,6.0012,6.1325,6.221,6.2518,6.1908,6.1416,6.1314,6.0174,5.9496,5.95,5.8511,5.7671,5.7016,5.6478,5.5934,5.535,5.5344,5.5244,5.5114,5.5244,5.5446,5.5708,5.5708,5.5708,5.5708,5.5708,5.5708,5.5708,5.5708,5.5708,5.5708,5.5708,5.5708,5.5708,5.5708,5.5708,5.5846,5.692,5.6686,5.6103,0.0,0.0,0.0,0.0,0.0,0.0,0.0,0.0,0.0,0.0,0.0,0.0,0.0,0.0,0.0,0.0,0.0,0.0,0.0,0.0,0.0,0.0,0.0,3.18,3.4915,3.8812,4.1883,4.4011,4.1398,3.7917,3.3571,0.0,0.0,0.0,0.0,0.0,0.0,0.0,0.0,0.0,0.0,0.0,0.0,0.0,0.0,0.0,0.0,0.0,0.0,0.0,1.7783,1.7783,1.7783,1.7783,1.7783,1.7783,1.818,1.865,1.8917,2.2144,2.5757,2.7077,0.0,0.0,3.6899,3.9007,4.153,4.5546,4.6256,0.0,4.8217,0.0,0.0,5.3126,5.5555,5.7594,5.9363,6.0364,6.0902,6.0902,6.023,5.986,6.0006,5.8842,5.8248,5.8698,5.7632,5.6863,5.6593,5.6016,5.5531,5.5121,5.5107,5.5053,5.4897,5.5053,5.5231,5.5493,5.5627,5.5708,5.5708,5.5708,5.5708,5.5708,5.5708,5.5708,5.5708,5.5708,5.5708,5.5708,5.5708,5.5708,5.5824,5.6823,5.646,5.5784,0.0,0.0,0.0,0.0,0.0,0.0,0.0,0.0,0.0,0.0,0.0,0.0,0.0,0.0,0.0,0.0,0.0,0.0,0.0,0.0,0.0,0.0,0.0,3.0946,3.3963,3.7366,3.9352,3.9863,3.8924,3.6654,3.3092,2.8988,0.0,0.0,0.0,0.0,0.0,0.0,0.0,0.0,0.0,1.7095,0.0,0.0,0.0,0.0,0.0,0.0,0.0,0.0,1.7783,1.7783,1.7783,1.7817,1.7817,1.7822,1.8561,1.9475,1.974,2.179,2.4293,0.0,0.0,0.0,4.1656,4.2888,4.4449,5.0153,4.9625,4.8389,4.9279,4.9433,0.0,5.1659,5.478,5.6983,5.6983,5.7742,5.8313,5.8275,5.787,5.7792,5.8247,5.7857,5.7416,5.7033,5.6983,5.6593,5.5747,5.5708,5.5493,5.5121,5.5107,5.4897,5.4492,5.489,5.5114,5.5121,5.5526,5.5708,5.5708,5.5708,5.5708,5.5708,5.5708,5.5708,5.5708,5.5708,5.5708,5.5708,5.5708,5.5708,5.5748,5.6173,5.6307,5.6421,0.0,0.0,0.0,0.0,0.0,0.0,0.0,0.0,0.0,0.0,0.0,0.0,0.0,0.0,0.0,0.0,0.0,0.0,0.0,0.0,0.0,0.0,0.0,0.0,0.0,0.0,3.3742,3.785,3.6354,3.393,0.0,0.0,0.0,2.4743,0.0,0.0,0.0,0.0,0.0,0.0,1.8782,1.8146,0.0,0.0,0.0,0.0,0.0,0.0,0.0,0.0,0.0,0.0,1.7783,1.8904,1.9864,1.8262,1.9407,2.1082,2.0752,2.3154,0.0,2.9965,0.0,0.0,0.0,4.5861,0.0,0.0,5.2069,5.1043,5.189,5.1582,5.1505,5.262,5.4664,5.6285,5.6901,5.7742,5.8088,5.7478,5.7278,5.7217,5.7352,5.6696,5.6487,5.6973,5.6439,5.5978,5.5708,5.5708,5.5393,5.4693,5.494,5.4897,5.4492,5.489,5.5237,5.5537,5.5627,5.5708,5.5708,5.5708,5.5708,5.5708,5.5708,5.5708,5.5708,5.5708,5.5708,5.5708,5.5708,5.5708,5.5775,5.6526,5.6414,5.6178,0.0,0.0,0.0,0.0,0.0,0.0,0.0,0.0,0.0,0.0,0.0,0.0,0.0,0.0,0.0,0.0,0.0,0.0,0.0,0.0,0.0,0.0,0.0,0.0,0.0,2.8697,3.0105,0.0,0.0,0.0,0.0,0.0,0.0,2.6864,0.0,2.5,0.0,0.0,0.0,2.0978,2.0397,1.9653,1.8903,0.0,0.0,0.0,0.0,0.0,0.0,0.0,0.0,0.0,1.7783,1.8735,1.9726,1.911,2.0158,2.1854,2.3177,2.5737,0.0,3.3837,3.8453,4.3064,4.7851,0.0,0.0,0.0,5.3503,5.2697,5.3549,5.3005,5.2697,5.3587,5.4818,5.5862,5.6401,5.694,5.7088,5.6555,5.6478,5.6478,5.6478,5.6016,5.5939,5.6439,5.6016,5.5708,5.5708,5.5708,5.5405,5.4753,5.4954,5.4967,5.4731,5.496,5.5287,5.5708,5.5708,5.5708,5.5708,5.5708,5.5708,5.5708,5.5708,5.5708,5.5708,5.5708,5.5708,5.5708,5.5708,5.5708,5.5747,5.6285,5.6132,5.5978,0.0,0.0,0.0,0.0,0.0,0.0,0.0,0.0,0.0,0.0,0.0,0.0,0.0,0.0,0.0,0.0,0.0,0.0,0.0,0.0,0.0,0.0,0.0,0.0,0.0,0.0,0.0,0.0,0.0,0.0,0.0,0.0,3.0106,3.1265,0.0,2.9393,0.0,2.5141,2.3146,2.1184,2.1847,2.1088,1.9628,2.025,0.0,0.0,0.0,0.0,0.0,0.0,0.0,0.0,1.7777,1.7969,1.845,2.0021,2.0891,2.2234,2.6391,2.8876,3.1715,3.7654,4.2037,0.0,5.1509,5.3326,5.4154,5.4994,0.0,5.3703,5.4549,5.401,5.3703,5.4472,5.5208,5.5708,5.5708,5.5708,5.5708,5.5708,5.5708,5.567,5.5593,5.5593,5.5593,5.5593,5.5516,5.5516,5.5593,5.5516,5.5301,5.4892,5.4911,5.4911,5.4878,5.4911,5.5121,5.5478,5.5478,5.5516,5.5593,5.567,5.5708,5.5708,5.5708,5.5708,5.5708,5.5708,5.5708,5.5708,5.5708,5.5708,5.5708,5.5708,5.5708,5.5824,0.0,0.0,0.0,0.0,0.0,0.0,0.0,0.0,0.0,0.0,0.0,0.0,0.0,0.0,0.0,0.0,0.0,0.0,0.0,0.0,0.0,0.0,0.0,0.0,0.0,0.0,0.0,0.0,0.0,0.0,0.0,0.0,0.0,3.1194,0.0,2.8804,2.5755,2.2649,2.1088,2.0649,2.0781,1.9914,1.8681,1.94,1.8708,0.0,0.0,0.0,0.0,0.0,0.0,0.0,1.7709,1.9126,2.0561,1.9864,2.1663,2.4543,2.752,2.9722,0.0,4.0569,4.6658,5.1266,5.3104,5.4209,5.4957,5.5487,5.5352,5.5439,5.6285,5.5747,5.5203,5.5401,5.5593,5.5708,5.5708,5.5708,5.5708,5.5708,5.5708,5.5439,5.4818,5.4741,5.4741,5.4741,5.4126,5.4049,5.4703,5.4126,5.3563,5.3149,5.3439,5.3451,5.3143,5.3445,5.364,5.3741,5.3741,5.4087,5.478,5.5401,5.5708,5.5708,5.5708,5.5708,5.5708,5.5708,5.5708,5.5708,5.5708,5.5708,5.5708,5.5708,5.5708,5.5824,0.0,0.0,0.0,0.0,0.0,0.0,0.0,0.0,0.0,0.0,0.0,0.0,0.0,0.0,0.0,0.0,0.0,0.0,0.0,0.0,0.0,0.0,0.0,0.0,0.0,0.0,0.0,0.0,0.0,0.0,0.0,0.0,0.0,3.2747,0.0,2.971,2.5964,2.3438,2.1823,2.0956,2.1208,2.0688,1.9794,1.9754,1.8715,1.7218,1.6532,0.0,0.0,0.0,0.0,0.0,0.0,0.0,1.9958,2.0131,2.1832,2.4613,2.8816,3.1925,0.0,4.4825,0.0,5.3349,5.3999,5.4493,5.4818,5.4792,5.5264,5.5824,5.6285,5.5708,5.5131,5.5131,5.478,5.4511,5.4511,5.4857,5.5131,5.5131,5.5131,5.4972,5.4549,5.4126,5.3895,5.3895,5.3472,5.339,5.3857,5.3433,5.3091,5.2891,5.308,5.3086,5.2886,5.3086,5.3197,5.3197,5.3197,5.3433,5.3933,5.5126,5.5708,5.5708,5.5708,5.5708,5.5708,5.5708,5.5708,5.5708,5.5708,5.5708,5.5708,5.5708,5.5708,5.5824,0.0,0.0,0.0,0.0,0.0,0.0,0.0,0.0,0.0,0.0,0.0,0.0,0.0,0.0,0.0,0.0,0.0,0.0,0.0,0.0,0.0,0.0,0.0,0.0,0.0,0.0,0.0,0.0,0.0,0.0,0.0,0.0,0.0,3.4449,0.0,0.0,2.6767,2.4778,2.2943,2.1417,2.1914,2.1661,2.0876,0.0,0.0,0.0,1.6445,1.6436,1.6734,1.6792,0.0,0.0,0.0,0.0,1.8592,2.0306,2.1662,2.3852,2.9288,3.413,3.9645,4.802,5.1754,0.0,5.3974,5.4127,5.405,5.3562,5.4423,5.528,5.528,5.4703,5.428,5.428,5.3664,5.3197,5.3197,5.3818,5.428,5.428,5.428,5.4203,5.4087,5.339,5.2967,5.2967,5.2856,5.2818,5.2967,5.2851,5.2779,5.2779,5.2779,5.2779,5.2779,5.2779,5.2779,5.2779,5.289,5.2946,5.2899,5.4446,5.5281,5.5478,5.5478,5.5555,5.5708,5.5708,5.5708,5.5708,5.5708,5.5708,5.5708,5.5708,5.5708,5.5775,0.0,0.0,0.0,0.0,0.0,0.0,0.0,0.0,0.0,0.0,0.0,0.0,0.0,0.0,0.0,0.0,0.0,0.0,0.0,0.0,0.0,0.0,0.0,0.0,0.0,0.0,0.0,0.0,0.0,0.0,0.0,0.0,0.0,0.0,0.0,0.0,0.0,2.3349,2.1495,2.1231,2.1299,2.0502,0.0,0.0,0.0,0.0,0.0,0.0,1.6423,1.6714,1.702,0.0,0.0,0.0,1.872,1.9683,2.1369,2.3743,2.7304,0.0,4.2002,0.0,4.9545,5.1757,0.0,0.0,5.2749,5.2314,5.2939,5.3549,5.3549,5.3433,5.3351,5.3351,5.3274,5.3197,5.3197,5.3313,5.3351,5.3351,5.3351,5.3082,5.2313,5.2159,5.2077,5.2077,5.1433,5.1356,5.2043,5.1395,5.1015,5.1015,5.1015,5.1015,5.1015,5.1015,5.1015,5.1053,5.1736,5.1886,5.1602,5.2569,5.3637,5.4664,5.4664,5.5054,5.5708,5.5708,5.5708,5.5708,5.5708,5.5708,5.5708,5.5708,5.5708,5.5671,0.0,0.0,0.0,0.0,0.0,0.0,0.0,0.0,0.0,0.0,0.0,0.0,0.0,0.0,0.0,2.0586,2.0592,2.0697,2.1004,0.0,0.0,0.0,0.0,0.0,0.0,0.0,0.0,0.0,0.0,0.0,0.0,3.2293,3.3975,0.0,0.0,0.0,0.0,0.0,0.0,0.0,0.0,0.0,0.0,0.0,0.0,0.0,0.0,0.0,0.0,1.6701,1.702,1.7332,1.7462,0.0,0.0,0.0,2.0527,2.3537,3.0036,3.5393,4.05,0.0,4.8215,4.9308,5.1165,5.1414,5.1212,5.126,5.1178,5.1396,5.2361,5.2487,5.242,5.2186,5.1951,5.1779,5.1779,5.2202,5.2467,5.2467,5.2467,5.2313,5.1923,5.1505,5.1241,5.1241,5.0438,5.0125,5.0471,4.9702,4.924,4.924,4.924,4.924,4.924,4.924,4.9398,4.9663,5.0506,5.0688,5.0285,5.0671,5.1789,5.3478,5.3931,5.4484,5.5049,5.5516,5.5708,5.5708,5.5708,5.5708,5.5687,5.5441,5.5375,5.5326,0.0,0.0,0.0,0.0,0.0,0.0,0.0,0.0,0.0,0.0,0.0,0.0,0.0,0.0,0.0,0.0,2.0872,2.1065,2.1434,2.1982,0.0,0.0,0.0,0.0,0.0,0.0,0.0,0.0,0.0,0.0,3.2869,3.2869,3.5464,0.0,3.4449,0.0,0.0,0.0,0.0,0.0,0.0,0.0,0.0,0.0,0.0,0.0,0.0,0.0,0.0,0.0,0.0,0.0,1.7421,1.7924,0.0,0.0,0.0,2.3185,3.0832,0.0,3.7063,4.346,4.5218,4.612,0.0,4.9149,4.8974,4.9393,4.9092,4.9153,5.0504,5.1135,5.1333,5.1037,5.0834,5.0707,5.0707,5.1202,5.1582,5.1582,5.1582,5.1505,5.1274,5.0702,5.0284,5.0053,4.9433,4.9086,4.9086,4.8471,4.8082,4.8082,4.8082,4.8082,4.8082,4.8025,4.8121,4.8389,4.9233,4.9431,4.9055,4.9236,5.0174,5.1726,5.3003,5.3908,5.4549,5.5362,5.5708,5.5708,5.5708,5.5708,5.5632,5.5237,5.5107,5.5047,0.0,0.0,0.0,0.0,0.0,0.0,0.0,0.0,0.0,0.0,0.0,0.0,0.0,2.2234,2.222,2.2206,2.2206,2.2199,2.2252,2.2279,2.2313,0.0,0.0,0.0,0.0,0.0,0.0,0.0,0.0,0.0,3.4381,3.4381,3.7516,4.2916,3.6975,3.1935,2.7756,0.0,0.0,0.0,0.0,0.0,0.0,0.0,0.0,0.0,0.0,0.0,0.0,0.0,0.0,0.0,0.0,0.0,0.0,0.0,0.0,0.0,0.0,2.9186,0.0,3.5702,3.8974,4.1853,4.3994,4.5013,4.5658,4.6072,4.6413,4.6801,4.7252,4.8897,5.0206,5.0156,5.0451,5.0707,5.0707,5.0745,5.0745,5.0745,5.0745,5.0438,4.9625,4.9471,4.9125,4.8317,4.8197,4.8159,4.8159,4.812,4.8082,4.8082,4.8082,4.8082,4.8082,4.7777,4.7494,4.7208,4.8026,4.819,4.7809,4.8584,4.9003,4.9235,5.1609,5.3372,5.4549,5.5362,5.5708,5.5708,5.5708,5.5708,5.5632,5.5237,5.5107,5.4967,0.0,0.0,0.0,0.0,0.0,0.0,0.0,0.0,0.0,0.0,0.0,0.0,0.0,2.3004,2.2835,2.2354,2.2025,2.1742,2.1485,2.1705,2.1846,2.1846,0.0,0.0,0.0,0.0,0.0,0.0,0.0,2.6015,3.1698,3.2171,3.3772,3.6231,3.5024,3.3603,3.1789,2.6936,0.0,0.0,0.0,0.0,0.0,0.0,0.0,0.0,0.0,0.0,0.0,0.0,0.0,0.0,0.0,0.0,0.0,0.0,0.0,0.0,0.0,0.0,0.0,3.3426,3.5765,3.7634,4.0027,4.1801,4.3282,4.4504,4.507,4.5545,4.6204,4.7341,4.8448,4.9198,4.9448,4.9723,5.0248,5.052,5.0707,5.0707,5.0207,4.9745,4.9433,4.8894,4.8432,4.812,4.762,4.7209,4.6967,4.6459,4.6069,4.5846,4.5841,4.5841,4.5841,4.6265,4.6512,4.6675,4.7513,4.7963,4.8089,4.8384,4.8796,4.9378,5.0828,5.2144,5.3416,5.5023,5.5708,5.5708,5.5708,5.5708,5.561,5.494,5.4708,5.4586,0.0,0.0,0.0,0.0,0.0,0.0,0.0,0.0,0.0,0.0,0.0,0.0,0.0,0.0,2.3207,2.2692,2.2393,2.2098,2.1805,2.1822,2.1831,2.1831,2.2111,0.0,0.0,0.0,0.0,0.0,0.0,0.0,0.0,0.0,3.1843,3.3028,3.3028,3.3152,0.0,0.0,0.0,2.6124,0.0,0.0,2.3943,0.0,0.0,0.0,0.0,0.0,0.0,0.0,0.0,0.0,0.0,0.0,0.0,0.0,0.0,0.0,2.5346,0.0,0.0,0.0,3.2866,3.4046,3.7122,3.9054,4.0607,4.1987,4.3135,4.4048,4.4599,4.5353,4.6368,4.7838,4.8214,4.8497,4.9017,4.9325,4.9526,4.9655,4.9161,4.873,4.8577,4.7895,4.7386,4.7117,4.6495,4.602,4.5753,4.5235,4.4837,4.4618,4.4612,4.4553,4.4387,4.492,4.5275,4.5432,4.6569,4.7228,4.7498,4.8039,4.8676,4.9348,5.0372,5.1402,5.2479,5.4172,5.5011,5.5275,5.5132,5.5245,5.5405,5.4586,5.4263,5.4153,0.0,0.0,0.0,0.0,0.0,0.0,0.0,0.0,0.0,0.0,0.0,0.0,0.0,0.0,0.0,2.3429,2.3429,2.3421,2.338,2.2738,2.2333,2.2299,2.2347,0.0,0.0,0.0,0.0,0.0,0.0,0.0,0.0,0.0,3.2215,0.0,3.136,3.048,3.1089,0.0,3.0649,2.9693,0.0,2.5161,2.7621,0.0,0.0,0.0,2.6311,2.462,0.0,1.9965,0.0,0.0,0.0,0.0,0.0,0.0,0.0,0.0,0.0,0.0,0.0,0.0,3.0063,3.1127,3.5128,3.6714,3.7558,3.8469,4.0524,4.2176,4.2249,4.2919,4.4073,4.6007,4.6726,4.7054,4.7092,4.7099,4.7232,4.7539,4.7573,4.7373,4.6934,4.6498,4.5916,4.5154,4.48,4.4605,4.4592,4.4585,4.4579,4.4579,4.4579,4.4366,4.3975,4.3975,4.381,4.3543,4.513,4.5902,4.6021,4.7563,4.855,4.899,5.0244,5.1192,5.1923,5.2813,5.3703,5.4446,5.397,5.4338,5.4981,5.4107,5.3786,5.3749,0.0,0.0,0.0,0.0,0.0,0.0,0.0,0.0,0.0,0.0,0.0,0.0,0.0,0.0,0.0,2.3831,2.4256,2.4199,2.3316,2.3365,2.3193,2.2621,2.3437,2.3654,0.0,0.0,0.0,0.0,0.0,0.0,0.0,0.0,0.0,0.0,2.9963,2.9591,2.861,2.6454,0.0,0.0,2.462,2.4687,0.0,0.0,0.0,0.0,0.0,2.3646,2.3831,0.0,2.1495,2.2503,0.0,0.0,0.0,0.0,0.0,0.0,2.3873,0.0,0.0,0.0,0.0,0.0,2.9775,3.1684,3.3814,3.6413,3.7962,3.9357,4.1103,4.1617,4.196,4.2505,4.4399,4.6008,4.657,4.6932,4.7139,4.7238,4.667,4.6327,4.6478,4.5627,4.5076,4.5099,4.48,4.4455,4.4175,4.3927,4.3807,4.3807,4.3807,4.3742,4.3656,4.3656,4.3883,4.4378,4.5073,4.6009,4.723,4.789,4.8776,4.9799,5.0126,5.0556,5.1125,5.2587,5.3703,5.4446,5.397,5.4338,5.4981,5.4107,5.3786,5.3749,0.0,0.0,0.0,0.0,0.0,0.0,0.0,0.0,0.0,0.0,0.0,0.0,0.0,0.0,0.0,0.0,2.5455,2.5287,2.4264,2.4165,2.3928,2.3453,2.4122,2.4305,0.0,0.0,0.0,0.0,0.0,0.0,0.0,0.0,0.0,0.0,0.0,0.0,0.0,0.0,0.0,0.0,2.5973,0.0,0.0,2.6708,2.686,0.0,0.0,0.0,2.665,2.3411,2.3055,0.0,0.0,0.0,0.0,0.0,0.0,0.0,0.0,0.0,0.0,0.0,0.0,0.0,2.7535,2.8894,3.0436,3.2345,3.3924,3.5502,3.725,3.8388,3.9195,3.9533,4.1543,4.3344,4.4151,4.4743,4.5155,4.5275,4.5155,4.5173,4.5556,4.4825,4.4428,4.4632,4.4318,4.4042,4.3786,4.3614,4.3506,4.3506,4.3506,4.3506,4.3506,4.3506,4.3726,4.4195,4.4864,4.5703,4.6696,4.7732,4.8709,4.9571,4.9959,5.033,5.0784,5.1741,5.2784,5.3675,5.3178,5.3662,5.447,5.3805,5.3536,5.3534,0.0,0.0,0.0,0.0,0.0,0.0,0.0,0.0,0.0,0.0,0.0,0.0,0.0,0.0,0.0,0.0,2.7106,2.6725,2.5905,2.5244,0.0,2.4643,2.4711,2.4718,2.4609,0.0,0.0,0.0,0.0,0.0,0.0,0.0,0.0,0.0,0.0,0.0,0.0,0.0,0.0,2.8705,2.8035,3.0098,0.0,0.0,3.1795,3.3925,3.1787,3.0905,3.0087,2.5796,2.3897,0.0,0.0,0.0,0.0,0.0,2.5894,0.0,0.0,0.0,0.0,0.0,0.0,0.0,2.7389,2.7787,2.7934,2.7934,2.9628,3.1427,3.2295,3.4431,3.6237,3.6861,3.8476,3.9974,4.0956,4.1727,4.2288,4.2567,4.323,4.3826,4.4218,4.3906,4.3721,4.3841,4.3648,4.3506,4.3506,4.3506,4.3532,4.3546,4.3546,4.3572,4.3622,4.3622,4.3622,4.3631,4.4673,4.5238,4.5365,4.7172,4.8307,4.8926,4.9591,5.017,5.0624,5.0624,5.142,5.2564,5.2068,5.2669,5.3758,5.3349,5.3214,5.3214,0.0,0.0,0.0,0.0,0.0,0.0,0.0,0.0,0.0,0.0,0.0,0.0,0.0,0.0,0.0,0.0,0.0,2.8847,0.0,0.0,2.6649,2.5439,2.5955,2.5989,2.5406,2.5989,2.626,0.0,0.0,0.0,0.0,0.0,0.0,0.0,0.0,0.0,0.0,0.0,0.0,2.7207,2.7621,0.0,3.3964,3.1181,3.1033,3.2126,3.0507,3.012,3.0054,2.7847,2.5406,2.3561,0.0,0.0,0.0,0.0,0.0,0.0,0.0,0.0,0.0,0.0,0.0,0.0,2.72,2.7855,2.8767,2.8767,2.9133,2.991,3.1384,3.3079,3.4137,3.3653,3.6053,3.8696,4.081,4.1242,4.1356,4.1409,4.1564,4.1812,4.2167,4.186,4.2047,4.2992,4.3316,4.3506,4.3506,4.3506,4.3631,4.3904,4.3912,4.4072,4.4397,4.4404,4.4404,4.4404,4.4896,4.5472,4.6092,4.6493,4.7641,4.9258,4.8821,4.9239,5.0206,5.0206,5.1152,5.2564,5.2068,5.2669,5.3758,5.3349,5.3214,5.3214,0.0,0.0,0.0,0.0,0.0,0.0,0.0,0.0,0.0,0.0,0.0,0.0,0.0,0.0,0.0,0.0,0.0,0.0,0.0,0.0,2.7909,2.6742,2.7055,2.6886,2.615,2.6852,2.7063,2.67,0.0,0.0,0.0,0.0,0.0,0.0,0.0,0.0,0.0,0.0,2.7266,2.7427,2.9693,0.0,3.3296,3.2466,3.2718,3.3379,3.2083,3.1174,3.032,2.8914,2.7947,0.0,0.0,2.7218,2.8516,0.0,2.9022,2.9302,0.0,0.0,0.0,2.9108,0.0,0.0,0.0,2.6901,2.6827,2.7629,2.6859,2.6749,2.9151,3.0252,3.1054,3.1861,3.3373,3.5319,3.7719,3.9452,4.0487,4.0487,4.0846,4.1156,4.1346,4.1196,4.134,4.1901,4.2529,4.2727,4.2323,4.3065,4.3295,4.2813,4.3573,4.3996,4.3951,4.4379,4.4536,4.4404,4.4437,4.4733,4.5264,4.5555,4.6608,4.8193,4.8254,4.8875,4.9819,4.9819,5.0416,5.1405,5.1767,5.2563,5.3484,5.3282,5.3214,5.3214,0.0,0.0,0.0,0.0,0.0,0.0,0.0,0.0,0.0,0.0,0.0,0.0,0.0,0.0,0.0,0.0,0.0,0.0,0.0,0.0,0.0,2.7734,2.791,2.7596,2.6733,2.7562,2.7731,2.7139,2.7004,0.0,0.0,0.0,0.0,0.0,0.0,0.0,0.0,0.0,0.0,2.8916,0.0,3.3308,3.2572,3.3842,3.4742,3.5235,3.4276,3.274,3.1003,3.0027,3.046,3.0883,2.7945,2.9812,0.0,0.0,0.0,0.0,0.0,0.0,0.0,0.0,0.0,2.8925,0.0,0.0,0.0,2.6424,2.5066,2.4442,2.6875,2.7719,2.8527,3.0001,3.1023,3.2155,3.3647,3.6516,3.866,3.9137,3.9489,3.9929,4.0589,4.0516,4.0553,4.0846,4.1323,4.147,4.1132,4.2323,4.2627,4.1729,4.2975,4.3523,4.3249,4.4106,4.4351,4.3984,4.3885,4.3927,4.4159,4.4475,4.5445,4.6818,4.7527,4.8325,4.916,4.9311,4.9618,5.0106,5.1332,5.2268,5.2994,5.3141,5.3214,5.3214,2.5465,2.6082,0.0,0.0,0.0,0.0,0.0,0.0,0.0,0.0,0.0,0.0,0.0,0.0,0.0,0.0,0.0,0.0,3.4268,0.0,0.0,0.0,2.8365,2.8188,2.6733,2.8121,2.8831,2.8739,2.8035,2.7689,0.0,0.0,0.0,0.0,2.5185,0.0,0.0,0.0,2.9443,0.0,3.4501,3.4529,0.0,3.4268,3.5047,3.5426,3.4987,3.3808,3.2384,0.0,3.1855,3.158,0.0,3.1825,3.1121,0.0,0.0,0.0,0.0,0.0,0.0,0.0,3.2809,0.0,0.0,0.0,2.8956,2.7011,0.0,2.6093,2.5742,0.0,0.0,2.6366,2.9659,3.1812,2.9941,3.1849,3.4241,3.645,3.5495,3.5789,3.8681,3.8329,3.8513,3.9945,3.946,3.9672,4.103,4.1279,4.1577,4.2027,4.2234,4.2561,4.3115,4.393,4.3969,4.3235,4.3679,4.3862,4.3819,4.3299,4.41,4.5937,4.6108,4.6852,4.7954,4.8663,4.9246,4.9774,5.0905,5.1695,5.2207,5.292,5.3214,5.3214,0.0,0.0,0.0,0.0,0.0,0.0,0.0,0.0,0.0,0.0,0.0,0.0,0.0,0.0,0.0,0.0,0.0,3.4466,0.0,0.0,0.0,0.0,0.0,0.0,2.8687,2.9296,2.9441,2.901,2.9093,2.8915,0.0,0.0,0.0,0.0,2.626,0.0,2.8733,0.0,3.0118,0.0,0.0,0.0,0.0,3.5897,3.663,3.6585,3.5981,3.5011,3.3793,0.0,3.2969,0.0,0.0,0.0,0.0,0.0,0.0,0.0,0.0,0.0,0.0,0.0,0.0,0.0,3.0473,0.0,2.8778,0.0,0.0,0.0,0.0,0.0,0.0,0.0,2.8117,2.8919,2.8369,2.7965,2.9329,3.3653,3.3543,3.3837,3.5679,3.5973,3.6156,3.634,3.7375,3.8109,3.8285,4.0265,4.1059,4.0388,4.1481,4.2013,4.1833,4.2638,4.3079,4.3196,4.2509,4.2013,4.1782,4.2016,4.2962,4.453,4.5473,4.6442,4.7396,4.8208,4.8679,4.8986,5.044,5.1433,5.2097,5.2884,5.3214,5.3214,0.0,0.0,0.0,0.0,0.0,0.0,0.0,0.0,0.0,0.0,0.0,0.0,4.4162,4.3742,0.0,0.0,3.9878,3.7662,0.0,0.0,3.2842,0.0,0.0,0.0,0.0,0.0,3.0345,2.961,2.9939,2.9837,0.0,0.0,0.0,0.0,0.0,2.8438,2.9959,0.0,3.1698,3.3319,3.4731,3.542,3.5745,3.7217,3.7663,3.7419,3.6824,3.5929,3.4777,3.3256,3.4174,3.5459,3.2742,3.4137,0.0,0.0,0.0,0.0,3.6567,0.0,0.0,0.0,0.0,0.0,0.0,0.0,0.0,0.0,0.0,0.0,0.0,0.0,0.0,0.0,0.0,2.6979,2.7132,2.5626,2.6355,3.1341,3.2516,3.3066,3.344,3.38,3.3947,3.3807,3.5062,3.598,3.6273,3.875,3.9832,3.9124,4.0533,4.1048,4.0553,4.1352,4.196,4.2284,4.126,4.0727,4.0691,4.1222,4.2203,4.3579,4.5186,4.625,4.6865,4.7893,4.8296,4.848,5.0141,5.1169,5.1793,5.281,5.3214,5.3214,0.0,2.9771,0.0,0.0,0.0,0.0,0.0,0.0,0.0,0.0,0.0,0.0,0.0,0.0,0.0,0.0,0.0,3.9676,4.2442,0.0,3.229,0.0,0.0,3.162,0.0,0.0,0.0,3.1133,3.0446,3.0098,3.0065,0.0,0.0,0.0,2.9644,3.1115,3.3515,3.3418,3.5031,3.7666,3.7486,3.7874,3.8482,0.0,3.7522,3.7492,3.7456,3.6413,3.5107,3.5862,3.5635,3.5188,3.5862,3.5635,0.0,0.0,0.0,0.0,0.0,3.8036,0.0,3.5628,0.0,0.0,0.0,0.0,3.3183,0.0,0.0,0.0,0.0,0.0,0.0,0.0,0.0,0.0,0.0,2.5416,2.6586,2.9879,3.2339,3.3476,3.2693,3.1971,3.2161,3.3697,3.2418,3.2969,3.6119,3.6391,3.7275,3.9043,3.9175,3.9345,3.9656,4.0515,4.0515,3.9737,4.0181,4.0822,4.154,4.1267,4.2001,4.3579,4.5186,4.592,4.6067,4.7636,4.8296,4.848,5.0141,5.0839,5.1022,5.2627,5.3214,5.3214,0.0,0.0,0.0,0.0,0.0,0.0,0.0,3.877,0.0,0.0,0.0,0.0,0.0,5.1939,5.1165,0.0,0.0,4.4208,4.3302,3.9832,0.0,0.0,0.0,3.4584,0.0,0.0,0.0,0.0,0.0,0.0,3.0828,3.0368,0.0,0.0,0.0,3.2406,0.0,0.0,0.0,0.0,0.0,3.924,4.1237,3.912,3.8285,3.8138,3.7081,3.634,3.5745,3.4908,3.4791,3.4851,3.4087,3.5128,3.6486,3.5672,3.6589,3.7955,3.8212,3.8505,3.8248,3.6332,3.5445,3.4527,3.2626,0.0,0.0,0.0,0.0,0.0,0.0,0.0,0.0,0.0,0.0,0.0,0.0,2.6654,2.7389,2.8484,3.0283,3.1084,3.0308,2.9977,3.0057,3.0564,3.1097,3.2125,3.3763,3.6075,3.7556,3.8028,3.8741,3.9063,3.9013,3.9286,3.9286,3.9013,3.9187,3.9711,4.0471,4.0911,4.169,4.2837,4.4966,4.5883,4.603,4.7645,4.8296,4.848,5.0141,5.0802,5.0986,5.2627,5.3214,5.3214,3.2259,0.0,0.0,0.0,0.0,0.0,0.0,0.0,0.0,0.0,4.9537,0.0,5.6981,0.0,5.4535,0.0,5.1225,4.8485,4.5517,4.3544,0.0,3.8344,3.7805,0.0,0.0,0.0,0.0,0.0,0.0,3.1797,3.1403,3.1188,0.0,0.0,0.0,3.4271,3.587,3.6783,3.7186,0.0,0.0,3.9685,0.0,3.9709,3.9375,3.9641,3.7604,3.6507,3.5816,3.4619,3.4387,3.438,3.336,3.4468,3.6016,3.5224,3.6362,3.7918,3.8212,3.8469,3.8395,3.7044,3.6303,3.5452,3.383,3.4321,3.4585,0.0,0.0,0.0,0.0,0.0,0.0,0.0,0.0,0.0,0.0,2.7273,2.7792,2.7792,2.8962,2.947,2.8662,2.884,2.8877,2.8589,2.9806,3.1017,3.2112,3.4892,3.6643,3.7059,3.8285,3.8877,3.8689,3.8681,3.8681,3.8681,3.8681,3.9276,4.0341,4.0846,4.1837,4.3269,4.5112,4.6067,4.6425,4.7746,4.8296,4.8443,4.9811,5.0545,5.0986,5.2627,5.3214,5.3214,0.0,0.0,0.0,0.0,3.5154,0.0,0.0,0.0,4.625,0.0,5.1818,5.5349,5.6542,5.7512,5.8106,5.802,5.5242,5.2241,4.922,4.7722,0.0,0.0,3.9224,3.7531,3.3789,0.0,0.0,0.0,0.0,0.0,3.1895,3.1887,0.0,0.0,3.572,0.0,3.6376,3.8807,3.9402,3.875,3.9001,3.9389,3.9775,3.9673,4.0634,4.1662,3.8864,3.6814,3.5448,3.5054,3.4424,3.3807,3.3807,3.3844,3.402,3.4784,3.5635,3.653,3.7309,3.8072,3.8505,3.7749,3.7529,3.7081,3.5481,3.6376,3.6868,3.4438,3.4571,0.0,0.0,0.0,0.0,0.0,0.0,0.0,0.0,0.0,2.7866,2.7866,2.8467,2.8645,2.7934,2.8479,2.8583,2.7897,2.8515,2.9653,3.1244,3.2926,3.4578,3.62,3.7845,3.8681,3.8681,3.8681,3.8681,3.8681,3.8726,3.9562,4.1095,4.114,4.2453,4.4737,4.5553,4.6351,4.7149,4.7966,4.8296,4.837,4.9187,5.0068,5.1059,5.2627,5.3214,5.3214,3.3874,3.475,3.5367,0.0,3.612,3.7959,4.1437,4.3681,0.0,0.0,5.5067,5.7282,5.9979,5.9965,5.929,5.8118,5.6273,0.0,0.0,0.0,0.0,4.4739,4.3636,4.1487,3.8068,3.7534,0.0,3.4765,0.0,0.0,3.3212,3.2964,3.2975,0.0,0.0,3.6025,3.5481,3.7947,3.901,3.9015,3.9333,4.067,4.2263,4.0593,4.0485,4.0861,3.8016,3.6373,3.5374,3.4405,3.3954,3.3807,3.3807,3.4204,3.4747,3.4931,3.6039,3.7235,3.7456,3.8072,3.8644,3.8432,3.7925,3.7382,3.6971,3.7669,3.7881,3.6046,3.631,3.6163,3.3917,3.2662,0.0,0.0,0.0,0.0,0.0,0.0,0.0,2.8693,2.8129,2.7978,2.8645,2.7818,2.7635,2.8626,2.8338,2.8815,3.043,3.3176,3.4894,3.5334,3.7507,3.8681,3.8681,3.8681,3.8681,3.8726,3.9313,4.012,4.1132,4.1727,4.2975,4.4737,4.5553,4.6351,4.7149,4.7966,4.8296,4.837,4.9233,5.0445,5.1793,5.281,5.3214,5.3287,3.4472,0.0,0.0,3.8382,4.0329,4.2448,4.4278,4.614,4.9214,5.441,5.6712,0.0,6.0346,6.0786,6.0566,5.9648,5.8178,0.0,5.4985,0.0,0.0,4.8636,4.6495,4.3897,4.0664,3.8942,0.0,3.4978,0.0,0.0,3.3494,3.3291,3.3277,0.0,0.0,3.6046,3.5708,3.78,3.9062,3.9615,3.9445,4.0346,0.0,4.0344,3.9597,3.9026,3.7299,3.5919,3.4816,3.4073,3.3807,3.3807,3.3807,3.4094,3.4608,3.5334,3.6229,3.7118,3.7815,3.8358,3.8681,3.8681,3.8358,3.7925,3.7566,3.7852,3.7815,3.6567,3.6677,3.642,3.4644,3.3653,3.2742,0.0,0.0,0.0,0.0,0.0,0.0,0.0,2.8482,2.8088,2.8921,2.7712,2.7272,2.8166,2.8923,2.9445,2.9653,3.306,3.4857,3.4491,3.7551,3.9056,3.8681,3.9753,3.9937,3.9239,4.0047,4.0855,4.1654,4.2103,4.3387,4.5259,4.57,4.6581,4.7672,4.8113,4.8296,4.8406,4.9664,5.0702,5.161,5.2774,5.3214,5.3251,3.5264,0.0,0.0,0.0,0.0,4.8159,4.7168,4.9627,5.2417,5.473,5.7728,5.9673,5.9673,6.0933,6.1667,6.1459,0.0,5.8646,5.6921,5.5496,5.3688,5.1393,4.8492,4.5508,4.247,3.9899,0.0,0.0,0.0,0.0,3.3588,3.3371,3.3473,0.0,0.0,0.0,0.0,3.7918,3.9099,3.9916,3.9341,3.927,3.9522,3.9522,3.8557,3.7096,3.6789,3.5585,3.4183,3.4,3.388,3.3844,3.4064,3.4064,3.4284,3.5826,3.6384,3.6743,3.8175,3.8608,3.8681,3.8681,3.8681,3.8505,3.7823,3.7676,3.7448,3.6743,3.653,3.6229,3.5481,3.4571,3.3476,0.0,0.0,0.0,0.0,0.0,0.0,0.0,0.0,0.0,2.9045,2.7991,2.7344,2.7411,2.9698,3.0467,2.906,3.2723,3.4527,3.3807,3.7661,3.957,3.9166,4.1148,4.1552,4.0385,4.0956,4.169,4.247,4.258,4.3864,4.6067,4.6067,4.6911,4.8296,4.8296,4.8379,4.8636,5.0178,5.0875,5.1132,5.2664,5.3214,5.3214,3.8495,0.0,0.0,0.0,0.0,5.0188,5.2564,5.4546,5.637,5.8132,6.0591,6.2169,6.2169,6.2426,6.2059,6.075,6.0346,0.0,0.0,0.0,0.0,5.2903,5.0521,4.7961,4.5277,4.1918,3.9749,0.0,0.0,0.0,0.0,3.4341,3.3746,0.0,0.0,0.0,3.6347,3.7301,3.7931,3.8379,3.89,3.9127,3.9179,3.9179,3.8441,3.7349,3.6622,3.5442,3.4252,3.4649,3.4351,3.4027,3.5422,3.5378,3.5004,3.6009,3.6787,3.7345,3.7639,3.8175,3.8681,3.8681,3.8681,3.8652,3.8505,3.8505,3.8469,3.8322,3.7742,3.7228,3.7081,3.5819,3.4491,3.3513,0.0,0.0,0.0,0.0,0.0,0.0,0.0,2.8762,2.9439,2.8121,2.7616,2.8595,2.9141,2.9317,2.9018,3.2185,3.3954,3.3807,3.711,3.979,4.1662,4.1434,4.1837,4.2845,4.2323,4.2506,4.3322,4.3975,4.525,4.6902,4.6902,4.7416,4.8296,4.8296,4.871,4.9454,5.0435,5.1206,5.1903,5.2847,5.3214,5.3287,4.3391,0.0,0.0,0.0,5.0387,5.3529,5.5904,5.8327,5.9747,5.9269,6.0224,6.0921,6.0921,6.2059,6.2316,6.1117,6.0639,5.971,5.8132,5.6492,5.5254,5.4473,5.2184,4.9742,4.7195,4.3403,4.098,3.9908,0.0,0.0,0.0,3.5459,3.4871,3.4417,0.0,3.5349,0.0,3.6898,3.7448,3.8351,3.8758,3.8906,3.8906,3.8906,3.8317,3.7456,3.7052,3.6233,3.5242,3.506,3.5041,3.5238,3.6046,3.6009,3.5855,3.6677,3.7199,3.7603,3.7999,3.8395,3.8681,3.8681,3.8681,3.8681,3.8681,3.8681,3.8681,3.8681,3.8395,3.7999,3.7566,3.6486,3.5569,3.5165,3.4761,3.4241,0.0,0.0,0.0,0.0,0.0,0.0,0.0,2.8395,2.8062,2.8658,3.0033,3.0308,2.906,3.2436,3.4241,3.3807,3.7404,3.9863,4.1038,4.2314,4.2938,4.2882,4.2919,4.3139,4.3543,4.4333,4.536,4.6498,4.6938,4.7562,4.8296,4.8296,4.882,4.9684,5.0472,5.1279,5.2097,5.2884,5.3214,5.3251,0.0,4.8172,0.0,0.0,5.4667,5.6785,5.807,6.0848,6.2132,6.0224,5.9967,5.9967,5.9967,6.1655,6.2462,6.1667,6.086,6.0003,5.9013,5.6859,5.5511,5.5365,5.3198,5.0922,4.8636,4.4635,4.1772,0.0,0.0,3.5525,3.6046,3.6193,3.5819,3.4997,3.4724,3.5466,3.6971,3.6861,3.7441,3.8469,3.8615,3.8681,3.8681,3.8681,3.8322,3.7742,3.7566,3.7191,3.667,3.5819,3.5855,3.6347,3.6707,3.6677,3.6714,3.7529,3.7742,3.7889,3.8542,3.8681,3.8681,3.8681,3.8681,3.8681,3.8681,3.8681,3.8681,3.8681,3.8681,3.8505,3.7852,3.7118,3.6567,3.6567,3.642,3.6009,3.5107,0.0,0.0,0.0,0.0,0.0,2.933,2.9063,2.8825,2.8563,3.0757,3.1194,2.9097,3.2503,3.427,3.3807,3.7588,3.9981,4.0642,4.3167,4.3975,4.3057,4.3543,4.3836,4.4057,4.4847,4.5654,4.6434,4.7085,4.7709,4.8296,4.8489,4.9077,4.9931,5.0729,5.1536,5.2344,5.2957,5.3214,5.3214,0.0,0.0,5.3769,5.4106,5.6774,5.8902,5.9049,6.1215,6.2719,6.2499,6.2462,6.2462,6.2462,6.2646,6.2462,6.1667,6.086,5.9758,5.8217,5.6539,5.5254,5.4546,5.2894,5.1216,4.9527,4.5489,4.2616,0.0,0.0,3.5819,3.5151,3.5929,3.5819,3.5071,3.6523,3.6457,3.5371,3.7543,3.8146,3.7676,3.8395,3.8681,3.8681,3.8681,3.8644,3.8505,3.7742,3.7925,3.8358,3.7522,3.6824,3.656,3.8028,3.7955,3.7566,3.8358,3.8579,3.8615,3.8689,3.8681,3.8681,3.8681,3.8681,3.8681,3.8681,3.8681,3.8681,3.8681,3.8681,3.8689,3.8615,3.7925,3.7382,3.7382,3.6787,3.6009,3.5107,0.0,3.4307,3.2699,0.0,0.0,3.0314,3.0427,3.0209,2.9027,2.9855,3.002,2.9054,3.1445,3.314,3.377,3.7074,4.0194,4.3139,4.3469,4.4277,4.5553,4.4883,4.4966,4.57,4.6498,4.7305,4.8076,4.815,4.8223,4.837,4.916,4.9968,5.0765,5.1573,5.238,5.3104,5.3177,5.3214,5.3287,5.4293,5.4803,5.5721,5.7666,5.829,5.9123,6.1068,6.2169,6.2793,6.2793,6.2793,6.2793,6.2793,6.2793,6.2462,6.1667,6.086,5.993,5.8792,5.6748,5.5475,5.5144,5.3592,5.1977,5.0372,4.7278,4.4635,0.0,0.0,3.8028,3.7213,3.7081,3.6567,3.5789,3.5422,3.5459,3.5855,3.6853,3.7338,3.7566,3.8395,3.8681,3.8681,3.8681,3.8681,3.8652,3.8322,3.8432,3.8644,3.8322,3.7991,3.7845,3.8505,3.8469,3.8285,3.8615,3.8681,3.8681,3.8681,3.8681,3.8681,3.8681,3.8681,3.8681,3.8681,3.8681,3.8681,3.8681,3.8681,3.8681,3.8681,3.8432,3.8212,3.8212,3.7955,3.7183,3.559,3.5342,0.0,3.1499,0.0,0.0,2.8995,2.9609,2.9825,2.9069,3.0012,3.0371,2.9751,3.2002,3.369,3.4491,3.725,3.979,4.2029,4.3029,4.4057,4.5177,4.4847,4.5104,4.592,4.6718,4.7553,4.8296,4.8296,4.86,4.9123,4.9454,5.0372,5.1536,5.1877,5.2491,5.3214,5.3214,5.3214,5.3324,5.7079,5.6895,5.7519,6.0272,6.0015,6.0199,6.2462,6.2793,6.2793,6.2793,6.2793,6.2793,6.2793,6.2793,6.2572,6.1998,6.1006,6.015,5.96,5.7079,5.5585,5.5585,5.4069,5.2553,5.1169,4.8737,4.6278,4.3864,4.145,3.9606,3.8322,3.7786,3.7199,3.6604,3.5642,3.5752,3.6677,3.7155,3.7558,3.7925,3.8726,3.8909,3.8681,3.8681,3.8681,3.8681,3.8681,3.8681,3.8681,3.8681,3.8681,3.8681,3.8681,3.8681,3.8681,3.8681,3.8681,3.8681,3.8681,3.8681,3.8681,3.8681,3.8681,3.8681,3.8681,3.8681,3.8681,3.8681,3.8681,3.8681,3.8681,3.8681,3.8681,3.8681,3.8368,3.7554,3.586,3.5499,0.0,3.0902,3.0942,3.0454,2.8421,2.9369,2.9847,2.924,3.0707,3.1254,3.044,3.2537,3.4284,3.5334,3.7764,3.9819,4.1434,4.3057,4.4158,4.47,4.5177,4.5691,4.6287,4.7342,4.8159,4.871,4.893,4.937,4.9968,5.0188,5.0996,5.2024,5.227,5.2711,5.3214,5.3214,5.3361,5.3686,5.7666,5.8609,5.9673,6.13,6.2218,6.2756,6.2793,6.2793,6.2793,6.2793,6.2793,6.2793,6.2793,6.2793,6.2793,6.2793,6.1325,6.0419,6.037,5.7373,5.5585,5.5585,5.4069,5.2821,5.1987,4.9554,4.7085,4.47,4.2278,3.9863,3.7529,3.7492,3.7492,3.7529,3.8285,3.8212,3.7603,3.9174,3.9386,3.8755,3.957,3.9423,3.8681,3.8681,3.8681,3.8681,3.8681,3.8681,3.8681,3.8681,3.8681,3.8681,3.8681,3.8681,3.8681,3.8681,3.8681,3.8681,3.8681,3.8681,3.8681,3.8681,3.8681,3.8681,3.8681,3.8681,3.8681,3.8681,3.8681,3.8681,3.8681,3.8681,3.8681,3.8681,3.7636,3.6543,3.5704,3.5216,3.4028,3.1582,3.2685,3.2418,2.9291,3.0434,3.0866,2.9688,3.1866,3.2538,3.0886,3.2689,3.4578,3.6229,3.8623,4.0679,4.2286,4.3892,4.47,4.4737,4.6305,4.7076,4.7149,4.883,4.9574,4.9647,5.0435,5.0765,5.0839,5.1646,5.1987,5.2097,5.2894,5.3177,5.3214,5.3214,5.3691,5.4559,5.9453,6.0737,6.1838,6.2316,6.2646,6.2793,6.2793,6.2793,6.2793,6.2793,6.2793,6.2793,6.2793,6.2793,6.2793,6.2793,6.1655,6.0786,6.0419,5.7384,5.5585,5.5585,5.4069,5.2821,5.2024,5.0151,4.8233,4.6342,4.448,4.2314,3.9929,3.9394,3.9137,3.91,3.8836,3.9158,3.9937,3.99,4.0084,4.0369,4.0626,4.023,3.9541,3.9541,3.9166,3.8681,3.8681,3.8681,3.8681,3.8681,3.8681,3.8681,3.8681,3.8681,3.8681,3.8681,3.8681,3.8681,3.8681,3.8681,3.8681,3.8681,3.8681,3.8681,3.8681,3.8681,3.8681,3.8681,3.8681,3.8681,3.8681,3.8681,3.8596,3.8226,3.7405,3.6291,3.4861,3.4099,3.2866,3.0744,3.0932,3.0632,2.9162,3.0461,3.1095,3.0418,3.2898,3.3752,3.2119,3.4779,3.6574,3.7081,3.9981,4.2037,4.3102,4.4709,4.5801,4.6342,4.6856,4.7709,4.883,4.9344,4.9894,5.0435,5.0692,5.1096,5.1646,5.1877,5.2307,5.2847,5.3104,5.3214,5.3287,5.3801,5.4179,5.4669,5.9893,6.1251,6.2365,6.2365,6.2609,6.2793,6.2793,6.2793,6.2646,6.2266,6.2572,6.2805,6.2806,6.2818,6.2793,6.2793,6.1826,6.0957,6.0456,5.7958,5.6242,5.5622,5.4363,5.3251,5.2454,5.1179,4.9674,4.8039,4.5801,4.3636,4.1544,4.1038,4.0634,4.0341,3.9819,4.0149,4.1103,4.0891,4.0928,4.1132,4.1434,4.1075,4.0304,4.0018,3.957,3.9129,3.8791,3.8681,3.8681,3.8681,3.8681,3.8681,3.8681,3.8681,3.8681,3.8681,3.8681,3.8681,3.8681,3.8681,3.8681,3.8681,3.8681,3.8681,3.8681,3.8946,3.9056,3.8755,3.8681,3.8681,3.8681,3.8557,3.8291,3.7936,3.6744,3.543,3.4333,3.3158,3.1913,3.0654,3.0751,3.0514,2.9508,3.1376,3.2319,3.1487,3.4772,3.6002,3.4094,3.6523,3.8219,3.8843,4.1377,4.3277,4.4387,4.57,4.6608,4.7113,4.7746,4.8746,5.0078,5.0372,5.0775,5.1279,5.1573,5.1977,5.2454,5.2454,5.2747,5.3214,5.3214,5.3214,5.3251,5.3769,5.4462,5.5326,5.9306,6.0529,6.163,6.1667,6.2291,6.2793,6.2793,6.2756,6.2352,6.1337,6.201,6.2561,6.2598,6.2622,6.2719,6.2719,6.1716,6.0871,6.0419,5.8849,5.7206,5.5669,5.484,5.4032,5.3214,5.2417,5.1216,4.961,4.6434,4.4113,4.2616,4.2506,4.2057,4.1352,4.1242,4.1205,4.1323,4.2029,4.1911,4.1323,4.2094,4.1911,4.1103,4.0304,3.9945,3.9798,3.8982,3.8681,3.8726,3.8755,3.8791,3.8799,3.8865,3.8865,3.8865,3.8799,3.8726,3.8726,3.8762,3.8726,3.8726,3.8762,3.8828,3.8865,3.8865,3.946,3.9753,3.8946,3.8731,3.8716,3.8643,3.8218,3.7833,3.7735,3.5736,3.4158,3.4085,3.2452,3.1278,3.1327,3.1971,3.1923,3.0561,3.3044,3.4241,3.2978,3.7136,3.8807,3.6677,3.8138,3.9672,4.1067,4.28,4.4461,4.5957,4.6828,4.7296,4.7369,4.893,5.0115,5.0912,5.1646,5.2024,5.2134,5.2847,5.3214,5.3214,5.3214,5.3214,5.3214,5.3214,5.3214,5.3203,5.3265,5.4624,5.64,5.9881,6.0933,6.1777,6.2389,6.2683,6.2793,6.2793,6.2291,6.1728,6.1264,6.0726,6.0347,6.0371,6.108,6.1643,6.1887,6.0713,6.009,6.037,5.8302,5.6624,5.5622,5.484,5.4032,5.3214,5.2417,5.1179,4.9527,4.7526,4.6342,4.5948,4.47,4.4039,4.3782,4.2571,4.2359,4.2919,4.247,4.2543,4.2947,4.3139,4.2727,4.1919,4.1103,4.0414,3.9798,3.8982,3.8681,3.8799,3.9423,3.9606,3.9717,4.0333,4.0508,4.0406,3.979,3.9166,3.8836,3.946,3.9166,3.8836,3.9467,4.0084,4.0508,4.0508,4.07,4.0589,3.979,3.9284,3.8832,3.8199,3.7685,3.7071,3.6057,3.4958,3.3859,3.2895,3.234,3.2192,3.2593,3.3312,3.3742,3.3758,3.4225,3.4842,3.5747,3.7197,3.8337,3.9027,4.1156,4.1992,4.1132,4.4434,4.6425,4.6828,4.8269,4.9334,4.9911,5.0325,5.0949,5.172,5.1914,5.2344,5.292,5.3104,5.3214,5.3214,5.3214,5.3214,5.3214,5.3214,5.3214,5.3314,5.4103,5.5269,5.6522,5.9231,6.0413,6.1438,6.1667,6.2022,6.2377,6.2745,6.2426,6.1838,6.0946,6.0554,5.9968,5.898,6.0017,6.1031,6.1557,6.1276,6.0872,6.0419,5.8951,5.7494,5.6198,5.539,5.4583,5.3765,5.2968,5.1756,5.0105,4.8443,4.7443,4.7076,4.6205,4.5397,4.4663,4.3782,4.3424,4.3469,4.3029,4.3102,4.3506,4.3506,4.3249,4.2772,4.1956,4.1148,4.0377,3.9966,3.957,3.9386,4.0194,4.0451,4.0524,4.0956,4.1095,4.1103,4.1038,4.0414,3.9892,4.0341,4.0112,3.9892,4.0341,4.103,4.1544,4.1168,4.1397,4.1434,4.0598,3.9985,3.9373,3.8588,3.7856,3.6901,3.5516,3.447,3.3488,3.2435,3.2524,3.292,3.3581,3.4818,3.5704,3.5971,3.6644,3.7322,3.7862,3.9698,4.0855,4.1001,4.435,4.5195,4.2828,4.5938,4.7856,4.8233,4.9517,5.0555,5.1353,5.1353,5.1756,5.2564,5.2564,5.2784,5.3214,5.3214,5.3214,5.3214,5.3214,5.3214,5.3214,5.3214,5.3193,5.3334,5.4397,5.5794,5.7225,5.8381,5.952,6.0565,6.0441,6.0958,6.1728,6.2684,6.2806,6.2304,6.0945,6.0725,6.0005,5.8212,5.9198,6.0322,6.0982,6.2132,6.212,6.0493,5.9623,5.8412,5.6712,5.5842,5.5034,5.4252,5.3434,5.2344,5.0986,4.9297,4.8159,4.7489,4.7223,4.6379,4.5067,4.4957,4.4415,4.369,4.369,4.3616,4.3506,4.3506,4.3506,4.3396,4.2616,4.1874,4.1279,4.114,4.0663,4.0194,4.0993,4.136,4.147,4.1617,4.1727,4.1947,4.2653,4.2359,4.1764,4.1389,4.1287,4.1323,4.1434,4.2057,4.2498,4.1947,4.2351,4.2616,4.1801,4.0997,4.0183,3.9329,3.8189,3.6902,3.5414,3.4257,3.3353,3.2676,3.319,3.3954,3.492,3.6739,3.8013,3.8204,3.9662,4.0437,4.0055,4.281,4.4076,4.3094,4.7067,4.8205,4.5507,4.7572,4.9077,4.9941,5.0618,5.1389,5.216,5.216,5.2527,5.3214,5.3214,5.3214,5.3214,5.3214,5.3214,5.3214,5.3324,5.3398,5.3398,5.3508,5.3491,5.3573,5.4642,5.6319,5.8,5.9377,5.8793,5.891,6.0172,6.0506,6.1105,6.2561,6.2794,6.2708,6.2451,6.0126,5.837,5.8028,5.8223,5.8406,5.8565,6.1152,6.2106,6.0505,5.84,5.6785,5.5842,5.5023,5.4216,5.3398,5.2601,5.206,5.1803,5.0188,4.9344,4.9197,4.7746,4.6966,4.6709,4.603,4.5259,4.4516,4.4516,4.4121,4.3506,4.3506,4.3506,4.3396,4.2616,4.2213,4.2021,4.136,4.1022,4.103,4.1846,4.258,4.324,4.3929,4.4599,4.5186,4.5296,4.5259,4.4709,4.269,4.2094,4.2286,4.2955,4.3718,4.448,4.5039,4.5259,4.5112,4.4296,4.2814,4.1192,3.9789,3.8082,3.6412,3.4861,3.4469,3.4247,3.3948,3.5104,3.6574,3.8223,3.986,4.1307,4.2419,4.2204,4.2523,4.3731,4.3765,4.4452,4.6278,4.7709,4.86,4.883,4.9848,5.0802,5.162,5.1767,5.2234,5.2994,5.2994,5.3067,5.3214,5.3214,5.3214,5.3214,5.3214,5.3214,5.3251,5.3922,5.4216,5.4289,5.495,5.4954,5.4679,5.5764,5.6955,5.8,6.0238,5.9415,5.8821,5.9092,5.9126,5.9639,6.1263,6.2243,6.2818,6.2794,6.1508,5.9943,5.8175,5.798,5.798,5.798,5.9378,6.0269,6.0381,5.9096,5.7678,5.6308,5.5464,5.4473,5.3214,5.2417,5.1987,5.1987,5.0812,5.0261,5.0225,4.9003,4.8196,4.7709,4.6902,4.6094,4.5324,4.4883,4.4745,4.4718,4.3836,4.402,4.4709,4.3901,4.3314,4.2947,4.3012,4.2755,4.2506,4.3314,4.4121,4.4864,4.5223,4.559,4.5883,4.5883,4.5883,4.5663,4.4525,4.4232,4.4342,4.4718,4.5076,4.5443,4.581,4.5883,4.5773,4.5406,4.4089,4.2425,4.0577,3.8904,3.7315,3.5826,3.5211,3.5141,3.5776,3.7059,3.8579,4.0284,4.2105,4.3652,4.4691,4.4452,4.4745,4.5902,4.6058,4.6764,4.8343,4.9627,5.0472,5.0886,5.1253,5.183,5.2637,5.2637,5.281,5.3214,5.3214,5.3214,5.3214,5.3214,5.3214,5.3214,5.3654,5.3838,5.3911,5.4693,5.506,5.5071,5.5475,5.5625,5.5727,5.6384,5.72,5.8054,6.0237,5.9552,5.8836,5.8113,5.8005,5.8664,6.0676,6.2022,6.2818,6.2794,6.2794,6.1875,5.9393,5.8467,5.7992,5.7979,5.7987,5.8497,5.9779,5.9438,5.846,5.6771,5.5658,5.4473,5.3214,5.2601,5.227,5.227,5.1463,5.1096,5.1059,5.0078,4.9233,4.8563,4.7746,4.6938,4.614,4.5507,4.5507,4.5773,4.4571,4.4791,4.5847,4.5214,4.4599,4.413,4.4745,4.4599,4.4167,4.4773,4.5507,4.6177,4.6177,4.6324,4.6471,4.6471,4.6471,4.6397,4.5993,4.5883,4.5957,4.614,4.6177,4.6214,4.6434,4.6471,4.6471,4.6471,4.5399,4.3933,4.2139,4.0507,3.903,3.772,3.6806,3.6749,3.8075,3.9275,4.0718,4.2659,4.4455,4.5911,4.6948,4.7021,4.7315,4.7929,4.8517,4.926,5.0124,5.1326,5.2097,5.227,5.227,5.2564,5.3177,5.3214,5.3214,5.3214,5.3214,5.3214,5.3214,5.3214,5.3287,5.3508,5.4142,5.4509,5.473,5.5548,5.5879,5.5915,5.6099,5.6407,5.6825,5.7203,5.7728,5.84,5.8567,5.8138,5.8063,5.8024,5.7994,5.9054,6.2169,6.272,6.2794,6.2818,6.2818,6.272,6.2486,5.9795,5.799,5.8022,5.7997,5.8045,5.8155,5.8155,5.7627,5.6481,5.4468,5.3324,5.3214,5.3141,5.3104,5.3104,5.2307,5.1914,5.1877,5.0345,4.9574,4.9454,4.86,4.7746,4.7003,4.6966,4.6535,4.5883,4.5773,4.5773,4.5883,4.5847,4.5773,4.5736,4.5773,4.5773,4.5736,4.5773,4.6351,4.7003,4.7003,4.7526,4.8113,4.8113,4.8113,4.7792,4.6287,4.5883,4.6067,4.6819,4.7003,4.7223,4.7966,4.8113,4.8113,4.8113,4.7047,4.5859,4.5022,4.3115,4.1392,4.0593,3.9828,3.9737,4.1023,4.191,4.3511,4.6368,4.7507,4.8663,5.0288,5.0435,5.0472,5.0508,5.0582,5.0986,5.1767,5.195,5.2344,5.3104,5.3104,5.3141,5.3214,5.3214,5.3214,5.3214,5.3214,5.3214,5.3214,5.3214,5.3618,5.4326,5.4363,5.4803,5.5585,5.6381,5.6701,5.6774,5.7519,5.785,5.796,5.8756,5.9049,5.9233,5.8132,5.801,5.8635,6.0646,6.098,6.0713,5.9944,6.152,6.2806,6.2805,6.2793,6.2818,6.2806,5.9919,5.8018,5.8002,5.7999,5.7997,5.7997,5.7997,5.7347,5.5985,5.419,5.3214,5.3214,5.3214,5.3214,5.3214,5.2884,5.2747,5.2711,5.1096,5.0325,5.0288,4.893,4.8113,4.7819,4.7296,4.7195,4.7315,4.6287,4.6507,4.7352,4.6828,4.6645,4.6645,4.6645,4.6645,4.6645,4.6645,4.7195,4.7856,4.7856,4.8039,4.8302,4.8416,4.8115,4.7726,4.7643,4.7251,4.69,4.7227,4.73,4.761,4.8825,4.8673,4.8443,4.8976,4.7868,4.6448,4.5411,4.4097,4.3119,4.2825,4.2077,4.234,4.4664,4.5231,4.6247,4.8397,4.937,5.0105,5.0729,5.0802,5.1022,5.1499,5.1536,5.1903,5.2711,5.2747,5.3115,5.3922,5.3948,5.3691,5.3214,5.3691,5.3691,5.3214,5.3691,5.3691,5.3214,5.3214,5.3654,5.4436,5.4913,5.5611,5.6418,5.7226,5.7556,5.7556,5.7886,5.829,5.8792,5.9086,5.9526,6.004,5.7982,5.8009,5.9015,6.2251,6.2792,6.1704,5.847,6.0738,6.2806,6.2805,6.2793,6.2806,6.2794,6.0835,5.9101,5.8112,5.7999,5.7997,5.7997,5.7994,5.7296,5.5658,5.4289,5.3471,5.3214,5.3214,5.3214,5.3214,5.3214,5.3214,5.3177,5.183,5.1169,5.1132,4.9701,4.9077,4.904,4.8223,4.8186,4.86,4.7205,4.7462,4.8636,4.8122,4.8039,4.8223,4.7966,4.8039,4.8223,4.7966,4.8406,4.9077,4.9077,4.8912,4.8732,4.8601,4.8216,4.784,4.8061,4.7821,4.7615,4.8008,4.7962,4.8159,4.9628,4.9517,4.926,4.9858,4.9077,4.799,4.713,4.6306,4.5751,4.5751,4.504,4.5246,4.7561,4.7893,4.8489,5.0151,5.0839,5.1279,5.1536,5.1563,5.1793,5.2344,5.238,5.2637,5.3177,5.3214,5.3581,5.4363,5.4399,5.4252,5.3959,5.4509,5.4509,5.3959,5.4252,5.4252,5.3959,5.3691,5.4132,5.517,5.5721,5.6418,5.7262,5.807,5.84,5.84,5.8657,5.9098,5.96,5.9857,6.0297,6.0896,5.7991,5.7992,5.9005,6.2241,6.2781,6.1728,5.8553,6.0762,6.2806,6.2805,6.2793,6.2794,6.2793,6.278,6.1492,5.8265,5.7997,5.7997,5.7997,5.8003,5.729,5.5695,5.484,5.4032,5.3214,5.3214,5.3214,5.3214,5.3214,5.3214,5.3177,5.238,5.1987,5.195,5.1169,5.0802,5.0765,4.9968,4.961,4.9537,4.8673,4.882,4.961,4.961,5.0115,5.0692,4.9894,5.0115,5.0692,4.9894,5.0151,5.0802,5.0792,5.0288,4.9572,4.8981,4.876,4.8419,4.7158,4.7253,4.8014,4.9375,4.9131,4.8981,5.046,5.0802,5.0802,5.0802,5.0802,5.0802,5.0802,5.0151,4.961,4.961,4.8893,4.8636,4.95,4.961,5.0188,5.1803,5.2024,5.2307,5.3104,5.3214,5.3214,5.3214,5.3214,5.3214,5.3214,5.3214,5.3581,5.4399,5.4436,5.4803,5.5622,5.5622,5.5622,5.5585,5.4803,5.484,5.5585,5.4766,5.528,5.6811,5.6811,5.7262,5.807,5.8866,5.9196,5.9269,6.0077,6.0419,6.0529,6.13,6.1606,6.1704,5.8006,5.8006,5.9018,6.2242,6.2782,6.2475,6.1519,6.2181,6.2794,6.2794,6.2794,6.2806,6.2805,6.0772,5.9051,5.8075,5.7987,5.7997,5.7997,5.7983,5.7797,5.7279,5.5611,5.4466,5.4058,5.4032,5.4032,5.4032,5.3471,5.3214,5.3177,5.238,5.1987,5.195,5.1169,5.0802,5.0765,5.0545,5.0435,5.0398,5.0178,5.0215,5.0435,5.0435,5.0582,5.0765,5.0545,5.0618,5.0765,5.0508,5.0618,5.0694,5.0177,4.9878,4.9588,4.8986,4.8419,4.8043,4.8258,4.7728,4.7388,4.8747,4.8912,4.9232,5.1182,5.1206,5.0949,5.1536,5.1206,5.0802,5.0802,5.0618,5.0435,5.0435,5.0215,5.0325,5.1179,5.1289,5.1693,5.2711,5.2847,5.292,5.3177,5.3214,5.3214,5.3214,5.3214,5.3434,5.3995,5.4032,5.4656,5.604,5.6077,5.6455,5.7274,5.6712,5.6161,5.5585,5.5941,5.5904,5.5585,5.5365,5.5794,5.6811,5.6811,5.7262,5.807,5.8866,5.9196,5.9269,6.0077,6.075,6.1263,6.152,6.1961,6.2462,5.7999,5.9041,6.0506,6.2439,6.2806,6.2794,6.2805,6.2806,6.2818,6.2818,6.1691,6.0897,6.0884,5.9163,5.8007,5.8006,5.799,5.7987,5.7997,5.7997,5.8006,5.8012,5.676,5.5687,5.4876,5.4876,5.4755,5.455,5.3648,5.3366,5.3654,5.2858,5.2454,5.2454,5.1977,5.1746,5.1709,5.1426,5.1279,5.1242,5.0949,5.0986,5.1279,5.1279,5.1463,5.1709,5.1389,5.1463,5.1709,5.1389,5.1499,5.1616,5.0875,5.0472,5.0125,4.9457,4.8761,4.8328,4.887,4.8534,4.8337,4.9449,4.9483,4.984,5.1991,5.2087,5.1903,5.238,5.2087,5.1746,5.1746,5.1746,5.1746,5.1746,5.1746,5.194,5.2417,5.2454,5.2674,5.3141,5.3214,5.3214,5.3214,5.3214,5.3324,5.3654,5.3654,5.4032,5.484,5.4876,5.5464,5.6737,5.6811,5.7189,5.7997,5.7519,5.7042,5.6539,5.6712,5.6712,5.6539,5.6198,5.6528,5.7262,5.7262,5.7556,5.807,5.8866,5.938,5.9747,6.0566,6.1374,6.2071,6.2071,6.2585,6.3282,5.8365,6.081,6.2806,6.2794,6.2781,6.2793,6.2793,6.2793,6.2793,6.2805,6.026,5.8432,5.8434,5.8446,5.8434,5.8445,5.8176,5.799,5.8022,5.7997,5.7994,5.8,5.8006,5.731,5.5842,5.5816,5.5574,5.5067,5.3924,5.3689,5.4363,5.3581,5.3214,5.3214,5.3214,5.3214,5.3141,5.2417,5.2097,5.206,5.1316,5.1463,5.2097,5.2097,5.2564,5.3104,5.238,5.2564,5.3104,5.2344,5.2501,5.2893,5.2206,5.1544,5.0863,5.0132,4.9477,4.9,4.9061,4.9551,5.0216,5.1065,5.0789,5.0806,5.2758,5.3214,5.3214,5.3214,5.3214,5.3214,5.3287,5.3324,5.3324,5.3324,5.3324,5.3287,5.3214,5.3214,5.3214,5.3214,5.3214,5.3214,5.3214,5.3287,5.3618,5.4326,5.4473,5.484,5.5658,5.5695,5.6088,5.6884,5.6921,5.7262,5.7997,5.7997,5.7997,5.7997,5.7262,5.7299,5.796,5.7262,5.7299,5.7997,5.7997,5.7997,5.807,5.8939,5.9747,6.0493,6.1374,6.2144,6.2793,6.2793,6.3319,6.3882,6.1263,6.2328,6.2818,6.2806,6.2805,6.2793,6.2793,6.2793,6.2781,6.2794,6.2181,6.1765,6.174,6.1752,6.1764,6.1739,5.9466,5.7992,5.8015,5.7987,5.8008,5.7994,5.8008,5.785,5.7483,5.7477,5.7438,5.7316,5.5387,5.4436,5.4363,5.3581,5.3214,5.3214,5.3214,5.3214,5.3177,5.2994,5.292,5.292,5.2737,5.2774,5.292,5.292,5.3067,5.3177,5.2994,5.3067,5.3177,5.2994,5.2318,5.1542,5.1368,5.0823,5.0104,4.9402,4.9123,4.9123,4.9634,4.9876,5.0446,5.2357,5.2689,5.2678,5.3101,5.3214,5.3214,5.3214,5.3214,5.3398,5.4032,5.4142,5.4142,5.4142,5.4142,5.3922,5.3287,5.3214,5.3214,5.3214,5.3214,5.3214,5.3214,5.3765,5.4216,5.4399,5.4997,5.5695,5.6492,5.6528,5.6895,5.7703,5.774,5.7813,5.7997,5.7997,5.7997,5.7997,5.7813,5.7813,5.7997,5.7813,5.785,5.7997,5.7997,5.7997,5.8107,5.9538,6.0224,6.0529,6.1985,6.2646,6.2793,6.2793,6.2903,6.316,6.2463,6.2794,6.2781,6.2805,6.2793,6.2793,6.2793,6.2793,6.2805,6.2794,6.2806,6.2806,6.2782,6.2794,6.2806,6.2781,6.1263,5.9637,5.8102,5.8002,5.7987,5.7997,5.7997,5.7997,5.7997,5.8006,5.7992,5.7992,5.6864,5.5849,5.4961,5.4142,5.3581,5.3214,5.3214,5.3214,5.3214,5.3214,5.3214,5.3214,5.3214,5.3214,5.3214,5.3214,5.3214,5.3214,5.3214,5.3434,5.3648,5.2937,5.2658,5.2534,5.1823,5.1099,5.0376,4.9678,4.9477,4.9566,4.989,5.0758,5.1867,5.3014,5.3843,5.4399,5.4334,5.4326,5.4326,5.4326,5.4326,5.4473,5.4887,5.4961,5.4961,5.4961,5.4961,5.4693,5.3885,5.3765,5.3618,5.3251,5.3544,5.3922,5.4326,5.473,5.5133,5.5537,5.5941,5.6528,5.7336,5.7373,5.7556,5.7997,5.7997,5.7997,5.7997,5.7997,5.818,5.8572,5.818,5.7997,5.7997,5.84,5.8572,5.8572,5.8572,5.8572,5.8657,5.949,6.004,6.0529,6.1741,6.2462,6.2793,6.2793,6.305,6.3576,6.2794,6.2818,6.2793,6.2793,6.2793,6.2793,6.2793,6.2793,6.2793,6.2793,6.2803,6.2987,6.3578,6.3134,6.2792,6.2794,6.2794,6.1667,5.9003,5.8321,5.8004,5.7987,5.8522,5.8814,5.8814,5.829,5.8022,5.7997,5.7808,5.7073,5.5768,5.484,5.4032,5.3398,5.3251,5.3214,5.3214,5.3214,5.3287,5.3398,5.3398,5.3471,5.3618,5.3618,5.3618,5.3618,5.3618,5.3968,5.4228,5.2921,5.3281,5.4034,5.2904,5.1965,5.1193,5.0572,5.039,5.0418,5.0544,5.2012,5.3568,5.3832,5.4859,5.5842,5.5989,5.5805,5.5585,5.5585,5.5585,5.5658,5.5768,5.5805,5.5805,5.5805,5.5805,5.5511,5.473,5.462,5.4363,5.3691,5.4216,5.4876,5.5548,5.5732,5.6088,5.6737,5.6921,5.7373,5.8143,5.8217,5.8253,5.84,5.84,5.84,5.84,5.84,5.8731,5.9416,5.8731,5.84,5.8437,5.9086,5.9416,5.9416,5.9416,5.9343,5.9221,5.949,5.993,6.0493,6.1447,6.2218,6.2829,6.2976,6.3576,6.4494,6.2818,6.2805,6.2793,6.2793,6.2793,6.2793,6.2793,6.2793,6.2793,6.2793,6.278,6.3897,6.6728,6.4487,6.278,6.2805,6.2782,6.261,6.2181,5.9554,5.7983,5.8007,6.0663,6.2154,6.2154,5.9416,5.8014,5.7997,5.7056,5.6616,5.659,5.5097,5.4326,5.4216,5.3508,5.3214,5.3214,5.3214,5.3581,5.4252,5.4252,5.4656,5.5291,5.5291,5.5291,5.5291,5.5291,5.4967,5.4508,5.4208,5.3881,5.3697,5.4131,5.3279,5.2126,5.2033,5.1993,5.2139,5.2695,5.3639,5.4738,5.6022,5.6461,5.6822,5.7519,5.6613,5.5585,5.5585,5.5585,5.5805,5.6528,5.6638,5.6638,5.6638,5.6638,5.6345,5.5548,5.5438,5.5401,5.5291,5.5365,5.5475,5.5585,5.6235,5.6664,5.6774,5.7446,5.818,5.8976,5.9049,5.9343,6.0052,6.0089,6.0089,6.0089,6.0089,6.0126,6.0224,6.0126,6.0089,6.0089,6.0187,6.0224,6.0224,6.0224,5.982,5.9306,6.0713,6.0933,6.0554,6.2059,6.2683,6.2903,6.3649,6.442,6.5215,6.2793,6.2793,6.2793,6.2793,6.2793,6.2793,6.2793,6.2793,6.2793,6.2793,6.2792,6.3356,6.4819,6.3664,6.2793,6.2793,6.2806,6.2818,6.2806,6.1471,6.0274,5.937,6.158,6.278,6.278,6.0833,5.9795,5.9769,5.8107,5.713,5.6774,5.6077,5.528,5.4399,5.4509,5.4289,5.3922,5.4363,5.473,5.5071,5.5071,5.5291,5.5585,5.5585,5.5585,5.5541,5.5176,5.5386,5.5688,5.4817,5.4882,5.5317,5.5192,5.4448,5.3591,5.3591,5.3591,5.3654,5.3952,5.4894,5.5988,5.6644,5.7152,5.7556,5.7923,5.7457,5.6943,5.6943,5.6943,5.7042,5.7409,5.7483,5.7483,5.7483,5.7483,5.7189,5.6381,5.6271,5.6271,5.6271,5.6271,5.6638,5.7519,5.7912,5.8315,5.8767,5.9134,5.9501,5.9857,5.9857,6.004,6.037,6.0419,6.0419,6.0419,6.0419,6.0639,6.108,6.108,6.0823,6.0407,6.086,6.108,6.108,6.108,6.086,6.0603,6.13,6.1374,6.119,6.2352,6.3086,6.3613,6.4457,6.5301,6.6072]}]]